Darstellungsparameter: Aktuell verwendete Einstellungen:
Skalierung der Graphiken ... ?
xyx+y,   Skalierungsfaktor:      Skalierung: Modus: x, Faktor: 1
Darstellungszeitraum ... ?
Vom - - bis: - -   Zeitraum: 03.08.2019 - 02.08.2020
Min/Max/Avg-Anzeige ... ?
Zeige MMA aktuell
Zeige MMA Monat
Zeige MMA alles
Zeige --A aktuell
Zeige --A Monat
Zeige --A alles
Keine MMA-Anzeige
MMA:
Keine MMA-Graphiken
MMA-Basis: 03.08.2019 - 02.08.2020
Quicknavigation für Darstellung... ?
Tage:      1T, 2T, 3T, 5T -1T -2T -3T -5T +1T +2T +3T +5T
Wochen: 1W, 2W, 3W -1W -2W -3W +1W +2W +3W
Monate: 1M, 3M, 6M -1M -3M -6M +1M +3M +6M
Jahre:    1J, 3J, 5J, 10J -1J -3J -5J -10J +1J +3J +5J +10J
Nutze für die Darstellung ... ?
Originaldaten oder ...
Mittelwerte Minima Maxima auf...
Stundenbasis Tagesbasis Wochenbasis
Monatsbasis Jahresbasis      Datenbasis: Mittelwerte auf Stundenbasis
Darstellen als:
Statistik (Auto) Statistik J:M      Darstellung:
Zur Graphik,    zurück zur Übersicht aller Sensoren.
 
Tabellarische Datenbersicht: ?
 
Sensor: Nr:Datum:Temp:Feuchte:
Aussen-T/F 1 03-08-2019 00:00:00 18.18 C 29.8000 %
2 03-08-2019 01:00:00 18.5 C 27.4000 %
3 03-08-2019 02:00:00 18.42 C 30.4000 %
4 03-08-2019 03:00:00 18.3 C 32.6000 %
5 03-08-2019 04:00:00 18.26 C 35.0000 %
6 03-08-2019 05:00:00 18.22 C 35.0000 %
7 03-08-2019 06:00:00 18 C 34.8000 %
8 03-08-2019 07:00:00 18.02 C 31.2000 %
9 03-08-2019 08:00:00 18.22 C 29.2000 %
10 03-08-2019 09:00:00 18.96 C 21.4000 %
11 03-08-2019 10:00:00 20.22 C 20.0000 %
12 03-08-2019 11:00:00 21.54 C 20.0000 %
13 03-08-2019 12:00:00 22.56 C 20.0000 %
14 03-08-2019 13:00:00 22.72 C 20.0000 %
15 03-08-2019 14:00:00 23.16 C 20.0000 %
16 03-08-2019 15:00:00 24.6 C 20.0000 %
17 03-08-2019 16:00:00 26.04 C 20.0000 %
18 03-08-2019 17:00:00 26.04 C 20.0000 %
19 03-08-2019 18:00:00 25.92 C 20.0000 %
20 03-08-2019 19:00:00 24.46 C 20.0000 %
21 03-08-2019 20:00:00 22.74 C 20.0000 %
22 03-08-2019 21:00:00 20.38 C 20.0000 %
23 03-08-2019 22:00:00 17.96 C 20.0000 %
24 03-08-2019 23:00:00 17.1 C 24.4000 %
25 04-08-2019 00:00:00 16.12 C 29.0000 %
Sensor: Nr:Datum:Temp:Feuchte:
Aussen-T/F 26 04-08-2019 01:00:00 14.88 C 35.4000 %
27 04-08-2019 02:00:00 13.86 C 40.2000 %
28 04-08-2019 03:00:00 13.32 C 41.4000 %
29 04-08-2019 04:00:00 12.94 C 43.2000 %
30 04-08-2019 05:00:00 12.56 C 44.2000 %
31 04-08-2019 06:00:00 12.56 C 45.0000 %
32 04-08-2019 07:00:00 13.16 C 44.0000 %
33 04-08-2019 08:00:00 14.34 C 41.8000 %
34 04-08-2019 09:00:00 16.7 C 32.6000 %
35 04-08-2019 10:00:00 19.46 C 22.4000 %
36 04-08-2019 11:00:00 24.16 C 20.0000 %
37 04-08-2019 12:00:00 24.26 C 20.0000 %
38 04-08-2019 13:00:00 25.1 C 20.0000 %
39 04-08-2019 14:00:00 26.86 C 20.0000 %
40 04-08-2019 15:00:00 29.46 C 20.0000 %
41 04-08-2019 16:00:00 30.64 C 20.0000 %
42 04-08-2019 17:00:00 31.9 C 20.0000 %
43 04-08-2019 18:00:00 31.46 C 20.0000 %
44 04-08-2019 19:00:00 28.12 C 20.0000 %
45 04-08-2019 20:00:00 24.86 C 20.0000 %
46 04-08-2019 21:00:00 22.22 C 20.0000 %
47 04-08-2019 22:00:00 22.24 C 20.0000 %
48 04-08-2019 23:00:00 22.98 C 20.0000 %
49 05-08-2019 00:00:00 23.08 C 20.0000 %
50 05-08-2019 01:00:00 21.12 C 20.0000 %
Sensor: Nr:Datum:Temp:Feuchte:
Aussen-T/F 51 05-08-2019 02:00:00 20.02 C 20.0000 %
52 05-08-2019 03:00:00 19.54 C 20.0000 %
53 05-08-2019 04:00:00 19.06 C 22.6000 %
54 05-08-2019 05:00:00 19.16 C 24.4000 %
55 05-08-2019 06:00:00 17.68 C 40.4000 %
56 05-08-2019 07:00:00 17.1 C 46.4000 %
57 05-08-2019 08:00:00 17.54 C 48.0000 %
58 05-08-2019 09:00:00 18.92 C 41.4000 %
59 05-08-2019 10:00:00 21 C 30.8000 %
60 05-08-2019 11:00:00 23.2 C 23.0000 %
61 05-08-2019 12:00:00 24.72 C 20.0000 %
62 05-08-2019 13:00:00 26.5 C 20.0000 %
63 05-08-2019 14:00:00 27.7 C 20.0000 %
64 05-08-2019 15:00:00 28.88 C 20.0000 %
65 05-08-2019 16:00:00 29.14 C 20.0000 %
66 05-08-2019 17:00:00 28.56 C 20.0000 %
67 05-08-2019 18:00:00 27.7 C 20.0000 %
68 05-08-2019 19:00:00 26.58 C 20.0000 %
69 05-08-2019 20:00:00 24.32 C 20.0000 %
70 05-08-2019 21:00:00 21.2 C 20.0000 %
71 05-08-2019 22:00:00 20.1 C 20.0000 %
72 05-08-2019 23:00:00 18.82 C 21.0000 %
73 06-08-2019 00:00:00 17.8 C 24.8000 %
74 06-08-2019 01:00:00 16.9 C 27.6000 %
75 06-08-2019 02:00:00 17.12 C 28.8000 %
Sensor: Nr:Datum:Temp:Feuchte:
Aussen-T/F 76 06-08-2019 03:00:00 17.64 C 28.2000 %
77 06-08-2019 04:00:00 17.1 C 29.6000 %
78 06-08-2019 05:00:00 16.5 C 32.0000 %
79 06-08-2019 06:00:00 16.94 C 31.4000 %
80 06-08-2019 07:00:00 18.28 C 25.8000 %
81 06-08-2019 08:00:00 19 C 25.0000 %
82 06-08-2019 09:00:00 20.56 C 20.0000 %
83 06-08-2019 10:00:00 18.76 C 36.8000 %
84 06-08-2019 11:00:00 19.78 C 36.6000 %
85 06-08-2019 12:00:00 21.9 C 24.0000 %
86 06-08-2019 13:00:00 22.76 C 21.0000 %
87 06-08-2019 14:00:00 24.26 C 20.0000 %
88 06-08-2019 15:00:00 25.48 C 20.0000 %
89 06-08-2019 16:00:00 26.22 C 20.0000 %
90 06-08-2019 17:00:00 27.04 C 20.0000 %
91 06-08-2019 18:00:00 25.06 C 20.0000 %
92 06-08-2019 19:00:00 20.86 C 30.6000 %
93 06-08-2019 20:00:00 18.38 C 45.8000 %
94 06-08-2019 21:00:00 17.74 C 49.2000 %
95 06-08-2019 22:00:00 17.26 C 54.6000 %
96 06-08-2019 23:00:00 16.84 C 56.2000 %
97 07-08-2019 00:00:00 16.42 C 56.0000 %
98 07-08-2019 01:00:00 16.08 C 57.2000 %
99 07-08-2019 02:00:00 16.32 C 59.2000 %
100 07-08-2019 03:00:00 16.4 C 59.0000 %
Sensor: Nr:Datum:Temp:Feuchte:
Aussen-T/F 101 07-08-2019 04:00:00 16.36 C 58.6000 %
102 07-08-2019 05:00:00 16.48 C 60.4000 %
103 07-08-2019 06:00:00 16.74 C 61.8000 %
104 07-08-2019 07:00:00 17.04 C 61.2000 %
105 07-08-2019 08:00:00 17.6 C 61.4000 %
106 07-08-2019 09:00:00 18.2 C 55.0000 %
107 07-08-2019 10:00:00 19.02 C 40.2000 %
108 07-08-2019 11:00:00 20.58 C 32.8000 %
109 07-08-2019 12:00:00 21.56 C 27.4000 %
110 07-08-2019 13:00:00 22.46 C 22.4000 %
111 07-08-2019 14:00:00 22.98 C 22.0000 %
112 07-08-2019 15:00:00 23.1 C 20.8000 %
113 07-08-2019 16:00:00 22.42 C 21.4000 %
114 07-08-2019 17:00:00 22.82 C 20.2000 %
115 07-08-2019 18:00:00 23.8 C 20.2000 %
116 07-08-2019 19:00:00 21.74 C 25.0000 %
117 07-08-2019 20:00:00 19.34 C 35.0000 %
118 07-08-2019 21:00:00 17.62 C 38.6000 %
119 07-08-2019 22:00:00 16.7 C 39.6000 %
120 07-08-2019 23:00:00 16.66 C 37.8000 %
121 08-08-2019 00:00:00 15.76 C 43.8000 %
122 08-08-2019 01:00:00 16.54 C 40.4000 %
123 08-08-2019 02:00:00 16.44 C 41.8000 %
124 08-08-2019 03:00:00 16.38 C 40.8000 %
125 08-08-2019 04:00:00 15.94 C 44.8000 %
Sensor: Nr:Datum:Temp:Feuchte:
Aussen-T/F 126 08-08-2019 05:00:00 14.86 C 46.6000 %
127 08-08-2019 06:00:00 15.88 C 42.8000 %
128 08-08-2019 07:00:00 15.98 C 42.6000 %
129 08-08-2019 08:00:00 17.22 C 37.4000 %
130 08-08-2019 09:00:00 18.8 C 29.8000 %
131 08-08-2019 10:00:00 20.8 C 21.8000 %
132 08-08-2019 11:00:00 23.92 C 20.0000 %
133 08-08-2019 12:00:00 23.46 C 20.0000 %
134 08-08-2019 13:00:00 24.56 C 20.0000 %
135 08-08-2019 14:00:00 24.6 C 20.0000 %
136 08-08-2019 15:00:00 25.12 C 20.0000 %
137 08-08-2019 16:00:00 27.4 C 20.0000 %
138 08-08-2019 17:00:00 27.76 C 20.0000 %
139 08-08-2019 18:00:00 27.98 C 20.0000 %
140 08-08-2019 19:00:00 24.9 C 20.0000 %
141 08-08-2019 20:00:00 22.38 C 22.2000 %
142 08-08-2019 21:00:00 19.92 C 28.6000 %
143 08-08-2019 22:00:00 18.76 C 33.6000 %
144 08-08-2019 23:00:00 18 C 38.4000 %
145 09-08-2019 00:00:00 16.78 C 42.0000 %
146 09-08-2019 01:00:00 16.16 C 43.2000 %
147 09-08-2019 02:00:00 15.84 C 44.2000 %
148 09-08-2019 03:00:00 15.04 C 45.6000 %
149 09-08-2019 04:00:00 14.66 C 46.6000 %
150 09-08-2019 05:00:00 14.42 C 46.8000 %
Sensor: Nr:Datum:Temp:Feuchte:
Aussen-T/F 151 09-08-2019 06:00:00 14.76 C 47.2000 %
152 09-08-2019 07:00:00 16.18 C 42.0000 %
153 09-08-2019 08:00:00 17.24 C 36.8000 %
154 09-08-2019 09:00:00 19.18 C 30.4000 %
155 09-08-2019 10:00:00 21.6 C 25.6000 %
156 09-08-2019 11:00:00 25.26 C 20.0000 %
157 09-08-2019 12:00:00 25.24 C 20.0000 %
158 09-08-2019 13:00:00 25.1 C 20.2000 %
159 09-08-2019 14:00:00 22.92 C 31.4000 %
160 09-08-2019 15:00:00 24.42 C 29.6000 %
161 09-08-2019 16:00:00 26.96 C 21.2000 %
162 09-08-2019 17:00:00 23.68 C 36.6000 %
163 09-08-2019 18:00:00 21.68 C 44.8000 %
164 09-08-2019 19:00:00 20.86 C 46.8000 %
165 09-08-2019 20:00:00 19.16 C 48.4000 %
166 09-08-2019 21:00:00 19.1 C 58.6000 %
167 09-08-2019 22:00:00 18.98 C 59.4000 %
168 09-08-2019 23:00:00 18.5 C 59.6000 %
169 10-08-2019 00:00:00 18.66 C 61.8000 %
170 10-08-2019 01:00:00 18.54 C 61.6000 %
171 10-08-2019 02:00:00 18.16 C 61.2000 %
172 10-08-2019 03:00:00 18 C 62.2000 %
173 10-08-2019 04:00:00 17.66 C 62.2000 %
174 10-08-2019 05:00:00 17.14 C 63.0000 %
175 10-08-2019 06:00:00 17.16 C 63.2000 %
Sensor: Nr:Datum:Temp:Feuchte:
Aussen-T/F 176 10-08-2019 07:00:00 17.1 C 62.0000 %
177 10-08-2019 08:00:00 17.66 C 42.4000 %
178 10-08-2019 09:00:00 19.52 C 32.4000 %
179 10-08-2019 10:00:00 20.96 C 28.8000 %
180 10-08-2019 11:00:00 22.14 C 24.6000 %
181 10-08-2019 12:00:00 23.08 C 21.6000 %
182 10-08-2019 13:00:00 23.86 C 20.0000 %
183 10-08-2019 14:00:00 24.64 C 20.0000 %
184 10-08-2019 15:00:00 25.62 C 20.0000 %
185 10-08-2019 16:00:00 25.72 C 20.0000 %
186 10-08-2019 17:00:00 26.9 C 20.0000 %
187 10-08-2019 18:00:00 26.2 C 20.0000 %
188 10-08-2019 19:00:00 25.06 C 20.0000 %
189 10-08-2019 20:00:00 21.68 C 21.6000 %
190 10-08-2019 21:00:00 18.7 C 28.4000 %
191 10-08-2019 22:00:00 17.24 C 32.6000 %
192 10-08-2019 23:00:00 16.1 C 34.8000 %
193 11-08-2019 00:00:00 15.52 C 36.6000 %
194 11-08-2019 01:00:00 15.36 C 39.6000 %
195 11-08-2019 02:00:00 15.84 C 36.4000 %
196 11-08-2019 03:00:00 14.8 C 39.6000 %
197 11-08-2019 04:00:00 14.2 C 41.6000 %
198 11-08-2019 05:00:00 13.34 C 45.0000 %
199 11-08-2019 06:00:00 13.56 C 45.8000 %
200 11-08-2019 07:00:00 14.38 C 41.0000 %
Sensor: Nr:Datum:Temp:Feuchte:
Aussen-T/F 201 11-08-2019 08:00:00 15.22 C 39.2000 %
202 11-08-2019 09:00:00 16.8 C 35.4000 %
203 11-08-2019 10:00:00 20.3 C 22.8000 %
204 11-08-2019 11:00:00 22.84 C 20.0000 %
205 11-08-2019 12:00:00 22.84 C 20.0000 %
206 11-08-2019 13:00:00 23.44 C 20.0000 %
207 11-08-2019 14:00:00 23.04 C 20.0000 %
208 11-08-2019 15:00:00 21.38 C 20.0000 %
209 11-08-2019 16:00:00 19.08 C 27.6000 %
210 11-08-2019 17:00:00 16.16 C 46.6000 %
211 11-08-2019 18:00:00 15.72 C 44.6000 %
212 11-08-2019 19:00:00 15.84 C 42.2000 %
213 11-08-2019 20:00:00 15.36 C 45.2000 %
214 11-08-2019 21:00:00 15 C 42.6000 %
215 11-08-2019 22:00:00 14.14 C 46.4000 %
216 11-08-2019 23:00:00 14.64 C 43.4000 %
217 12-08-2019 00:00:00 15.04 C 41.4000 %
218 12-08-2019 01:00:00 14.22 C 45.6000 %
219 12-08-2019 02:00:00 13.46 C 49.0000 %
220 12-08-2019 03:00:00 12.6 C 50.4000 %
221 12-08-2019 04:00:00 12.6 C 50.4000 %
222 12-08-2019 05:00:00 12.5 C 48.4000 %
223 12-08-2019 06:00:00 12.7 C 49.4000 %
224 12-08-2019 07:00:00 12.82 C 49.0000 %
225 12-08-2019 08:00:00 13.56 C 49.8000 %
Sensor: Nr:Datum:Temp:Feuchte:
Aussen-T/F 226 12-08-2019 09:00:00 15.56 C 38.6000 %
227 12-08-2019 10:00:00 18.28 C 29.8000 %
228 12-08-2019 11:00:00 22 C 21.0000 %
229 12-08-2019 12:00:00 21.74 C 20.2000 %
230 12-08-2019 13:00:00 22.24 C 20.0000 %
231 12-08-2019 14:00:00 23.4 C 20.0000 %
232 12-08-2019 15:00:00 24.24 C 20.0000 %
233 12-08-2019 16:00:00 22.54 C 20.0000 %
234 12-08-2019 17:00:00 17.06 C 33.4000 %
235 12-08-2019 18:00:00 15.5 C 45.0000 %
236 12-08-2019 19:00:00 15.56 C 46.2000 %
237 12-08-2019 20:00:00 15.2 C 46.4000 %
238 12-08-2019 21:00:00 15.04 C 48.6000 %
239 12-08-2019 22:00:00 14.72 C 48.6000 %
240 12-08-2019 23:00:00 13.8 C 44.4000 %
241 13-08-2019 00:00:00 13.52 C 48.4000 %
242 13-08-2019 01:00:00 12.86 C 49.6000 %
243 13-08-2019 02:00:00 12.84 C 49.4000 %
244 13-08-2019 03:00:00 12.74 C 49.8000 %
245 13-08-2019 04:00:00 13.34 C 47.4000 %
246 13-08-2019 05:00:00 13.12 C 45.8000 %
247 13-08-2019 06:00:00 12.6 C 48.8000 %
248 13-08-2019 07:00:00 13.2 C 42.0000 %
249 13-08-2019 08:00:00 13.7 C 39.0000 %
250 13-08-2019 09:00:00 15.24 C 32.6000 %
Sensor: Nr:Datum:Temp:Feuchte:
Aussen-T/F 251 13-08-2019 10:00:00 16.7 C 24.0000 %
252 13-08-2019 11:00:00 18.62 C 20.0000 %
253 13-08-2019 12:00:00 18.6 C 20.0000 %
254 13-08-2019 13:00:00 19.48 C 20.0000 %
255 13-08-2019 14:00:00 20.48 C 20.0000 %
256 13-08-2019 15:00:00 22.26 C 20.0000 %
257 13-08-2019 16:00:00 22.1 C 20.0000 %
258 13-08-2019 17:00:00 21.58 C 20.0000 %
259 13-08-2019 18:00:00 21.54 C 20.0000 %
260 13-08-2019 19:00:00 17.72 C 23.8000 %
261 13-08-2019 20:00:00 13.98 C 43.0000 %
262 13-08-2019 21:00:00 13.64 C 47.2000 %
263 13-08-2019 22:00:00 13.5 C 48.2000 %
264 13-08-2019 23:00:00 13.24 C 47.8000 %
265 14-08-2019 00:00:00 12.92 C 48.2000 %
266 14-08-2019 01:00:00 12.54 C 48.0000 %
267 14-08-2019 02:00:00 11.9 C 48.2000 %
268 14-08-2019 03:00:00 11.9 C 49.6000 %
269 14-08-2019 04:00:00 11.1 C 49.8000 %
270 14-08-2019 05:00:00 10.66 C 51.0000 %
271 14-08-2019 06:00:00 10.22 C 51.6000 %
272 14-08-2019 07:00:00 10.52 C 52.0000 %
273 14-08-2019 08:00:00 11.46 C 51.4000 %
274 14-08-2019 09:00:00 13.78 C 38.4000 %
275 14-08-2019 10:00:00 14.84 C 37.6000 %
Sensor: Nr:Datum:Temp:Feuchte:
Aussen-T/F 276 14-08-2019 11:00:00 17.64 C 27.2000 %
277 14-08-2019 12:00:00 18.28 C 20.4000 %
278 14-08-2019 13:00:00 19.6 C 20.0000 %
279 14-08-2019 14:00:00 21.76 C 20.0000 %
280 14-08-2019 15:00:00 23.44 C 20.0000 %
281 14-08-2019 16:00:00 24.54 C 20.0000 %
282 14-08-2019 17:00:00 25.06 C 20.0000 %
283 14-08-2019 18:00:00 24.66 C 20.0000 %
284 14-08-2019 19:00:00 21.82 C 20.0000 %
285 14-08-2019 20:00:00 19.02 C 22.4000 %
286 14-08-2019 21:00:00 17.9 C 26.6000 %
287 14-08-2019 22:00:00 17.54 C 27.4000 %
288 14-08-2019 23:00:00 17.4 C 27.2000 %
289 15-08-2019 00:00:00 17.4 C 27.0000 %
290 15-08-2019 01:00:00 17.02 C 29.4000 %
291 15-08-2019 02:00:00 15.22 C 45.2000 %
292 15-08-2019 03:00:00 14.74 C 49.6000 %
293 15-08-2019 04:00:00 14.68 C 49.8000 %
294 15-08-2019 05:00:00 14.72 C 48.8000 %
295 15-08-2019 06:00:00 14.92 C 47.6000 %
296 15-08-2019 07:00:00 16.16 C 38.8000 %
297 15-08-2019 08:00:00 17.7 C 31.0000 %
298 15-08-2019 09:00:00 18.72 C 29.8000 %
299 15-08-2019 10:00:00 19.64 C 28.4000 %
300 15-08-2019 11:00:00 19.6 C 29.6000 %
Sensor: Nr:Datum:Temp:Feuchte:
Aussen-T/F 301 15-08-2019 12:00:00 20.02 C 29.0000 %
302 15-08-2019 13:00:00 18.22 C 44.0000 %
303 15-08-2019 14:00:00 20.02 C 33.2000 %
304 15-08-2019 15:00:00 20.5 C 34.4000 %
305 15-08-2019 16:00:00 18.94 C 39.4000 %
306 15-08-2019 17:00:00 16.88 C 47.0000 %
307 15-08-2019 18:00:00 16.76 C 46.0000 %
308 15-08-2019 19:00:00 17.2 C 44.8000 %
309 15-08-2019 20:00:00 16.82 C 46.4000 %
310 15-08-2019 21:00:00 16.3 C 45.0000 %
311 15-08-2019 22:00:00 15.52 C 48.0000 %
312 15-08-2019 23:00:00 15.24 C 48.4000 %
313 16-08-2019 00:00:00 14.98 C 47.4000 %
314 16-08-2019 01:00:00 14.3 C 50.0000 %
315 16-08-2019 02:00:00 14.34 C 50.4000 %
316 16-08-2019 03:00:00 14.44 C 49.6000 %
317 16-08-2019 04:00:00 13.56 C 49.4000 %
318 16-08-2019 05:00:00 13.2 C 51.6000 %
319 16-08-2019 06:00:00 13.64 C 50.4000 %
320 16-08-2019 07:00:00 14.46 C 40.8000 %
321 16-08-2019 08:00:00 14.84 C 38.4000 %
322 16-08-2019 09:00:00 15.92 C 34.6000 %
323 16-08-2019 10:00:00 17.14 C 30.8000 %
324 16-08-2019 11:00:00 18.72 C 25.8000 %
325 16-08-2019 12:00:00 18.82 C 25.8000 %
Sensor: Nr:Datum:Temp:Feuchte:
Aussen-T/F 326 16-08-2019 13:00:00 19.94 C 21.2000 %
327 16-08-2019 14:00:00 21.04 C 20.4000 %
328 16-08-2019 15:00:00 22.72 C 20.0000 %
329 16-08-2019 16:00:00 24.3 C 20.0000 %
330 16-08-2019 17:00:00 25.2 C 20.0000 %
331 16-08-2019 18:00:00 25 C 20.0000 %
332 16-08-2019 19:00:00 22.98 C 20.0000 %
333 16-08-2019 20:00:00 18.66 C 28.2000 %
334 16-08-2019 21:00:00 17.34 C 32.6000 %
335 16-08-2019 22:00:00 16.64 C 36.2000 %
336 16-08-2019 23:00:00 15.98 C 37.8000 %
337 17-08-2019 00:00:00 15.6 C 40.0000 %
338 17-08-2019 01:00:00 15.94 C 40.2000 %
339 17-08-2019 02:00:00 15.7 C 40.6000 %
340 17-08-2019 03:00:00 15.26 C 45.4000 %
341 17-08-2019 04:00:00 15.3 C 47.8000 %
342 17-08-2019 05:00:00 15.48 C 47.4000 %
343 17-08-2019 06:00:00 15.72 C 45.4000 %
344 17-08-2019 07:00:00 16.52 C 42.0000 %
345 17-08-2019 08:00:00 17.46 C 36.0000 %
346 17-08-2019 09:00:00 18.66 C 28.4000 %
347 17-08-2019 10:00:00 18.68 C 30.8000 %
348 17-08-2019 11:00:00 17.82 C 39.4000 %
349 17-08-2019 12:00:00 19.06 C 35.6000 %
350 17-08-2019 13:00:00 20.9 C 25.2000 %
Sensor: Nr:Datum:Temp:Feuchte:
Aussen-T/F 351 17-08-2019 14:00:00 21.28 C 24.0000 %
352 17-08-2019 15:00:00 21.42 C 23.6000 %
353 17-08-2019 16:00:00 21.14 C 24.8000 %
354 17-08-2019 17:00:00 20.4 C 27.2000 %
355 17-08-2019 18:00:00 19.4 C 34.2000 %
356 17-08-2019 19:00:00 18.2 C 44.2000 %
357 17-08-2019 20:00:00 17.66 C 46.8000 %
358 17-08-2019 21:00:00 17.46 C 47.4000 %
359 17-08-2019 22:00:00 17.28 C 48.4000 %
360 17-08-2019 23:00:00 17.1 C 49.0000 %
361 18-08-2019 00:00:00 17.12 C 49.4000 %
362 18-08-2019 01:00:00 17 C 50.2000 %
363 18-08-2019 02:00:00 16.88 C 51.8000 %
364 18-08-2019 03:00:00 16.86 C 54.0000 %
365 18-08-2019 04:00:00 16.86 C 56.8000 %
366 18-08-2019 05:00:00 17 C 59.6000 %
367 18-08-2019 06:00:00 16.92 C 60.6000 %
368 18-08-2019 07:00:00 17.12 C 61.4000 %
369 18-08-2019 08:00:00 17.72 C 60.2000 %
370 18-08-2019 09:00:00 18.68 C 56.2000 %
371 18-08-2019 10:00:00 20.06 C 43.8000 %
372 18-08-2019 11:00:00 23.14 C 31.2000 %
373 18-08-2019 12:00:00 24.44 C 25.6000 %
374 18-08-2019 13:00:00 24.62 C 24.6000 %
375 18-08-2019 14:00:00 24.74 C 24.0000 %
Sensor: Nr:Datum:Temp:Feuchte:
Aussen-T/F 376 18-08-2019 15:00:00 24.9 C 23.8000 %
377 18-08-2019 16:00:00 25.16 C 22.2000 %
378 18-08-2019 17:00:00 23.82 C 25.6000 %
379 18-08-2019 18:00:00 19.86 C 48.0000 %
380 18-08-2019 19:00:00 19.48 C 48.0000 %
381 18-08-2019 20:00:00 19.1 C 47.8000 %
382 18-08-2019 21:00:00 18.32 C 47.2000 %
383 18-08-2019 22:00:00 17.12 C 48.6000 %
384 18-08-2019 23:00:00 16.32 C 47.4000 %
385 19-08-2019 00:00:00 16.04 C 48.0000 %
386 19-08-2019 01:00:00 16.08 C 46.2000 %
387 19-08-2019 02:00:00 15.72 C 47.4000 %
388 19-08-2019 03:00:00 15.16 C 48.4000 %
389 19-08-2019 04:00:00 14.76 C 50.6000 %
390 19-08-2019 05:00:00 14.88 C 50.4000 %
391 19-08-2019 06:00:00 14.26 C 51.0000 %
392 19-08-2019 07:00:00 14.86 C 54.2000 %
393 19-08-2019 08:00:00 15.48 C 46.4000 %
394 19-08-2019 09:00:00 16.28 C 40.0000 %
395 19-08-2019 10:00:00 18.2 C 29.0000 %
396 19-08-2019 11:00:00 20.96 C 20.2000 %
397 19-08-2019 12:00:00 20.6 C 20.0000 %
398 19-08-2019 13:00:00 21.88 C 20.0000 %
399 19-08-2019 14:00:00 23.42 C 20.0000 %
400 19-08-2019 15:00:00 23.9 C 20.0000 %
Sensor: Nr:Datum:Temp:Feuchte:
Aussen-T/F 401 19-08-2019 16:00:00 24.46 C 20.0000 %
402 19-08-2019 17:00:00 23.98 C 20.0000 %
403 19-08-2019 18:00:00 23.88 C 20.0000 %
404 19-08-2019 19:00:00 22.16 C 20.0000 %
405 19-08-2019 20:00:00 18.58 C 24.6000 %
406 19-08-2019 21:00:00 16.62 C 28.8000 %
407 19-08-2019 22:00:00 16.2 C 31.0000 %
408 19-08-2019 23:00:00 14.48 C 36.0000 %
409 20-08-2019 00:00:00 13.62 C 39.0000 %
410 20-08-2019 01:00:00 13.06 C 41.4000 %
411 20-08-2019 02:00:00 12.78 C 41.8000 %
412 20-08-2019 03:00:00 11.86 C 45.0000 %
413 20-08-2019 04:00:00 11.1 C 48.0000 %
414 20-08-2019 05:00:00 10.74 C 50.2000 %
415 20-08-2019 06:00:00 10.32 C 50.6000 %
416 20-08-2019 07:00:00 11.08 C 49.8000 %
417 20-08-2019 08:00:00 11.72 C 48.0000 %
418 20-08-2019 09:00:00 13.52 C 42.0000 %
419 20-08-2019 10:00:00 16.54 C 28.6000 %
420 20-08-2019 11:00:00 18.02 C 21.6000 %
421 20-08-2019 12:00:00 19.26 C 20.0000 %
422 20-08-2019 13:00:00 20.14 C 20.0000 %
423 20-08-2019 14:00:00 21.18 C 20.0000 %
424 20-08-2019 15:00:00 21.82 C 20.0000 %
425 20-08-2019 16:00:00 21.38 C 20.0000 %
Sensor: Nr:Datum:Temp:Feuchte:
Aussen-T/F 426 20-08-2019 17:00:00 20.68 C 20.0000 %
427 20-08-2019 18:00:00 20.02 C 22.8000 %
428 20-08-2019 19:00:00 18.38 C 26.8000 %
429 20-08-2019 20:00:00 17.18 C 28.6000 %
430 20-08-2019 21:00:00 16.38 C 31.0000 %
431 20-08-2019 22:00:00 16.14 C 30.6000 %
432 20-08-2019 23:00:00 14.96 C 34.0000 %
433 21-08-2019 00:00:00 13.7 C 40.8000 %
434 21-08-2019 01:00:00 13.04 C 42.8000 %
435 21-08-2019 02:00:00 12.12 C 46.4000 %
436 21-08-2019 03:00:00 11.6 C 49.2000 %
437 21-08-2019 04:00:00 10.92 C 49.6000 %
438 21-08-2019 05:00:00 10.46 C 50.6000 %
439 21-08-2019 06:00:00 10.14 C 51.0000 %
440 21-08-2019 07:00:00 10.4 C 51.0000 %
441 21-08-2019 08:00:00 11.04 C 50.4000 %
442 21-08-2019 09:00:00 12.2 C 49.0000 %
443 21-08-2019 10:00:00 14.46 C 41.4000 %
444 21-08-2019 11:00:00 19.18 C 25.4000 %
445 21-08-2019 12:00:00 18.86 C 22.6000 %
446 21-08-2019 13:00:00 20.62 C 20.0000 %
447 21-08-2019 14:00:00 22.36 C 20.0000 %
448 21-08-2019 15:00:00 23.68 C 20.0000 %
449 21-08-2019 16:00:00 24.7 C 20.0000 %
450 21-08-2019 17:00:00 24.62 C 20.0000 %
Sensor: Nr:Datum:Temp:Feuchte:
Aussen-T/F 451 21-08-2019 18:00:00 24.52 C 20.0000 %
452 21-08-2019 19:00:00 22.52 C 20.0000 %
453 21-08-2019 20:00:00 18.84 C 20.0000 %
454 21-08-2019 21:00:00 16.78 C 20.2000 %
455 21-08-2019 22:00:00 15.66 C 23.2000 %
456 21-08-2019 23:00:00 14.28 C 29.8000 %
457 22-08-2019 00:00:00 12.86 C 35.6000 %
458 22-08-2019 01:00:00 11.88 C 38.8000 %
459 22-08-2019 02:00:00 11.24 C 42.4000 %
460 22-08-2019 03:00:00 10.78 C 45.2000 %
461 22-08-2019 04:00:00 10.2 C 47.0000 %
462 22-08-2019 05:00:00 9.66 C 49.0000 %
463 22-08-2019 06:00:00 9.58 C 50.4000 %
464 22-08-2019 07:00:00 9.76 C 50.4000 %
465 22-08-2019 08:00:00 10.5 C 50.0000 %
466 22-08-2019 09:00:00 11.8 C 48.8000 %
467 22-08-2019 10:00:00 14.66 C 36.4000 %
468 22-08-2019 11:00:00 19.62 C 23.2000 %
469 22-08-2019 12:00:00 20.3 C 21.6000 %
470 22-08-2019 13:00:00 22.36 C 20.0000 %
471 22-08-2019 14:00:00 24.34 C 20.0000 %
472 22-08-2019 15:00:00 26.72 C 20.0000 %
473 22-08-2019 16:00:00 27.32 C 20.0000 %
474 22-08-2019 17:00:00 27.78 C 20.0000 %
475 22-08-2019 18:00:00 27.86 C 20.0000 %
Sensor: Nr:Datum:Temp:Feuchte:
Aussen-T/F 476 22-08-2019 19:00:00 23.98 C 20.0000 %
477 22-08-2019 20:00:00 20 C 20.0000 %
478 22-08-2019 21:00:00 17.6 C 20.8000 %
479 22-08-2019 22:00:00 15.84 C 26.4000 %
480 22-08-2019 23:00:00 14.32 C 30.8000 %
481 23-08-2019 00:00:00 13.4 C 34.0000 %
482 23-08-2019 01:00:00 12.92 C 36.8000 %
483 23-08-2019 02:00:00 12.28 C 40.0000 %
484 23-08-2019 03:00:00 11.62 C 43.6000 %
485 23-08-2019 04:00:00 11.28 C 45.6000 %
486 23-08-2019 05:00:00 10.88 C 46.8000 %
487 23-08-2019 06:00:00 10.42 C 48.6000 %
488 23-08-2019 07:00:00 10.76 C 49.2000 %
489 23-08-2019 08:00:00 11.42 C 48.4000 %
490 23-08-2019 09:00:00 12.68 C 47.2000 %
491 23-08-2019 10:00:00 15.6 C 37.2000 %
492 23-08-2019 11:00:00 19.44 C 25.8000 %
493 23-08-2019 12:00:00 21.32 C 22.0000 %
494 23-08-2019 13:00:00 23.68 C 20.0000 %
495 23-08-2019 14:00:00 26.44 C 20.0000 %
496 23-08-2019 15:00:00 28.44 C 20.0000 %
497 23-08-2019 16:00:00 29.28 C 20.0000 %
498 23-08-2019 17:00:00 29.2 C 20.0000 %
499 23-08-2019 18:00:00 28.88 C 20.0000 %
500 23-08-2019 19:00:00 25.8 C 20.0000 %
Sensor: Nr:Datum:Temp:Feuchte:
Aussen-T/F 501 23-08-2019 20:00:00 21.8 C 20.0000 %
502 23-08-2019 21:00:00 19.28 C 20.0000 %
503 23-08-2019 22:00:00 17.16 C 23.4000 %
504 23-08-2019 23:00:00 15.62 C 27.6000 %
505 24-08-2019 00:00:00 14.4 C 31.4000 %
506 24-08-2019 01:00:00 13.64 C 36.0000 %
507 24-08-2019 02:00:00 13 C 39.0000 %
508 24-08-2019 03:00:00 12.34 C 41.6000 %
509 24-08-2019 04:00:00 11.76 C 44.6000 %
510 24-08-2019 05:00:00 11.46 C 46.8000 %
511 24-08-2019 06:00:00 11.28 C 47.6000 %
512 24-08-2019 07:00:00 11.62 C 47.8000 %
513 24-08-2019 08:00:00 12.24 C 46.6000 %
514 24-08-2019 09:00:00 13.48 C 45.0000 %
515 24-08-2019 10:00:00 16.54 C 34.4000 %
516 24-08-2019 11:00:00 20.06 C 24.4000 %
517 24-08-2019 12:00:00 22.2 C 21.4000 %
518 24-08-2019 13:00:00 25.32 C 20.0000 %
519 24-08-2019 14:00:00 27.52 C 20.0000 %
520 24-08-2019 15:00:00 29.28 C 20.0000 %
521 24-08-2019 16:00:00 30.1 C 20.0000 %
522 24-08-2019 17:00:00 30.38 C 20.0000 %
523 24-08-2019 18:00:00 30.32 C 20.0000 %
524 24-08-2019 19:00:00 27 C 20.0000 %
525 24-08-2019 20:00:00 23.14 C 20.0000 %
Sensor: Nr:Datum:Temp:Feuchte:
Aussen-T/F 526 24-08-2019 21:00:00 21.02 C 20.8000 %
527 24-08-2019 22:00:00 19.08 C 26.0000 %
528 24-08-2019 23:00:00 17.54 C 30.2000 %
529 25-08-2019 00:00:00 17 C 31.8000 %
530 25-08-2019 01:00:00 16.56 C 34.6000 %
531 25-08-2019 02:00:00 15.64 C 37.4000 %
532 25-08-2019 03:00:00 15.34 C 39.4000 %
533 25-08-2019 04:00:00 14.9 C 40.6000 %
534 25-08-2019 05:00:00 14.5 C 42.2000 %
535 25-08-2019 06:00:00 14.32 C 43.0000 %
536 25-08-2019 07:00:00 15.1 C 41.6000 %
537 25-08-2019 08:00:00 16.42 C 37.4000 %
538 25-08-2019 09:00:00 17.74 C 34.2000 %
539 25-08-2019 10:00:00 19.48 C 30.2000 %
540 25-08-2019 11:00:00 22.88 C 22.8000 %
541 25-08-2019 12:00:00 25.08 C 20.0000 %
542 25-08-2019 13:00:00 26.88 C 20.0000 %
543 25-08-2019 14:00:00 28.7 C 20.0000 %
544 25-08-2019 15:00:00 31.24 C 20.0000 %
545 25-08-2019 16:00:00 31.48 C 20.0000 %
546 25-08-2019 17:00:00 32.12 C 20.0000 %
547 25-08-2019 18:00:00 29.24 C 20.0000 %
548 25-08-2019 19:00:00 26.04 C 20.0000 %
549 25-08-2019 20:00:00 23.72 C 22.8000 %
550 25-08-2019 21:00:00 22.42 C 27.6000 %
Sensor: Nr:Datum:Temp:Feuchte:
Aussen-T/F 551 25-08-2019 22:00:00 20.7 C 34.0000 %
552 25-08-2019 23:00:00 19.6 C 37.8000 %
553 26-08-2019 00:00:00 19.16 C 40.2000 %
554 26-08-2019 01:00:00 18.62 C 41.4000 %
555 26-08-2019 02:00:00 18.12 C 43.6000 %
556 26-08-2019 03:00:00 17.6 C 44.2000 %
557 26-08-2019 04:00:00 17.08 C 46.2000 %
558 26-08-2019 05:00:00 16.88 C 46.6000 %
559 26-08-2019 06:00:00 16.5 C 47.2000 %
560 26-08-2019 07:00:00 16.66 C 47.4000 %
561 26-08-2019 08:00:00 17.9 C 45.6000 %
562 26-08-2019 09:00:00 19.14 C 42.6000 %
563 26-08-2019 10:00:00 21.16 C 35.2000 %
564 26-08-2019 11:00:00 24.26 C 25.6000 %
565 26-08-2019 12:00:00 26 C 21.8000 %
566 26-08-2019 13:00:00 28.46 C 20.0000 %
567 26-08-2019 14:00:00 30.14 C 20.0000 %
568 26-08-2019 15:00:00 30.56 C 20.0000 %
569 26-08-2019 16:00:00 28.26 C 20.0000 %
570 26-08-2019 17:00:00 26.6 C 20.0000 %
571 26-08-2019 18:00:00 27.26 C 20.2000 %
572 26-08-2019 19:00:00 26.38 C 20.6000 %
573 26-08-2019 20:00:00 23.52 C 25.8000 %
574 26-08-2019 21:00:00 21.72 C 31.8000 %
575 26-08-2019 22:00:00 20.48 C 37.0000 %
Sensor: Nr:Datum:Temp:Feuchte:
Aussen-T/F 576 26-08-2019 23:00:00 19.62 C 40.6000 %
577 27-08-2019 00:00:00 18.86 C 43.4000 %
578 27-08-2019 01:00:00 18.6 C 44.8000 %
579 27-08-2019 02:00:00 17.94 C 46.0000 %
580 27-08-2019 03:00:00 17.6 C 47.2000 %
581 27-08-2019 04:00:00 17.16 C 46.6000 %
582 27-08-2019 05:00:00 16.82 C 47.8000 %
583 27-08-2019 06:00:00 16.42 C 48.0000 %
584 27-08-2019 07:00:00 16.7 C 48.4000 %
585 27-08-2019 08:00:00 17.48 C 47.8000 %
586 27-08-2019 09:00:00 18.8 C 46.2000 %
587 27-08-2019 10:00:00 20.94 C 37.2000 %
588 27-08-2019 11:00:00 23.78 C 27.8000 %
589 27-08-2019 12:00:00 25.76 C 24.2000 %
590 27-08-2019 13:00:00 28.72 C 20.0000 %
591 27-08-2019 14:00:00 30.84 C 20.0000 %
592 27-08-2019 15:00:00 32.76 C 20.0000 %
593 27-08-2019 16:00:00 33.56 C 20.0000 %
594 27-08-2019 17:00:00 31 C 20.0000 %
595 27-08-2019 18:00:00 29.48 C 20.0000 %
596 27-08-2019 19:00:00 26.06 C 24.4000 %
597 27-08-2019 20:00:00 22.76 C 32.2000 %
598 27-08-2019 21:00:00 21.88 C 34.2000 %
599 27-08-2019 22:00:00 20.76 C 38.2000 %
600 27-08-2019 23:00:00 20.2 C 39.6000 %
Sensor: Nr:Datum:Temp:Feuchte:
Aussen-T/F 601 28-08-2019 00:00:00 19.66 C 41.8000 %
602 28-08-2019 01:00:00 19.46 C 43.4000 %
603 28-08-2019 02:00:00 19.02 C 44.8000 %
604 28-08-2019 03:00:00 18.6 C 45.6000 %
605 28-08-2019 04:00:00 17.96 C 46.0000 %
606 28-08-2019 05:00:00 17.78 C 47.0000 %
607 28-08-2019 06:00:00 17.86 C 47.0000 %
608 28-08-2019 07:00:00 17.84 C 47.0000 %
609 28-08-2019 08:00:00 19.28 C 42.8000 %
610 28-08-2019 09:00:00 20.86 C 34.8000 %
611 28-08-2019 10:00:00 23.26 C 22.4000 %
612 28-08-2019 11:00:00 24.24 C 20.6000 %
613 28-08-2019 12:00:00 24.98 C 21.0000 %
614 28-08-2019 13:00:00 27.06 C 20.0000 %
615 28-08-2019 14:00:00 29.7 C 20.0000 %
616 28-08-2019 15:00:00 31.14 C 20.0000 %
617 28-08-2019 16:00:00 32.3 C 20.0000 %
618 28-08-2019 17:00:00 32.4 C 20.0000 %
619 28-08-2019 18:00:00 30.7 C 20.0000 %
620 28-08-2019 19:00:00 26.9 C 20.0000 %
621 28-08-2019 20:00:00 24.94 C 20.0000 %
622 28-08-2019 21:00:00 23.6 C 20.0000 %
623 28-08-2019 22:00:00 21.96 C 21.8000 %
624 28-08-2019 23:00:00 21.12 C 25.0000 %
625 29-08-2019 00:00:00 20.54 C 27.6000 %
Sensor: Nr:Datum:Temp:Feuchte:
Aussen-T/F 626 29-08-2019 01:00:00 19.76 C 29.8000 %
627 29-08-2019 02:00:00 18.9 C 32.4000 %
628 29-08-2019 03:00:00 17.88 C 36.2000 %
629 29-08-2019 04:00:00 17.34 C 39.4000 %
630 29-08-2019 05:00:00 18.16 C 40.2000 %
631 29-08-2019 06:00:00 18.74 C 39.0000 %
632 29-08-2019 07:00:00 19.28 C 38.2000 %
633 29-08-2019 08:00:00 20.32 C 34.2000 %
634 29-08-2019 09:00:00 21.26 C 30.2000 %
635 29-08-2019 10:00:00 20.98 C 35.2000 %
636 29-08-2019 11:00:00 22.88 C 26.2000 %
637 29-08-2019 12:00:00 23.92 C 23.4000 %
638 29-08-2019 13:00:00 25.94 C 20.0000 %
639 29-08-2019 14:00:00 27.48 C 20.0000 %
640 29-08-2019 15:00:00 28.48 C 20.0000 %
641 29-08-2019 16:00:00 28.46 C 20.0000 %
642 29-08-2019 17:00:00 27.62 C 20.0000 %
643 29-08-2019 18:00:00 26.48 C 20.0000 %
644 29-08-2019 19:00:00 24.74 C 20.0000 %
645 29-08-2019 20:00:00 22.12 C 22.8000 %
646 29-08-2019 21:00:00 20.68 C 27.4000 %
647 29-08-2019 22:00:00 20.46 C 29.2000 %
648 29-08-2019 23:00:00 20.46 C 29.2000 %
649 30-08-2019 00:00:00 20.18 C 28.6000 %
650 30-08-2019 01:00:00 18.84 C 34.4000 %
Sensor: Nr:Datum:Temp:Feuchte:
Aussen-T/F 651 30-08-2019 02:00:00 17.74 C 38.8000 %
652 30-08-2019 03:00:00 17.16 C 41.0000 %
653 30-08-2019 04:00:00 16.32 C 43.0000 %
654 30-08-2019 05:00:00 16.02 C 45.4000 %
655 30-08-2019 06:00:00 15.8 C 44.2000 %
656 30-08-2019 07:00:00 15.48 C 45.8000 %
657 30-08-2019 08:00:00 16.74 C 44.6000 %
658 30-08-2019 09:00:00 19.02 C 31.4000 %
659 30-08-2019 10:00:00 20.02 C 27.4000 %
660 30-08-2019 11:00:00 21.62 C 23.4000 %
661 30-08-2019 12:00:00 22.64 C 20.8000 %
662 30-08-2019 13:00:00 23.96 C 20.0000 %
663 30-08-2019 14:00:00 25.76 C 20.0000 %
664 30-08-2019 15:00:00 27.66 C 20.0000 %
665 30-08-2019 16:00:00 28.84 C 20.0000 %
666 30-08-2019 17:00:00 29.94 C 20.0000 %
667 30-08-2019 18:00:00 29.46 C 20.0000 %
668 30-08-2019 19:00:00 25.96 C 20.0000 %
669 30-08-2019 20:00:00 21.84 C 20.0000 %
670 30-08-2019 21:00:00 19.64 C 20.4000 %
671 30-08-2019 22:00:00 18.06 C 24.8000 %
672 30-08-2019 23:00:00 16.98 C 28.2000 %
673 31-08-2019 00:00:00 16.28 C 31.8000 %
674 31-08-2019 01:00:00 15.54 C 35.4000 %
675 31-08-2019 02:00:00 15 C 38.0000 %
Sensor: Nr:Datum:Temp:Feuchte:
Aussen-T/F 676 31-08-2019 03:00:00 14.56 C 40.8000 %
677 31-08-2019 04:00:00 14.28 C 42.0000 %
678 31-08-2019 05:00:00 14.44 C 43.2000 %
679 31-08-2019 06:00:00 14.26 C 43.4000 %
680 31-08-2019 07:00:00 14.48 C 43.8000 %
681 31-08-2019 08:00:00 15.24 C 42.2000 %
682 31-08-2019 09:00:00 16.56 C 40.0000 %
683 31-08-2019 10:00:00 18.76 C 32.0000 %
684 31-08-2019 11:00:00 21.52 C 25.8000 %
685 31-08-2019 12:00:00 23.92 C 22.4000 %
686 31-08-2019 13:00:00 28.3 C 20.0000 %
687 31-08-2019 14:00:00 30.52 C 20.0000 %
688 31-08-2019 15:00:00 32.16 C 20.0000 %
689 31-08-2019 16:00:00 32.7 C 20.0000 %
690 31-08-2019 17:00:00 34.2 C 20.0000 %
691 31-08-2019 18:00:00 33.5 C 20.0000 %
692 31-08-2019 19:00:00 29.2 C 20.0000 %
693 31-08-2019 20:00:00 24.82 C 20.0000 %
694 31-08-2019 21:00:00 24.84 C 20.0000 %
695 31-08-2019 22:00:00 22.54 C 32.4000 %
696 31-08-2019 23:00:00 19.78 C 45.0000 %
697 01-09-2019 00:00:00 19.48 C 45.0000 %
698 01-09-2019 01:00:00 19.56 C 39.6000 %
699 01-09-2019 02:00:00 18.68 C 36.4000 %
700 01-09-2019 03:00:00 17.78 C 35.6000 %
Sensor: Nr:Datum:Temp:Feuchte:
Aussen-T/F 701 01-09-2019 04:00:00 17.28 C 32.4000 %
702 01-09-2019 05:00:00 17.98 C 27.6000 %
703 01-09-2019 06:00:00 16.82 C 31.2000 %
704 01-09-2019 07:00:00 16.32 C 36.0000 %
705 01-09-2019 08:00:00 18.12 C 28.6000 %
706 01-09-2019 09:00:00 18.82 C 26.2000 %
707 01-09-2019 10:00:00 19.82 C 22.8000 %
708 01-09-2019 11:00:00 20.6 C 21.2000 %
709 01-09-2019 12:00:00 20.56 C 22.2000 %
710 01-09-2019 13:00:00 19.84 C 25.6000 %
711 01-09-2019 14:00:00 20.96 C 21.0000 %
712 01-09-2019 15:00:00 21.1 C 20.0000 %
713 01-09-2019 16:00:00 20.8 C 20.0000 %
714 01-09-2019 17:00:00 20.4 C 20.0000 %
715 01-09-2019 18:00:00 21.48 C 20.0000 %
716 01-09-2019 19:00:00 20.22 C 20.0000 %
717 01-09-2019 20:00:00 17.58 C 21.2000 %
718 01-09-2019 21:00:00 16.7 C 22.8000 %
719 01-09-2019 22:00:00 16.18 C 22.8000 %
720 01-09-2019 23:00:00 15.38 C 25.8000 %
721 02-09-2019 00:00:00 14.08 C 26.8000 %
722 02-09-2019 01:00:00 13.18 C 28.6000 %
723 02-09-2019 02:00:00 13.68 C 30.0000 %
724 02-09-2019 03:00:00 12.9 C 34.8000 %
725 02-09-2019 04:00:00 11.9 C 36.6000 %
Sensor: Nr:Datum:Temp:Feuchte:
Aussen-T/F 726 02-09-2019 05:00:00 10.96 C 40.8000 %
727 02-09-2019 06:00:00 9.88 C 45.2000 %
728 02-09-2019 07:00:00 9.9 C 46.8000 %
729 02-09-2019 08:00:00 10.36 C 46.6000 %
730 02-09-2019 09:00:00 11.24 C 44.4000 %
731 02-09-2019 10:00:00 13.88 C 32.6000 %
732 02-09-2019 11:00:00 17.08 C 20.0000 %
733 02-09-2019 12:00:00 17.8 C 20.0000 %
734 02-09-2019 13:00:00 18.82 C 20.0000 %
735 02-09-2019 14:00:00 20.1 C 20.0000 %
736 02-09-2019 15:00:00 20.82 C 20.0000 %
737 02-09-2019 16:00:00 22.68 C 20.0000 %
738 02-09-2019 17:00:00 23.32 C 20.0000 %
739 02-09-2019 18:00:00 23.12 C 20.0000 %
740 02-09-2019 19:00:00 19.22 C 20.0000 %
741 02-09-2019 20:00:00 16.3 C 20.0000 %
742 02-09-2019 21:00:00 14.52 C 20.0000 %
743 02-09-2019 22:00:00 13.18 C 20.2000 %
744 02-09-2019 23:00:00 12.92 C 23.4000 %
745 03-09-2019 00:00:00 12.3 C 25.8000 %
746 03-09-2019 01:00:00 12.04 C 26.8000 %
747 03-09-2019 02:00:00 10.56 C 31.2000 %
748 03-09-2019 03:00:00 9.98 C 34.0000 %
749 03-09-2019 04:00:00 10.16 C 35.4000 %
750 03-09-2019 05:00:00 9.26 C 38.0000 %
Sensor: Nr:Datum:Temp:Feuchte:
Aussen-T/F 751 03-09-2019 06:00:00 8.68 C 40.6000 %
752 03-09-2019 07:00:00 8.78 C 42.6000 %
753 03-09-2019 08:00:00 9.48 C 41.8000 %
754 03-09-2019 09:00:00 10.86 C 38.6000 %
755 03-09-2019 10:00:00 14.2 C 26.6000 %
756 03-09-2019 11:00:00 18.08 C 20.0000 %
757 03-09-2019 12:00:00 19.94 C 20.0000 %
758 03-09-2019 13:00:00 21.3 C 20.0000 %
759 03-09-2019 14:00:00 22.94 C 20.0000 %
760 03-09-2019 15:00:00 24.54 C 20.0000 %
761 03-09-2019 16:00:00 23.98 C 20.0000 %
762 03-09-2019 17:00:00 24.1 C 20.0000 %
763 03-09-2019 18:00:00 23.28 C 20.0000 %
764 03-09-2019 19:00:00 20.88 C 20.0000 %
765 03-09-2019 20:00:00 18.1 C 20.6000 %
766 03-09-2019 21:00:00 15.66 C 26.6000 %
767 03-09-2019 22:00:00 14.88 C 29.6000 %
768 03-09-2019 23:00:00 13.52 C 35.8000 %
769 04-09-2019 00:00:00 12.66 C 40.0000 %
770 04-09-2019 01:00:00 12.08 C 42.8000 %
771 04-09-2019 02:00:00 11.6 C 45.2000 %
772 04-09-2019 03:00:00 11.14 C 46.2000 %
773 04-09-2019 04:00:00 10.66 C 48.0000 %
774 04-09-2019 05:00:00 10.28 C 48.2000 %
775 04-09-2019 06:00:00 10.14 C 49.2000 %
Sensor: Nr:Datum:Temp:Feuchte:
Aussen-T/F 776 04-09-2019 07:00:00 10.16 C 48.8000 %
777 04-09-2019 08:00:00 11.28 C 48.6000 %
778 04-09-2019 09:00:00 14.16 C 34.8000 %
779 04-09-2019 10:00:00 15.52 C 31.0000 %
780 04-09-2019 11:00:00 18.7 C 21.8000 %
781 04-09-2019 12:00:00 19.8 C 20.0000 %
782 04-09-2019 13:00:00 21.18 C 20.0000 %
783 04-09-2019 14:00:00 23 C 20.0000 %
784 04-09-2019 15:00:00 25.04 C 20.0000 %
785 04-09-2019 16:00:00 26.38 C 20.0000 %
786 04-09-2019 17:00:00 27.44 C 20.0000 %
787 04-09-2019 18:00:00 25.16 C 20.0000 %
788 04-09-2019 19:00:00 23.22 C 20.0000 %
789 04-09-2019 20:00:00 19.36 C 22.6000 %
790 04-09-2019 21:00:00 16.5 C 40.6000 %
791 04-09-2019 22:00:00 15.74 C 45.4000 %
792 04-09-2019 23:00:00 15.66 C 42.0000 %
793 05-09-2019 00:00:00 15.54 C 41.8000 %
794 05-09-2019 01:00:00 15.24 C 38.8000 %
795 05-09-2019 02:00:00 14.08 C 36.6000 %
796 05-09-2019 03:00:00 14.26 C 33.4000 %
797 05-09-2019 04:00:00 14.32 C 31.0000 %
798 05-09-2019 05:00:00 13.46 C 32.4000 %
799 05-09-2019 06:00:00 12.76 C 34.8000 %
800 05-09-2019 07:00:00 12.38 C 35.2000 %
Sensor: Nr:Datum:Temp:Feuchte:
Aussen-T/F 801 05-09-2019 08:00:00 12.82 C 32.6000 %
802 05-09-2019 09:00:00 14 C 28.6000 %
803 05-09-2019 10:00:00 16.02 C 23.2000 %
804 05-09-2019 11:00:00 16.84 C 20.4000 %
805 05-09-2019 12:00:00 17.8 C 20.0000 %
806 05-09-2019 13:00:00 18.44 C 20.0000 %
807 05-09-2019 14:00:00 18.42 C 20.0000 %
808 05-09-2019 15:00:00 19.06 C 20.0000 %
809 05-09-2019 16:00:00 19.2 C 20.0000 %
810 05-09-2019 17:00:00 17.3 C 20.0000 %
811 05-09-2019 18:00:00 16.88 C 20.0000 %
812 05-09-2019 19:00:00 16.42 C 20.0000 %
813 05-09-2019 20:00:00 15.8 C 20.0000 %
814 05-09-2019 21:00:00 14.8 C 20.0000 %
815 05-09-2019 22:00:00 14.56 C 20.2000 %
816 05-09-2019 23:00:00 13.76 C 22.0000 %
817 06-09-2019 00:00:00 11.42 C 33.2000 %
818 06-09-2019 01:00:00 10.92 C 35.6000 %
819 06-09-2019 02:00:00 10.22 C 39.4000 %
820 06-09-2019 03:00:00 9.58 C 42.4000 %
821 06-09-2019 04:00:00 8.76 C 44.8000 %
822 06-09-2019 05:00:00 7.86 C 47.0000 %
823 06-09-2019 06:00:00 7.4 C 49.4000 %
824 06-09-2019 07:00:00 7.46 C 50.0000 %
825 06-09-2019 08:00:00 8.26 C 49.2000 %
Sensor: Nr:Datum:Temp:Feuchte:
Aussen-T/F 826 06-09-2019 09:00:00 9.12 C 49.2000 %
827 06-09-2019 10:00:00 11.06 C 42.2000 %
828 06-09-2019 11:00:00 13.7 C 25.8000 %
829 06-09-2019 12:00:00 15.26 C 20.0000 %
830 06-09-2019 13:00:00 16.54 C 20.0000 %
831 06-09-2019 14:00:00 18.72 C 20.0000 %
832 06-09-2019 15:00:00 20.5 C 20.0000 %
833 06-09-2019 16:00:00 22.14 C 20.0000 %
834 06-09-2019 17:00:00 23.12 C 20.0000 %
835 06-09-2019 18:00:00 22.8 C 20.0000 %
836 06-09-2019 19:00:00 17.22 C 20.0000 %
837 06-09-2019 20:00:00 15.38 C 20.0000 %
838 06-09-2019 21:00:00 13.74 C 20.0000 %
839 06-09-2019 22:00:00 12.2 C 20.0000 %
840 06-09-2019 23:00:00 12.76 C 20.4000 %
841 07-09-2019 00:00:00 12.28 C 23.4000 %
842 07-09-2019 01:00:00 12.32 C 22.0000 %
843 07-09-2019 02:00:00 12.38 C 22.6000 %
844 07-09-2019 03:00:00 12.64 C 21.2000 %
845 07-09-2019 04:00:00 12.74 C 22.0000 %
846 07-09-2019 05:00:00 12.48 C 24.2000 %
847 07-09-2019 06:00:00 12.14 C 27.0000 %
848 07-09-2019 07:00:00 11.18 C 39.0000 %
849 07-09-2019 08:00:00 11.26 C 49.6000 %
850 07-09-2019 09:00:00 11.54 C 50.0000 %
Sensor: Nr:Datum:Temp:Feuchte:
Aussen-T/F 851 07-09-2019 10:00:00 11.94 C 49.8000 %
852 07-09-2019 11:00:00 12.68 C 48.4000 %
853 07-09-2019 12:00:00 13.26 C 46.4000 %
854 07-09-2019 13:00:00 13.9 C 45.2000 %
855 07-09-2019 14:00:00 14.2 C 43.4000 %
856 07-09-2019 15:00:00 14.82 C 38.8000 %
857 07-09-2019 16:00:00 15.26 C 37.0000 %
858 07-09-2019 17:00:00 14.92 C 39.2000 %
859 07-09-2019 18:00:00 13.86 C 43.8000 %
860 07-09-2019 19:00:00 12.74 C 47.4000 %
861 07-09-2019 20:00:00 11.94 C 50.8000 %
862 07-09-2019 21:00:00 11.46 C 52.0000 %
863 07-09-2019 22:00:00 11.4 C 52.0000 %
864 07-09-2019 23:00:00 11.4 C 52.8000 %
865 08-09-2019 00:00:00 11.4 C 54.4000 %
866 08-09-2019 01:00:00 11.36 C 55.2000 %
867 08-09-2019 02:00:00 10.72 C 59.4000 %
868 08-09-2019 03:00:00 11.04 C 63.8000 %
869 08-09-2019 04:00:00 11.48 C 63.2000 %
870 08-09-2019 05:00:00 11.72 C 54.2000 %
871 08-09-2019 06:00:00 11.9 C 50.0000 %
872 08-09-2019 07:00:00 12.1 C 47.6000 %
873 08-09-2019 08:00:00 12.2 C 46.4000 %
874 08-09-2019 09:00:00 11.92 C 48.4000 %
875 08-09-2019 10:00:00 12.1 C 50.4000 %
Sensor: Nr:Datum:Temp:Feuchte:
Aussen-T/F 876 08-09-2019 11:00:00 12.28 C 51.0000 %
877 08-09-2019 12:00:00 13.28 C 43.2000 %
878 08-09-2019 13:00:00 17 C 29.2500 %
879 08-09-2019 14:00:00 17.02 C 26.8000 %
880 08-09-2019 15:00:00 18.78333 C 21.6667 %
881 08-09-2019 16:00:00 15.16 C 36.4000 %
882 08-09-2019 17:00:00 12.8 C 50.3333 %
883 08-09-2019 18:00:00 12.36 C 50.0000 %
884 08-09-2019 19:00:00 12.62 C 53.0000 %
885 08-09-2019 20:00:00 12.15 C 49.6667 %
886 08-09-2019 21:00:00 11.62 C 51.6000 %
887 08-09-2019 22:00:00 11.46667 C 53.8333 %
888 08-09-2019 23:00:00 11.38 C 56.4000 %
889 09-09-2019 00:00:00 11.08333 C 61.6667 %
890 09-09-2019 01:00:00 10.94 C 63.6000 %
891 09-09-2019 02:00:00 10.95 C 62.8333 %
892 09-09-2019 03:00:00 11 C 61.0000 %
893 09-09-2019 04:00:00 10.94 C 58.6000 %
894 09-09-2019 05:00:00 10.9 C 56.6667 %
895 09-09-2019 06:00:00 10.9 C 55.0000 %
896 09-09-2019 07:00:00 10.91667 C 56.5000 %
897 09-09-2019 08:00:00 10.96 C 53.6000 %
898 09-09-2019 09:00:00 11.85 C 44.8333 %
899 09-09-2019 10:00:00 11.94 C 45.2000 %
900 09-09-2019 11:00:00 13.55 C 36.1667 %
Sensor: Nr:Datum:Temp:Feuchte:
Aussen-T/F 901 09-09-2019 12:00:00 14.3 C 31.6000 %
902 09-09-2019 13:00:00 15.71667 C 27.1667 %
903 09-09-2019 14:00:00 15.72 C 24.4000 %
904 09-09-2019 15:00:00 16.06 C 24.8000 %
905 09-09-2019 16:00:00 25.0375 C 29.5000 %
906 09-09-2019 17:00:00 30.3 C 33.0000 %
907 09-09-2019 18:00:00 18.9 C 22.6000 %
908 09-09-2019 19:00:00 12.91667 C 20.0000 %
909 09-09-2019 20:00:00 11.21667 C 20.0000 %
910 09-09-2019 21:00:00 10.03333 C 20.0000 %
911 09-09-2019 22:00:00 9.2 C 20.1667 %
912 09-09-2019 23:00:00 8.5 C 24.3333 %
913 10-09-2019 00:00:00 7.98333 C 25.5000 %
914 10-09-2019 01:00:00 7.73333 C 26.1667 %
915 10-09-2019 02:00:00 7.78333 C 26.8333 %
916 10-09-2019 03:00:00 8.1 C 27.5000 %
917 10-09-2019 04:00:00 8.2 C 28.0000 %
918 10-09-2019 05:00:00 8 C 28.0000 %
919 10-09-2019 06:00:00 7.8 C 27.6667 %
920 10-09-2019 07:00:00 7.8 C 27.6667 %
921 10-09-2019 08:00:00 7.98333 C 26.1667 %
922 10-09-2019 09:00:00 8.73333 C 24.1667 %
923 10-09-2019 10:00:00 10.13333 C 20.1667 %
924 10-09-2019 11:00:00 10.48333 C 20.0000 %
925 10-09-2019 12:00:00 12.45 C 20.0000 %
Sensor: Nr:Datum:Temp:Feuchte:
Aussen-T/F 926 10-09-2019 13:00:00 15.11667 C 20.0000 %
927 10-09-2019 14:00:00 20.85 C 20.0000 %
928 10-09-2019 15:00:00 26.2 C 20.0000 %
929 10-09-2019 16:00:00 24.08333 C 20.0000 %
930 10-09-2019 17:00:00 18.5 C 20.0000 %
931 10-09-2019 18:00:00 17.53333 C 20.0000 %
932 10-09-2019 19:00:00 14.95 C 20.0000 %
933 10-09-2019 20:00:00 12.78333 C 20.0000 %
934 10-09-2019 21:00:00 10.9 C 20.0000 %
935 10-09-2019 22:00:00 9.76667 C 20.0000 %
936 10-09-2019 23:00:00 9.05 C 20.0000 %
937 11-09-2019 00:00:00 8.7 C 20.0000 %
938 11-09-2019 01:00:00 7.85 C 20.0000 %
939 11-09-2019 02:00:00 7.35 C 20.0000 %
940 11-09-2019 03:00:00 6.98333 C 20.8333 %
941 11-09-2019 04:00:00 6.5 C 23.3333 %
942 11-09-2019 05:00:00 6.35 C 25.0000 %
943 11-09-2019 06:00:00 6.03333 C 25.0000 %
944 11-09-2019 07:00:00 6.1 C 25.1667 %
945 11-09-2019 08:00:00 8.46667 C 21.0000 %
946 11-09-2019 09:00:00 9.86667 C 20.0000 %
947 11-09-2019 10:00:00 11.08333 C 20.0000 %
948 11-09-2019 11:00:00 13.96667 C 20.0000 %
949 11-09-2019 12:00:00 18.01667 C 20.0000 %
950 11-09-2019 13:00:00 20.46667 C 20.0000 %
Sensor: Nr:Datum:Temp:Feuchte:
Aussen-T/F 951 11-09-2019 14:00:00 22.4 C 20.0000 %
952 11-09-2019 15:00:00 21.43333 C 20.0000 %
953 11-09-2019 16:00:00 19.91667 C 20.0000 %
954 11-09-2019 17:00:00 19.26667 C 20.0000 %
955 11-09-2019 18:00:00 18.2 C 20.0000 %
956 11-09-2019 19:00:00 17.31667 C 20.0000 %
957 11-09-2019 20:00:00 16.38333 C 20.0000 %
958 11-09-2019 21:00:00 16.35 C 20.0000 %
959 11-09-2019 22:00:00 16.2 C 20.0000 %
960 11-09-2019 23:00:00 15.33333 C 20.0000 %
961 12-09-2019 00:00:00 15.96667 C 20.0000 %
962 12-09-2019 01:00:00 16.4 C 20.0000 %
963 12-09-2019 02:00:00 17.78333 C 20.0000 %
964 12-09-2019 03:00:00 17.5 C 20.0000 %
965 12-09-2019 04:00:00 17.2 C 20.0000 %
966 12-09-2019 05:00:00 17.18333 C 20.0000 %
967 12-09-2019 06:00:00 16.68333 C 20.0000 %
968 12-09-2019 07:00:00 16.16667 C 20.0000 %
969 12-09-2019 08:00:00 17.08333 C 20.0000 %
970 12-09-2019 09:00:00 17.56667 C 20.0000 %
971 12-09-2019 10:00:00 18.45 C 20.0000 %
972 12-09-2019 11:00:00 20.03333 C 20.0000 %
973 12-09-2019 12:00:00 20.8 C 20.0000 %
974 12-09-2019 13:00:00 21.58333 C 20.0000 %
975 12-09-2019 14:00:00 21.28333 C 20.0000 %
Sensor: Nr:Datum:Temp:Feuchte:
Aussen-T/F 976 12-09-2019 15:00:00 24.55 C 20.0000 %
977 12-09-2019 16:00:00 25.35 C 20.0000 %
978 12-09-2019 17:00:00 26.23333 C 20.0000 %
979 12-09-2019 18:00:00 23.53333 C 20.0000 %
980 12-09-2019 19:00:00 20.8 C 20.0000 %
981 12-09-2019 20:00:00 18.53333 C 20.0000 %
982 12-09-2019 21:00:00 18.63333 C 20.0000 %
983 12-09-2019 22:00:00 18.25 C 20.0000 %
984 12-09-2019 23:00:00 16.23333 C 20.0000 %
985 13-09-2019 00:00:00 15.36667 C 20.0000 %
986 13-09-2019 01:00:00 15.4 C 20.0000 %
987 13-09-2019 02:00:00 15.03333 C 20.0000 %
988 13-09-2019 03:00:00 15.06667 C 20.0000 %
989 13-09-2019 04:00:00 15.78333 C 20.0000 %
990 13-09-2019 05:00:00 16.26667 C 20.0000 %
991 13-09-2019 06:00:00 16.28333 C 20.0000 %
992 13-09-2019 07:00:00 16.51667 C 20.0000 %
993 13-09-2019 08:00:00 16.95 C 20.0000 %
994 13-09-2019 09:00:00 18.03333 C 20.0000 %
995 13-09-2019 10:00:00 19.55 C 20.0000 %
996 13-09-2019 11:00:00 20.26667 C 20.0000 %
997 13-09-2019 12:00:00 22.25 C 20.0000 %
998 13-09-2019 13:00:00 21.55 C 20.0000 %
999 13-09-2019 14:00:00 22.01667 C 20.0000 %
1000 13-09-2019 15:00:00 21.61667 C 20.0000 %
Sensor: Nr:Datum:Temp:Feuchte:
Aussen-T/F 1001 13-09-2019 16:00:00 19.15 C 20.0000 %
1002 13-09-2019 17:00:00 19.58333 C 20.0000 %
1003 13-09-2019 18:00:00 19.93333 C 20.0000 %
1004 13-09-2019 19:00:00 18 C 20.0000 %
1005 13-09-2019 20:00:00 17.15 C 20.0000 %
1006 13-09-2019 21:00:00 16.48333 C 20.0000 %
1007 13-09-2019 22:00:00 15.66667 C 20.3333 %
1008 13-09-2019 23:00:00 14.91667 C 22.3333 %
1009 14-09-2019 00:00:00 14.83333 C 22.5000 %
1010 14-09-2019 01:00:00 13.85 C 23.6667 %
1011 14-09-2019 02:00:00 12.66667 C 24.6667 %
1012 14-09-2019 03:00:00 11.93333 C 25.6667 %
1013 14-09-2019 04:00:00 11.23333 C 26.3333 %
1014 14-09-2019 05:00:00 10.58333 C 26.6667 %
1015 14-09-2019 06:00:00 10.15 C 26.5000 %
1016 14-09-2019 07:00:00 9.78333 C 27.6667 %
1017 14-09-2019 08:00:00 10.03333 C 26.6667 %
1018 14-09-2019 09:00:00 10.88333 C 25.6667 %
1019 14-09-2019 10:00:00 12.46667 C 22.5000 %
1020 14-09-2019 11:00:00 14.13333 C 20.0000 %
1021 14-09-2019 12:00:00 16.11667 C 20.0000 %
1022 14-09-2019 13:00:00 18.16667 C 20.0000 %
1023 14-09-2019 14:00:00 23.15 C 20.0000 %
1024 14-09-2019 15:00:00 28.55 C 20.0000 %
1025 14-09-2019 16:00:00 29.58333 C 20.0000 %
Sensor: Nr:Datum:Temp:Feuchte:
Aussen-T/F 1026 14-09-2019 17:00:00 27.55 C 20.0000 %
1027 14-09-2019 18:00:00 22.16667 C 20.0000 %
1028 14-09-2019 19:00:00 18.38333 C 20.0000 %
1029 14-09-2019 20:00:00 16.31667 C 20.0000 %
1030 14-09-2019 21:00:00 14.98333 C 20.0000 %
1031 14-09-2019 22:00:00 12.98333 C 20.0000 %
1032 14-09-2019 23:00:00 11.9 C 20.0000 %
1033 15-09-2019 00:00:00 10.93333 C 20.0000 %
1034 15-09-2019 01:00:00 10.16667 C 20.0000 %
1035 15-09-2019 02:00:00 9.9 C 20.0000 %
1036 15-09-2019 03:00:00 9.61667 C 20.8333 %
1037 15-09-2019 04:00:00 9.3 C 21.0000 %
1038 15-09-2019 05:00:00 8.76667 C 24.6667 %
1039 15-09-2019 06:00:00 8.23333 C 25.3333 %
1040 15-09-2019 07:00:00 8.4 C 26.0000 %
1041 15-09-2019 08:00:00 9.01667 C 25.5000 %
1042 15-09-2019 09:00:00 9.91667 C 24.3333 %
1043 15-09-2019 10:00:00 11.53333 C 23.0000 %
1044 15-09-2019 11:00:00 14.38333 C 20.0000 %
1045 15-09-2019 12:00:00 17.21667 C 20.0000 %
1046 15-09-2019 13:00:00 20.66667 C 20.0000 %
1047 15-09-2019 14:00:00 25.71667 C 20.0000 %
1048 15-09-2019 15:00:00 30.01667 C 20.0000 %
1049 15-09-2019 16:00:00 29.35 C 20.0000 %
1050 15-09-2019 17:00:00 28.58333 C 20.0000 %
Sensor: Nr:Datum:Temp:Feuchte:
Aussen-T/F 1051 15-09-2019 18:00:00 24.73333 C 20.0000 %
1052 15-09-2019 19:00:00 20.05 C 20.0000 %
1053 15-09-2019 20:00:00 17.53333 C 20.0000 %
1054 15-09-2019 21:00:00 15.83333 C 20.0000 %
1055 15-09-2019 22:00:00 13.63333 C 20.0000 %
1056 15-09-2019 23:00:00 12.26667 C 20.0000 %
1057 16-09-2019 00:00:00 12.15 C 20.0000 %
1058 16-09-2019 01:00:00 11.83333 C 20.0000 %
1059 16-09-2019 02:00:00 11.06667 C 20.0000 %
1060 16-09-2019 03:00:00 10.81667 C 20.0000 %
1061 16-09-2019 04:00:00 11.48333 C 20.0000 %
1062 16-09-2019 05:00:00 11.16667 C 20.0000 %
1063 16-09-2019 06:00:00 11.03333 C 20.0000 %
1064 16-09-2019 07:00:00 11.33333 C 20.0000 %
1065 16-09-2019 08:00:00 12.5 C 20.0000 %
1066 16-09-2019 09:00:00 14.03333 C 20.0000 %
1067 16-09-2019 10:00:00 16.11667 C 20.0000 %
1068 16-09-2019 11:00:00 19 C 20.0000 %
1069 16-09-2019 12:00:00 20.83333 C 20.0000 %
1070 16-09-2019 13:00:00 22.28333 C 20.0000 %
1071 16-09-2019 14:00:00 22.86667 C 20.0000 %
1072 16-09-2019 15:00:00 22.45 C 20.0000 %
1073 16-09-2019 16:00:00 22.66667 C 20.0000 %
1074 16-09-2019 17:00:00 21.93333 C 20.0000 %
1075 16-09-2019 18:00:00 20.5 C 20.0000 %
Sensor: Nr:Datum:Temp:Feuchte:
Aussen-T/F 1076 16-09-2019 19:00:00 19.03333 C 20.0000 %
1077 16-09-2019 20:00:00 16.53333 C 20.0000 %
1078 16-09-2019 21:00:00 16.46667 C 20.0000 %
1079 16-09-2019 22:00:00 16.13333 C 20.0000 %
1080 16-09-2019 23:00:00 14.9 C 20.0000 %
1081 17-09-2019 00:00:00 14.78333 C 20.0000 %
1082 17-09-2019 01:00:00 14.58333 C 20.0000 %
1083 17-09-2019 02:00:00 14.45 C 20.0000 %
1084 17-09-2019 03:00:00 14.33333 C 20.0000 %
1085 17-09-2019 04:00:00 14.1 C 20.0000 %
1086 17-09-2019 05:00:00 14 C 20.0000 %
1087 17-09-2019 06:00:00 13.96667 C 20.0000 %
1088 17-09-2019 07:00:00 13.85 C 20.0000 %
1089 17-09-2019 08:00:00 13.75 C 20.0000 %
1090 17-09-2019 09:00:00 13.78333 C 20.0000 %
1091 17-09-2019 10:00:00 15.28333 C 20.0000 %
1092 17-09-2019 11:00:00 16.25 C 20.0000 %
1093 17-09-2019 12:00:00 16.56667 C 20.0000 %
1094 17-09-2019 13:00:00 17.1 C 20.0000 %
1095 17-09-2019 14:00:00 19.23333 C 20.0000 %
1096 17-09-2019 15:00:00 20.15 C 20.0000 %
1097 17-09-2019 16:00:00 21 C 20.0000 %
1098 17-09-2019 17:00:00 19.2 C 20.0000 %
1099 17-09-2019 18:00:00 18.2 C 20.0000 %
1100 17-09-2019 19:00:00 17.03333 C 20.0000 %
Sensor: Nr:Datum:Temp:Feuchte:
Aussen-T/F 1101 17-09-2019 20:00:00 16.56667 C 20.0000 %
1102 17-09-2019 21:00:00 15.73333 C 20.0000 %
1103 17-09-2019 22:00:00 14.31667 C 20.0000 %
1104 17-09-2019 23:00:00 12.81667 C 20.0000 %
1105 18-09-2019 00:00:00 10.93333 C 20.0000 %
1106 18-09-2019 01:00:00 10.06667 C 20.0000 %
1107 18-09-2019 02:00:00 8.53333 C 20.0000 %
1108 18-09-2019 03:00:00 7.41667 C 20.0000 %
1109 18-09-2019 04:00:00 6.7 C 20.0000 %
1110 18-09-2019 05:00:00 5.98333 C 20.0000 %
1111 18-09-2019 06:00:00 5.36667 C 22.0000 %
1112 18-09-2019 07:00:00 5.28333 C 24.0000 %
1113 18-09-2019 08:00:00 5.88333 C 25.0000 %
1114 18-09-2019 09:00:00 6.86667 C 25.0000 %
1115 18-09-2019 10:00:00 8.58333 C 23.0000 %
1116 18-09-2019 11:00:00 11.31667 C 20.0000 %
1117 18-09-2019 12:00:00 14.06667 C 20.0000 %
1118 18-09-2019 13:00:00 15.38333 C 20.0000 %
1119 18-09-2019 14:00:00 18.96667 C 20.0000 %
1120 18-09-2019 15:00:00 20.95 C 20.0000 %
1121 18-09-2019 16:00:00 20.23333 C 20.0000 %
1122 18-09-2019 17:00:00 20.75 C 20.0000 %
1123 18-09-2019 18:00:00 17.11667 C 20.0000 %
1124 18-09-2019 19:00:00 14.2 C 20.0000 %
1125 18-09-2019 20:00:00 11.61667 C 20.0000 %
Sensor: Nr:Datum:Temp:Feuchte:
Aussen-T/F 1126 18-09-2019 21:00:00 10.66667 C 20.0000 %
1127 18-09-2019 22:00:00 9.6 C 20.0000 %
1128 18-09-2019 23:00:00 8.88333 C 20.0000 %
1129 19-09-2019 00:00:00 8.43333 C 20.0000 %
1130 19-09-2019 01:00:00 7.28333 C 20.0000 %
1131 19-09-2019 02:00:00 6.33333 C 20.0000 %
1132 19-09-2019 03:00:00 5.75 C 20.8333 %
1133 19-09-2019 04:00:00 5.25 C 23.3333 %
1134 19-09-2019 05:00:00 4.76667 C 25.8333 %
1135 19-09-2019 06:00:00 4.46667 C 26.8333 %
1136 19-09-2019 07:00:00 4.46667 C 27.8333 %
1137 19-09-2019 08:00:00 4.95 C 27.1667 %
1138 19-09-2019 09:00:00 6.06667 C 28.0000 %
1139 19-09-2019 10:00:00 7.83333 C 23.8333 %
1140 19-09-2019 11:00:00 10.45 C 20.0000 %
1141 19-09-2019 12:00:00 13.9 C 20.0000 %
1142 19-09-2019 13:00:00 14.6 C 20.0000 %
1143 19-09-2019 14:00:00 18.11667 C 20.0000 %
1144 19-09-2019 15:00:00 21.33333 C 20.0000 %
1145 19-09-2019 16:00:00 21.76667 C 20.0000 %
1146 19-09-2019 17:00:00 19.43333 C 20.0000 %
1147 19-09-2019 18:00:00 17.01667 C 20.0000 %
1148 19-09-2019 19:00:00 13.7 C 20.0000 %
1149 19-09-2019 20:00:00 10.96667 C 20.0000 %
1150 19-09-2019 21:00:00 9.53333 C 20.0000 %
Sensor: Nr:Datum:Temp:Feuchte:
Aussen-T/F 1151 19-09-2019 22:00:00 8.7 C 20.0000 %
1152 19-09-2019 23:00:00 7.68333 C 20.0000 %
1153 20-09-2019 00:00:00 6.85 C 20.0000 %
1154 20-09-2019 01:00:00 6.21667 C 20.0000 %
1155 20-09-2019 02:00:00 5.46667 C 20.0000 %
1156 20-09-2019 03:00:00 4.98333 C 20.0000 %
1157 20-09-2019 04:00:00 4.35 C 20.0000 %
1158 20-09-2019 05:00:00 3.98333 C 20.8333 %
1159 20-09-2019 06:00:00 3.7 C 24.0000 %
1160 20-09-2019 07:00:00 3.41667 C 25.3333 %
1161 20-09-2019 08:00:00 4.16667 C 25.5000 %
1162 20-09-2019 09:00:00 5.41667 C 24.6667 %
1163 20-09-2019 10:00:00 7.86667 C 20.0000 %
1164 20-09-2019 11:00:00 10.55 C 20.0000 %
1165 20-09-2019 12:00:00 13.71667 C 20.0000 %
1166 20-09-2019 13:00:00 15.5 C 20.0000 %
1167 20-09-2019 14:00:00 20.5 C 20.0000 %
1168 20-09-2019 15:00:00 22.55 C 20.0000 %
1169 20-09-2019 16:00:00 24.55 C 20.0000 %
1170 20-09-2019 17:00:00 22.78333 C 20.0000 %
1171 20-09-2019 18:00:00 18.9 C 20.0000 %
1172 20-09-2019 19:00:00 14.33333 C 20.0000 %
1173 20-09-2019 20:00:00 12.65 C 20.0000 %
1174 20-09-2019 21:00:00 10.68333 C 20.0000 %
1175 20-09-2019 22:00:00 8.66667 C 20.0000 %
Sensor: Nr:Datum:Temp:Feuchte:
Aussen-T/F 1176 20-09-2019 23:00:00 7.51667 C 20.0000 %
1177 21-09-2019 00:00:00 6.73333 C 20.0000 %
1178 21-09-2019 01:00:00 6.06667 C 20.0000 %
1179 21-09-2019 02:00:00 5.41667 C 20.0000 %
1180 21-09-2019 03:00:00 4.98333 C 20.0000 %
1181 21-09-2019 04:00:00 4.73333 C 20.0000 %
1182 21-09-2019 05:00:00 4.45 C 20.1667 %
1183 21-09-2019 06:00:00 3.95 C 22.3333 %
1184 21-09-2019 07:00:00 3.88333 C 25.0000 %
1185 21-09-2019 08:00:00 4.13333 C 25.0000 %
1186 21-09-2019 09:00:00 5.66667 C 23.3333 %
1187 21-09-2019 10:00:00 8.86667 C 20.0000 %
1188 21-09-2019 11:00:00 12.1 C 20.0000 %
1189 21-09-2019 12:00:00 14.98333 C 20.0000 %
1190 21-09-2019 13:00:00 18.3 C 20.0000 %
1191 21-09-2019 14:00:00 23.76667 C 20.0000 %
1192 21-09-2019 15:00:00 27.33333 C 20.0000 %
1193 21-09-2019 16:00:00 30.03333 C 20.0000 %
1194 21-09-2019 17:00:00 27.15 C 20.0000 %
1195 21-09-2019 18:00:00 21.03333 C 20.0000 %
1196 21-09-2019 19:00:00 16.65 C 20.0000 %
1197 21-09-2019 20:00:00 14.88333 C 20.0000 %
1198 21-09-2019 21:00:00 12.65 C 20.0000 %
1199 21-09-2019 22:00:00 11.11667 C 20.0000 %
1200 21-09-2019 23:00:00 9.98333 C 20.0000 %
Sensor: Nr:Datum:Temp:Feuchte:
Aussen-T/F 1201 22-09-2019 00:00:00 9.06667 C 20.0000 %
1202 22-09-2019 01:00:00 8.33333 C 20.0000 %
1203 22-09-2019 02:00:00 7.51667 C 20.0000 %
1204 22-09-2019 03:00:00 7 C 20.0000 %
1205 22-09-2019 04:00:00 6.46667 C 20.0000 %
1206 22-09-2019 05:00:00 6.31667 C 22.0000 %
1207 22-09-2019 06:00:00 6.35 C 24.0000 %
1208 22-09-2019 07:00:00 6.48333 C 25.0000 %
1209 22-09-2019 08:00:00 7.3 C 24.6667 %
1210 22-09-2019 09:00:00 8.78333 C 22.3333 %
1211 22-09-2019 10:00:00 12.16667 C 20.0000 %
1212 22-09-2019 11:00:00 15.93333 C 20.0000 %
1213 22-09-2019 12:00:00 18.3 C 20.0000 %
1214 22-09-2019 13:00:00 22.51667 C 20.0000 %
1215 22-09-2019 14:00:00 26.23333 C 20.0000 %
1216 22-09-2019 15:00:00 25.73333 C 20.0000 %
1217 22-09-2019 16:00:00 24.73333 C 20.0000 %
1218 22-09-2019 17:00:00 22.66667 C 20.0000 %
1219 22-09-2019 18:00:00 21.16667 C 20.0000 %
1220 22-09-2019 19:00:00 19.36667 C 20.0000 %
1221 22-09-2019 20:00:00 19 C 20.0000 %
1222 22-09-2019 21:00:00 18.05 C 20.0000 %
1223 22-09-2019 22:00:00 17.83333 C 20.0000 %
1224 22-09-2019 23:00:00 17.53333 C 20.0000 %
1225 23-09-2019 00:00:00 17.9 C 20.0000 %
Sensor: Nr:Datum:Temp:Feuchte:
Aussen-T/F 1226 23-09-2019 01:00:00 18.4 C 20.0000 %
1227 23-09-2019 02:00:00 18.03333 C 20.0000 %
1228 23-09-2019 03:00:00 16.81667 C 20.0000 %
1229 23-09-2019 04:00:00 15.21667 C 21.5000 %
1230 23-09-2019 05:00:00 14.4 C 24.1667 %
1231 23-09-2019 06:00:00 13.9 C 26.8333 %
1232 23-09-2019 07:00:00 13.78333 C 29.8333 %
1233 23-09-2019 08:00:00 13.9 C 30.0000 %
1234 23-09-2019 09:00:00 14.76667 C 27.8333 %
1235 23-09-2019 10:00:00 16.33333 C 22.1667 %
1236 23-09-2019 11:00:00 16.53333 C 21.5000 %
1237 23-09-2019 12:00:00 17.63333 C 20.1667 %
1238 23-09-2019 13:00:00 19 C 20.0000 %
1239 23-09-2019 14:00:00 21.11667 C 20.0000 %
1240 23-09-2019 15:00:00 20.9 C 20.0000 %
1241 23-09-2019 16:00:00 21.85 C 20.0000 %
1242 23-09-2019 17:00:00 21.03333 C 20.0000 %
1243 23-09-2019 18:00:00 17.65 C 20.0000 %
1244 23-09-2019 19:00:00 15.68333 C 20.0000 %
1245 23-09-2019 20:00:00 13.98333 C 20.0000 %
1246 23-09-2019 21:00:00 13.66667 C 22.0000 %
1247 23-09-2019 22:00:00 13.9 C 22.6667 %
1248 23-09-2019 23:00:00 14.1 C 23.0000 %
1249 24-09-2019 00:00:00 14.13333 C 23.0000 %
1250 24-09-2019 01:00:00 13.16667 C 24.6667 %
Sensor: Nr:Datum:Temp:Feuchte:
Aussen-T/F 1251 24-09-2019 02:00:00 11.81667 C 28.5000 %
1252 24-09-2019 03:00:00 11.28333 C 29.5000 %
1253 24-09-2019 04:00:00 10.78333 C 30.0000 %
1254 24-09-2019 05:00:00 9.9 C 30.5000 %
1255 24-09-2019 06:00:00 9.43333 C 31.6667 %
1256 24-09-2019 07:00:00 9.41667 C 32.3333 %
1257 24-09-2019 08:00:00 10.71667 C 32.1667 %
1258 24-09-2019 09:00:00 11.55 C 29.1667 %
1259 24-09-2019 10:00:00 13.43333 C 25.0000 %
1260 24-09-2019 11:00:00 16.36667 C 20.5000 %
1261 24-09-2019 12:00:00 18.86667 C 20.0000 %
1262 24-09-2019 13:00:00 19.48333 C 20.0000 %
1263 24-09-2019 14:00:00 19.58333 C 20.0000 %
1264 24-09-2019 15:00:00 18.51667 C 20.0000 %
1265 24-09-2019 16:00:00 16.33333 C 21.5000 %
1266 24-09-2019 17:00:00 16.28333 C 23.5000 %
1267 24-09-2019 18:00:00 15.33333 C 27.0000 %
1268 24-09-2019 19:00:00 14.35 C 29.0000 %
1269 24-09-2019 20:00:00 13.58333 C 30.0000 %
1270 24-09-2019 21:00:00 13.36667 C 30.0000 %
1271 24-09-2019 22:00:00 13.4 C 30.1667 %
1272 24-09-2019 23:00:00 13.53333 C 31.0000 %
1273 25-09-2019 00:00:00 13.68333 C 31.0000 %
1274 25-09-2019 01:00:00 13.9 C 30.3333 %
1275 25-09-2019 02:00:00 14.51667 C 26.3333 %
Sensor: Nr:Datum:Temp:Feuchte:
Aussen-T/F 1276 25-09-2019 03:00:00 14.41667 C 28.0000 %
1277 25-09-2019 04:00:00 14.15 C 30.0000 %
1278 25-09-2019 05:00:00 13.6 C 28.5000 %
1279 25-09-2019 06:00:00 13.35 C 28.8333 %
1280 25-09-2019 07:00:00 13.51667 C 27.6667 %
1281 25-09-2019 08:00:00 13.61667 C 29.1667 %
1282 25-09-2019 09:00:00 14.35 C 26.6667 %
1283 25-09-2019 10:00:00 15.5 C 22.3333 %
1284 25-09-2019 11:00:00 16.73333 C 20.0000 %
1285 25-09-2019 12:00:00 17.53333 C 20.0000 %
1286 25-09-2019 13:00:00 18.13333 C 20.0000 %
1287 25-09-2019 14:00:00 17.26667 C 20.0000 %
1288 25-09-2019 15:00:00 17 C 20.5000 %
1289 25-09-2019 16:00:00 19.5 C 20.0000 %
1290 25-09-2019 17:00:00 18.01667 C 20.0000 %
1291 25-09-2019 18:00:00 16.25 C 20.0000 %
1292 25-09-2019 19:00:00 15.31667 C 21.1667 %
1293 25-09-2019 20:00:00 14.5 C 25.8333 %
1294 25-09-2019 21:00:00 14.4 C 26.0000 %
1295 25-09-2019 22:00:00 14.2 C 28.6667 %
1296 25-09-2019 23:00:00 14.18333 C 30.0000 %
1297 26-09-2019 00:00:00 14.11667 C 29.8333 %
1298 26-09-2019 01:00:00 13.75 C 30.3333 %
1299 26-09-2019 02:00:00 13.68333 C 31.0000 %
1300 26-09-2019 03:00:00 12.93333 C 31.3333 %
Sensor: Nr:Datum:Temp:Feuchte:
Aussen-T/F 1301 26-09-2019 04:00:00 12.73333 C 32.5000 %
1302 26-09-2019 05:00:00 13.5 C 31.5000 %
1303 26-09-2019 06:00:00 13.96667 C 29.5000 %
1304 26-09-2019 07:00:00 14.26667 C 28.8333 %
1305 26-09-2019 08:00:00 14.6 C 27.8333 %
1306 26-09-2019 09:00:00 14.93333 C 27.0000 %
1307 26-09-2019 10:00:00 15.98333 C 26.1667 %
1308 26-09-2019 11:00:00 16.63333 C 25.5000 %
1309 26-09-2019 12:00:00 17.7 C 23.5000 %
1310 26-09-2019 13:00:00 17.26667 C 25.0000 %
1311 26-09-2019 14:00:00 17.71667 C 24.3333 %
1312 26-09-2019 15:00:00 18.56667 C 22.8333 %
1313 26-09-2019 16:00:00 19.03333 C 20.8333 %
1314 26-09-2019 17:00:00 19.08333 C 20.3333 %
1315 26-09-2019 18:00:00 18.48333 C 22.3333 %
1316 26-09-2019 19:00:00 17.41667 C 25.3333 %
1317 26-09-2019 20:00:00 17.3 C 23.3333 %
1318 26-09-2019 21:00:00 17.33333 C 22.6667 %
1319 26-09-2019 22:00:00 17.78333 C 21.3333 %
1320 26-09-2019 23:00:00 17.83333 C 20.8333 %
1321 27-09-2019 00:00:00 17.96667 C 20.0000 %
1322 27-09-2019 01:00:00 18.15 C 20.0000 %
1323 27-09-2019 02:00:00 17.51667 C 20.5000 %
1324 27-09-2019 03:00:00 16.01667 C 25.1667 %
1325 27-09-2019 04:00:00 15.86667 C 26.0000 %
Sensor: Nr:Datum:Temp:Feuchte:
Aussen-T/F 1326 27-09-2019 05:00:00 15.53333 C 27.3333 %
1327 27-09-2019 06:00:00 15 C 30.8333 %
1328 27-09-2019 07:00:00 13.83333 C 29.3333 %
1329 27-09-2019 08:00:00 13.56667 C 29.5000 %
1330 27-09-2019 09:00:00 13.83333 C 27.0000 %
1331 27-09-2019 10:00:00 14.95 C 25.3333 %
1332 27-09-2019 11:00:00 15.6 C 23.8333 %
1333 27-09-2019 12:00:00 16.51667 C 21.3333 %
1334 27-09-2019 13:00:00 17.73333 C 20.0000 %
1335 27-09-2019 14:00:00 19.26667 C 20.0000 %
1336 27-09-2019 15:00:00 18.45 C 20.0000 %
1337 27-09-2019 16:00:00 21.21667 C 20.0000 %
1338 27-09-2019 17:00:00 20.26667 C 20.0000 %
1339 27-09-2019 18:00:00 17.66667 C 20.0000 %
1340 27-09-2019 19:00:00 15.58333 C 20.0000 %
1341 27-09-2019 20:00:00 14.9 C 22.1667 %
1342 27-09-2019 21:00:00 13.86667 C 25.3333 %
1343 27-09-2019 22:00:00 13.36667 C 27.5000 %
1344 27-09-2019 23:00:00 12.93333 C 29.3333 %
1345 28-09-2019 00:00:00 12.23333 C 30.5000 %
1346 28-09-2019 01:00:00 12.75 C 29.3333 %
1347 28-09-2019 02:00:00 14.65 C 23.5000 %
1348 28-09-2019 03:00:00 14.51667 C 24.1667 %
1349 28-09-2019 04:00:00 13.86667 C 26.0000 %
1350 28-09-2019 05:00:00 14.1 C 25.0000 %
Sensor: Nr:Datum:Temp:Feuchte:
Aussen-T/F 1351 28-09-2019 06:00:00 14.08333 C 25.3333 %
1352 28-09-2019 07:00:00 13.46667 C 28.1667 %
1353 28-09-2019 08:00:00 13.63333 C 26.3333 %
1354 28-09-2019 09:00:00 14.43333 C 23.5000 %
1355 28-09-2019 10:00:00 15.73333 C 20.1667 %
1356 28-09-2019 11:00:00 16.63333 C 20.0000 %
1357 28-09-2019 12:00:00 17.36667 C 20.0000 %
1358 28-09-2019 13:00:00 17.65 C 20.0000 %
1359 28-09-2019 14:00:00 18.11667 C 20.0000 %
1360 28-09-2019 15:00:00 17.45 C 20.0000 %
1361 28-09-2019 16:00:00 19.06667 C 20.0000 %
1362 28-09-2019 17:00:00 18.35 C 20.0000 %
1363 28-09-2019 18:00:00 16.75 C 20.0000 %
1364 28-09-2019 19:00:00 15.7 C 20.0000 %
1365 28-09-2019 20:00:00 15.23333 C 20.0000 %
1366 28-09-2019 21:00:00 15.06667 C 20.0000 %
1367 28-09-2019 22:00:00 14.83333 C 20.0000 %
1368 28-09-2019 23:00:00 13.96667 C 20.0000 %
1369 29-09-2019 00:00:00 14.06667 C 20.0000 %
1370 29-09-2019 01:00:00 13.66667 C 20.5000 %
1371 29-09-2019 02:00:00 13.33333 C 23.0000 %
1372 29-09-2019 03:00:00 13.16667 C 24.6667 %
1373 29-09-2019 04:00:00 13.4 C 24.8333 %
1374 29-09-2019 05:00:00 13.65 C 23.0000 %
1375 29-09-2019 06:00:00 13.61667 C 21.3333 %
Sensor: Nr:Datum:Temp:Feuchte:
Aussen-T/F 1376 29-09-2019 07:00:00 13.8 C 21.0000 %
1377 29-09-2019 08:00:00 15.11667 C 20.0000 %
1378 29-09-2019 09:00:00 16.81667 C 20.0000 %
1379 29-09-2019 10:00:00 17.71667 C 20.0000 %
1380 29-09-2019 11:00:00 18.11667 C 20.0000 %
1381 29-09-2019 12:00:00 18.35 C 20.0000 %
1382 29-09-2019 13:00:00 18.33333 C 20.0000 %
1383 29-09-2019 14:00:00 18.91667 C 20.0000 %
1384 29-09-2019 15:00:00 18.51667 C 20.0000 %
1385 29-09-2019 16:00:00 16.8 C 20.0000 %
1386 29-09-2019 17:00:00 17.23333 C 20.0000 %
1387 29-09-2019 18:00:00 17.36667 C 20.0000 %
1388 29-09-2019 19:00:00 17.76667 C 20.0000 %
1389 29-09-2019 20:00:00 16.33333 C 24.5000 %
1390 29-09-2019 21:00:00 16.38333 C 26.3333 %
1391 29-09-2019 22:00:00 16.58333 C 25.6667 %
1392 29-09-2019 23:00:00 16.38333 C 25.0000 %
1393 30-09-2019 00:00:00 15.88333 C 20.6667 %
1394 30-09-2019 01:00:00 15.13333 C 21.5000 %
1395 30-09-2019 02:00:00 15.15 C 21.0000 %
1396 30-09-2019 03:00:00 15 C 22.0000 %
1397 30-09-2019 04:00:00 14.28333 C 25.0000 %
1398 30-09-2019 05:00:00 13.18333 C 26.6667 %
1399 30-09-2019 06:00:00 13.05 C 25.8333 %
1400 30-09-2019 07:00:00 13.21667 C 23.5000 %
Sensor: Nr:Datum:Temp:Feuchte:
Aussen-T/F 1401 30-09-2019 08:00:00 13.53333 C 20.6667 %
1402 30-09-2019 09:00:00 14.15 C 20.0000 %
1403 30-09-2019 10:00:00 14.61667 C 20.0000 %
1404 30-09-2019 11:00:00 15.41667 C 20.0000 %
1405 30-09-2019 12:00:00 16.01667 C 20.0000 %
1406 30-09-2019 13:00:00 16.93333 C 20.0000 %
1407 30-09-2019 14:00:00 17.75 C 20.0000 %
1408 30-09-2019 15:00:00 18.65 C 20.0000 %
1409 30-09-2019 16:00:00 21.2 C 20.0000 %
1410 30-09-2019 17:00:00 18.93333 C 20.0000 %
1411 30-09-2019 18:00:00 16.71667 C 20.0000 %
1412 30-09-2019 19:00:00 14.6 C 20.0000 %
1413 30-09-2019 20:00:00 14.61667 C 20.0000 %
1414 30-09-2019 21:00:00 14.7 C 20.0000 %
1415 30-09-2019 22:00:00 14.85 C 20.0000 %
1416 30-09-2019 23:00:00 13.98333 C 20.3333 %
1417 01-10-2019 00:00:00 14.06667 C 20.1667 %
1418 01-10-2019 01:00:00 13.7 C 20.6667 %
1419 01-10-2019 02:00:00 13.13333 C 22.6667 %
1420 01-10-2019 03:00:00 11.98333 C 26.1667 %
1421 01-10-2019 04:00:00 13.53333 C 22.6667 %
1422 01-10-2019 05:00:00 14.05 C 21.5000 %
1423 01-10-2019 06:00:00 14.93333 C 20.3333 %
1424 01-10-2019 07:00:00 15.28333 C 21.0000 %
1425 01-10-2019 08:00:00 15.38333 C 21.1667 %
Sensor: Nr:Datum:Temp:Feuchte:
Aussen-T/F 1426 01-10-2019 09:00:00 16.21667 C 20.3333 %
1427 01-10-2019 10:00:00 17.3 C 20.0000 %
1428 01-10-2019 11:00:00 17.7 C 20.0000 %
1429 01-10-2019 12:00:00 17.35 C 21.5000 %
1430 01-10-2019 13:00:00 18.93333 C 20.0000 %
1431 01-10-2019 14:00:00 18.95 C 20.0000 %
1432 01-10-2019 15:00:00 19.76667 C 20.0000 %
1433 01-10-2019 16:00:00 17.45 C 24.6667 %
1434 01-10-2019 17:00:00 16.98333 C 27.1667 %
1435 01-10-2019 18:00:00 16.21667 C 27.5000 %
1436 01-10-2019 19:00:00 15.63333 C 31.0000 %
1437 01-10-2019 20:00:00 15.5 C 31.1667 %
1438 01-10-2019 21:00:00 15.88333 C 27.0000 %
1439 01-10-2019 22:00:00 15.13333 C 29.5000 %
1440 01-10-2019 23:00:00 15.16667 C 27.6667 %
1441 02-10-2019 00:00:00 14.86667 C 28.8333 %
1442 02-10-2019 01:00:00 15.16667 C 26.1667 %
1443 02-10-2019 02:00:00 14.5 C 29.3333 %
1444 02-10-2019 03:00:00 14.98333 C 26.0000 %
1445 02-10-2019 04:00:00 14.95 C 25.5000 %
1446 02-10-2019 05:00:00 14.15 C 27.1667 %
1447 02-10-2019 06:00:00 12.81667 C 28.0000 %
1448 02-10-2019 07:00:00 11.01667 C 29.5000 %
1449 02-10-2019 08:00:00 10.1 C 29.8333 %
1450 02-10-2019 09:00:00 10.33333 C 26.6667 %
Sensor: Nr:Datum:Temp:Feuchte:
Aussen-T/F 1451 02-10-2019 10:00:00 11.11667 C 24.5000 %
1452 02-10-2019 11:00:00 11.56667 C 20.3333 %
1453 02-10-2019 12:00:00 12.25 C 20.0000 %
1454 02-10-2019 13:00:00 13.31667 C 20.0000 %
1455 02-10-2019 14:00:00 14.21667 C 20.0000 %
1456 02-10-2019 15:00:00 14.26667 C 20.0000 %
1457 02-10-2019 16:00:00 16.76667 C 20.0000 %
1458 02-10-2019 17:00:00 16.08333 C 20.0000 %
1459 02-10-2019 18:00:00 12.51667 C 20.0000 %
1460 02-10-2019 19:00:00 10.76667 C 20.0000 %
1461 02-10-2019 20:00:00 9.85 C 20.0000 %
1462 02-10-2019 21:00:00 9.38333 C 20.1667 %
1463 02-10-2019 22:00:00 8.26667 C 22.3333 %
1464 02-10-2019 23:00:00 8.56667 C 22.3333 %
1465 03-10-2019 00:00:00 9.01667 C 21.3333 %
1466 03-10-2019 01:00:00 8.9 C 22.3333 %
1467 03-10-2019 02:00:00 8.83333 C 22.8333 %
1468 03-10-2019 03:00:00 7.9 C 26.0000 %
1469 03-10-2019 04:00:00 7.36667 C 27.0000 %
1470 03-10-2019 05:00:00 7.73333 C 26.3333 %
1471 03-10-2019 06:00:00 6.71667 C 30.0000 %
1472 03-10-2019 07:00:00 6.91667 C 29.1667 %
1473 03-10-2019 08:00:00 7.85 C 26.5000 %
1474 03-10-2019 09:00:00 9.3 C 25.0000 %
1475 03-10-2019 10:00:00 10.41667 C 22.0000 %
Sensor: Nr:Datum:Temp:Feuchte:
Aussen-T/F 1476 03-10-2019 11:00:00 12.36667 C 20.0000 %
1477 03-10-2019 12:00:00 12.15 C 20.6667 %
1478 03-10-2019 13:00:00 11.18333 C 27.5000 %
1479 03-10-2019 14:00:00 10.93333 C 29.8333 %
1480 03-10-2019 15:00:00 11.56667 C 28.1667 %
1481 03-10-2019 16:00:00 11.96667 C 25.6667 %
1482 03-10-2019 17:00:00 11.21667 C 29.1667 %
1483 03-10-2019 18:00:00 10.13333 C 30.6667 %
1484 03-10-2019 19:00:00 9.31667 C 32.3333 %
1485 03-10-2019 20:00:00 8.78333 C 35.0000 %
1486 03-10-2019 21:00:00 8.36667 C 35.3333 %
1487 03-10-2019 22:00:00 7.88333 C 35.8333 %
1488 03-10-2019 23:00:00 7.73333 C 36.0000 %
1489 04-10-2019 00:00:00 7.58333 C 35.5000 %
1490 04-10-2019 01:00:00 7.75 C 36.0000 %
1491 04-10-2019 02:00:00 7.63333 C 35.6667 %
1492 04-10-2019 03:00:00 7.51667 C 35.6667 %
1493 04-10-2019 04:00:00 7.16667 C 35.6667 %
1494 04-10-2019 05:00:00 7.46667 C 35.8333 %
1495 04-10-2019 06:00:00 7.45 C 35.1667 %
1496 04-10-2019 07:00:00 7.76667 C 33.6667 %
1497 04-10-2019 08:00:00 8.18333 C 33.3333 %
1498 04-10-2019 09:00:00 8.36667 C 34.8333 %
1499 04-10-2019 10:00:00 8.93333 C 33.0000 %
1500 04-10-2019 11:00:00 9.75 C 30.8333 %
Sensor: Nr:Datum:Temp:Feuchte:
Aussen-T/F 1501 04-10-2019 12:00:00 10.76667 C 29.8333 %
1502 04-10-2019 13:00:00 11.71667 C 28.3333 %
1503 04-10-2019 14:00:00 13.83333 C 23.6667 %
1504 04-10-2019 15:00:00 13.93333 C 22.8333 %
1505 04-10-2019 16:00:00 13.41667 C 26.3333 %
1506 04-10-2019 17:00:00 12.4 C 31.3333 %
1507 04-10-2019 18:00:00 11.38333 C 32.6667 %
1508 04-10-2019 19:00:00 11.26667 C 33.5000 %
1509 04-10-2019 20:00:00 11.33333 C 31.3333 %
1510 04-10-2019 21:00:00 11.7 C 30.3333 %
1511 04-10-2019 22:00:00 11.61667 C 30.0000 %
1512 04-10-2019 23:00:00 11.95 C 28.8333 %
1513 05-10-2019 00:00:00 12.15 C 27.0000 %
1514 05-10-2019 01:00:00 11.88333 C 27.8333 %
1515 05-10-2019 02:00:00 12.23333 C 26.1667 %
1516 05-10-2019 03:00:00 11.46667 C 29.5000 %
1517 05-10-2019 04:00:00 10.61667 C 31.0000 %
1518 05-10-2019 05:00:00 9.85 C 31.3333 %
1519 05-10-2019 06:00:00 9.35 C 32.0000 %
1520 05-10-2019 07:00:00 9.33333 C 30.3333 %
1521 05-10-2019 08:00:00 9.38333 C 29.0000 %
1522 05-10-2019 09:00:00 10.05 C 26.8333 %
1523 05-10-2019 10:00:00 10.61667 C 25.5000 %
1524 05-10-2019 11:00:00 10.76667 C 20.8333 %
1525 05-10-2019 12:00:00 11.7 C 20.0000 %
Sensor: Nr:Datum:Temp:Feuchte:
Aussen-T/F 1526 05-10-2019 13:00:00 12.43333 C 20.0000 %
1527 05-10-2019 14:00:00 12.33333 C 20.0000 %
1528 05-10-2019 15:00:00 12.65 C 20.0000 %
1529 05-10-2019 16:00:00 12.06667 C 21.0000 %
1530 05-10-2019 17:00:00 11.6 C 21.5000 %
1531 05-10-2019 18:00:00 10.46667 C 24.8333 %
1532 05-10-2019 19:00:00 8.68333 C 26.0000 %
1533 05-10-2019 20:00:00 7.83333 C 26.8333 %
1534 05-10-2019 21:00:00 6.93333 C 31.5000 %
1535 05-10-2019 22:00:00 6.75 C 34.1667 %
1536 05-10-2019 23:00:00 6.76667 C 35.0000 %
1537 06-10-2019 00:00:00 6.43333 C 34.3333 %
1538 06-10-2019 01:00:00 5.85 C 35.6667 %
1539 06-10-2019 02:00:00 6.35 C 35.5000 %
1540 06-10-2019 03:00:00 6.75 C 35.0000 %
1541 06-10-2019 04:00:00 6.83333 C 34.3333 %
1542 06-10-2019 05:00:00 6.8 C 35.0000 %
1543 06-10-2019 06:00:00 7.11667 C 33.3333 %
1544 06-10-2019 07:00:00 7.36667 C 32.6667 %
1545 06-10-2019 08:00:00 7.61667 C 31.5000 %
1546 06-10-2019 09:00:00 8 C 32.8333 %
1547 06-10-2019 10:00:00 8.18333 C 31.0000 %
1548 06-10-2019 11:00:00 8.01667 C 33.6667 %
1549 06-10-2019 12:00:00 8.33333 C 33.3333 %
1550 06-10-2019 13:00:00 8.71667 C 33.0000 %
Sensor: Nr:Datum:Temp:Feuchte:
Aussen-T/F 1551 06-10-2019 14:00:00 8.91667 C 31.8333 %
1552 06-10-2019 15:00:00 9.03333 C 32.5000 %
1553 06-10-2019 16:00:00 9.1 C 32.1667 %
1554 06-10-2019 17:00:00 8.81667 C 35.3333 %
1555 06-10-2019 18:00:00 8.63333 C 36.0000 %
1556 06-10-2019 19:00:00 8.46667 C 36.0000 %
1557 06-10-2019 20:00:00 8.4 C 36.0000 %
1558 06-10-2019 21:00:00 8.38333 C 36.0000 %
1559 06-10-2019 22:00:00 8.16667 C 36.0000 %
1560 06-10-2019 23:00:00 8.3 C 36.0000 %
1561 07-10-2019 00:00:00 8.28333 C 36.0000 %
1562 07-10-2019 01:00:00 8.08333 C 36.0000 %
1563 07-10-2019 02:00:00 8.06667 C 36.0000 %
1564 07-10-2019 03:00:00 8.06667 C 35.3333 %
1565 07-10-2019 04:00:00 8.06667 C 36.0000 %
1566 07-10-2019 05:00:00 7.96667 C 35.8333 %
1567 07-10-2019 06:00:00 7.95 C 36.1667 %
1568 07-10-2019 07:00:00 8 C 36.3333 %
1569 07-10-2019 08:00:00 8.16667 C 37.0000 %
1570 07-10-2019 09:00:00 8.43333 C 35.3333 %
1571 07-10-2019 10:00:00 9.01667 C 31.3333 %
1572 07-10-2019 11:00:00 10.45 C 27.5000 %
1573 07-10-2019 12:00:00 11.36667 C 25.1667 %
1574 07-10-2019 13:00:00 11.21667 C 25.5000 %
1575 07-10-2019 14:00:00 12.2 C 23.0000 %
Sensor: Nr:Datum:Temp:Feuchte:
Aussen-T/F 1576 07-10-2019 15:00:00 12.65 C 22.3333 %
1577 07-10-2019 16:00:00 12.46667 C 23.5000 %
1578 07-10-2019 17:00:00 12 C 25.0000 %
1579 07-10-2019 18:00:00 11.11667 C 29.0000 %
1580 07-10-2019 19:00:00 10.18333 C 32.8333 %
1581 07-10-2019 20:00:00 10.18333 C 34.5000 %
1582 07-10-2019 21:00:00 10.46667 C 34.6667 %
1583 07-10-2019 22:00:00 10.4 C 35.6667 %
1584 07-10-2019 23:00:00 10.58333 C 35.1667 %
1585 08-10-2019 00:00:00 10.8 C 34.1667 %
1586 08-10-2019 01:00:00 11.31667 C 30.0000 %
1587 08-10-2019 02:00:00 11.18333 C 30.8333 %
1588 08-10-2019 03:00:00 11.3 C 31.1667 %
1589 08-10-2019 04:00:00 11.41667 C 30.5000 %
1590 08-10-2019 05:00:00 11.95 C 27.0000 %
1591 08-10-2019 06:00:00 11.18333 C 32.0000 %
1592 08-10-2019 07:00:00 11.01667 C 35.3333 %
1593 08-10-2019 08:00:00 11.3 C 33.0000 %
1594 08-10-2019 09:00:00 11.8 C 30.3333 %
1595 08-10-2019 10:00:00 12.23333 C 29.0000 %
1596 08-10-2019 11:00:00 13.53333 C 26.1667 %
1597 08-10-2019 12:00:00 13.75 C 25.8333 %
1598 08-10-2019 13:00:00 13.81667 C 26.1667 %
1599 08-10-2019 14:00:00 14.2 C 26.0000 %
1600 08-10-2019 15:00:00 13.78333 C 28.3333 %
Sensor: Nr:Datum:Temp:Feuchte:
Aussen-T/F 1601 08-10-2019 16:00:00 13.56667 C 30.0000 %
1602 08-10-2019 17:00:00 13.41667 C 31.8333 %
1603 08-10-2019 18:00:00 13.33333 C 32.8333 %
1604 08-10-2019 19:00:00 13.18333 C 34.8333 %
1605 08-10-2019 20:00:00 12.85 C 35.0000 %
1606 08-10-2019 21:00:00 12.58333 C 35.0000 %
1607 08-10-2019 22:00:00 12.06667 C 35.0000 %
1608 08-10-2019 23:00:00 11.01667 C 35.3333 %
1609 09-10-2019 00:00:00 9.91667 C 36.3333 %
1610 09-10-2019 01:00:00 9.8 C 36.8333 %
1611 09-10-2019 02:00:00 10.11667 C 35.6667 %
1612 09-10-2019 03:00:00 10.21667 C 35.8333 %
1613 09-10-2019 04:00:00 10.96667 C 31.0000 %
1614 09-10-2019 05:00:00 10.71667 C 32.3333 %
1615 09-10-2019 06:00:00 11.11667 C 29.8333 %
1616 09-10-2019 07:00:00 10.73333 C 30.0000 %
1617 09-10-2019 08:00:00 10.91667 C 29.5000 %
1618 09-10-2019 09:00:00 11.46667 C 28.0000 %
1619 09-10-2019 10:00:00 13.01667 C 23.6667 %
1620 09-10-2019 11:00:00 13.81667 C 21.5000 %
1621 09-10-2019 12:00:00 13.15 C 24.0000 %
1622 09-10-2019 13:00:00 13.21667 C 27.0000 %
1623 09-10-2019 14:00:00 11.83333 C 29.0000 %
1624 09-10-2019 15:00:00 12.28333 C 25.8333 %
1625 09-10-2019 16:00:00 13.55 C 20.3333 %
Sensor: Nr:Datum:Temp:Feuchte:
Aussen-T/F 1626 09-10-2019 17:00:00 13.7 C 20.0000 %
1627 09-10-2019 18:00:00 12.11667 C 22.8333 %
1628 09-10-2019 19:00:00 11.41667 C 25.3333 %
1629 09-10-2019 20:00:00 10.83333 C 25.8333 %
1630 09-10-2019 21:00:00 10.98333 C 25.6667 %
1631 09-10-2019 22:00:00 11.03333 C 24.6667 %
1632 09-10-2019 23:00:00 10.68333 C 24.8333 %
1633 10-10-2019 00:00:00 10.1 C 25.0000 %
1634 10-10-2019 01:00:00 9.9 C 26.6667 %
1635 10-10-2019 02:00:00 10.31667 C 26.0000 %
1636 10-10-2019 03:00:00 9.98333 C 29.3333 %
1637 10-10-2019 04:00:00 9.91667 C 30.1667 %
1638 10-10-2019 05:00:00 9.78333 C 31.6667 %
1639 10-10-2019 06:00:00 9.86667 C 30.8333 %
1640 10-10-2019 07:00:00 9.68333 C 29.6667 %
1641 10-10-2019 08:00:00 9.81667 C 27.8333 %
1642 10-10-2019 09:00:00 10.68333 C 26.3333 %
1643 10-10-2019 10:00:00 11.25 C 25.1667 %
1644 10-10-2019 11:00:00 12.43333 C 21.6667 %
1645 10-10-2019 12:00:00 13.68333 C 20.0000 %
1646 10-10-2019 13:00:00 14.68333 C 20.0000 %
1647 10-10-2019 14:00:00 14.8 C 20.0000 %
1648 10-10-2019 15:00:00 15.26667 C 20.0000 %
1649 10-10-2019 16:00:00 15.56667 C 20.3333 %
1650 10-10-2019 17:00:00 14.16667 C 20.0000 %
Sensor: Nr:Datum:Temp:Feuchte:
Aussen-T/F 1651 10-10-2019 18:00:00 12.71667 C 21.5000 %
1652 10-10-2019 19:00:00 11.38333 C 26.1667 %
1653 10-10-2019 20:00:00 11.75 C 25.5000 %
1654 10-10-2019 21:00:00 9.88333 C 32.0000 %
1655 10-10-2019 22:00:00 9.23333 C 36.3333 %
1656 10-10-2019 23:00:00 8.91667 C 37.0000 %
1657 11-10-2019 00:00:00 8.81667 C 37.0000 %
1658 11-10-2019 01:00:00 8.25 C 36.5000 %
1659 11-10-2019 02:00:00 8.01667 C 37.1667 %
1660 11-10-2019 03:00:00 8.65 C 36.1667 %
1661 11-10-2019 04:00:00 9.35 C 30.8333 %
1662 11-10-2019 05:00:00 9 C 31.5000 %
1663 11-10-2019 06:00:00 8.8 C 35.1667 %
1664 11-10-2019 07:00:00 9.61667 C 33.0000 %
1665 11-10-2019 08:00:00 11.03333 C 31.1667 %
1666 11-10-2019 09:00:00 12.51667 C 28.3333 %
1667 11-10-2019 10:00:00 13.5 C 26.3333 %
1668 11-10-2019 11:00:00 15.53333 C 21.5000 %
1669 11-10-2019 12:00:00 16.08333 C 20.0000 %
1670 11-10-2019 13:00:00 16.71667 C 20.0000 %
1671 11-10-2019 14:00:00 16.41667 C 20.0000 %
1672 11-10-2019 15:00:00 16.78333 C 20.0000 %
1673 11-10-2019 16:00:00 16.75 C 20.0000 %
1674 11-10-2019 17:00:00 16.85 C 20.0000 %
1675 11-10-2019 18:00:00 15.16667 C 22.3333 %
Sensor: Nr:Datum:Temp:Feuchte:
Aussen-T/F 1676 11-10-2019 19:00:00 13.35 C 28.5000 %
1677 11-10-2019 20:00:00 12.88333 C 30.3333 %
1678 11-10-2019 21:00:00 11.85 C 33.5000 %
1679 11-10-2019 22:00:00 11.18333 C 36.0000 %
1680 11-10-2019 23:00:00 10.83333 C 36.3333 %
1681 12-10-2019 00:00:00 10.2 C 36.8333 %
1682 12-10-2019 01:00:00 9.73333 C 37.0000 %
1683 12-10-2019 02:00:00 9.48333 C 37.0000 %
1684 12-10-2019 03:00:00 9.1 C 37.0000 %
1685 12-10-2019 04:00:00 9.21667 C 36.6667 %
1686 12-10-2019 05:00:00 8.56667 C 37.0000 %
1687 12-10-2019 06:00:00 8.05 C 37.0000 %
1688 12-10-2019 07:00:00 7.98333 C 37.0000 %
1689 12-10-2019 08:00:00 8.06667 C 37.0000 %
1690 12-10-2019 09:00:00 8.9 C 36.8333 %
1691 12-10-2019 10:00:00 11.83333 C 34.5000 %
1692 12-10-2019 11:00:00 14.78333 C 22.1667 %
1693 12-10-2019 12:00:00 16.08333 C 20.0000 %
1694 12-10-2019 13:00:00 19.11667 C 20.0000 %
1695 12-10-2019 14:00:00 20.65 C 20.0000 %
1696 12-10-2019 15:00:00 20.43333 C 20.0000 %
1697 12-10-2019 16:00:00 19.73333 C 20.0000 %
1698 12-10-2019 17:00:00 18.78333 C 20.0000 %
1699 12-10-2019 18:00:00 16.23333 C 21.3333 %
1700 12-10-2019 19:00:00 14.61667 C 25.6667 %
Sensor: Nr:Datum:Temp:Feuchte:
Aussen-T/F 1701 12-10-2019 20:00:00 13.91667 C 28.1667 %
1702 12-10-2019 21:00:00 14.1 C 29.3333 %
1703 12-10-2019 22:00:00 14.15 C 28.8333 %
1704 12-10-2019 23:00:00 13.33333 C 33.1667 %
1705 13-10-2019 00:00:00 12.71667 C 35.1667 %
1706 13-10-2019 01:00:00 12.21667 C 35.0000 %
1707 13-10-2019 02:00:00 12.85 C 35.5000 %
1708 13-10-2019 03:00:00 12.6 C 35.0000 %
1709 13-10-2019 04:00:00 12.13333 C 35.1667 %
1710 13-10-2019 05:00:00 12.98333 C 35.0000 %
1711 13-10-2019 06:00:00 13.1 C 35.0000 %
1712 13-10-2019 07:00:00 13.03333 C 35.0000 %
1713 13-10-2019 08:00:00 12.31667 C 35.0000 %
1714 13-10-2019 09:00:00 13.11667 C 34.5000 %
1715 13-10-2019 10:00:00 14.31667 C 33.5000 %
1716 13-10-2019 11:00:00 15.73333 C 31.3333 %
1717 13-10-2019 12:00:00 18.2 C 26.1667 %
1718 13-10-2019 13:00:00 21.43333 C 21.0000 %
1719 13-10-2019 14:00:00 23.05 C 20.0000 %
1720 13-10-2019 15:00:00 21.93333 C 20.0000 %
1721 13-10-2019 16:00:00 24.05 C 20.0000 %
1722 13-10-2019 17:00:00 23.58333 C 20.0000 %
1723 13-10-2019 18:00:00 19 C 20.6667 %
1724 13-10-2019 19:00:00 18.01667 C 22.3333 %
1725 13-10-2019 20:00:00 17.55 C 23.5000 %
Sensor: Nr:Datum:Temp:Feuchte:
Aussen-T/F 1726 13-10-2019 21:00:00 16.68333 C 25.0000 %
1727 13-10-2019 22:00:00 16.26667 C 24.3333 %
1728 13-10-2019 23:00:00 15.61667 C 25.1667 %
1729 14-10-2019 00:00:00 14.95 C 26.3333 %
1730 14-10-2019 01:00:00 14.63333 C 27.1667 %
1731 14-10-2019 02:00:00 14.05 C 28.5000 %
1732 14-10-2019 03:00:00 13.18333 C 32.3333 %
1733 14-10-2019 04:00:00 12.43333 C 35.0000 %
1734 14-10-2019 05:00:00 12.73333 C 35.6667 %
1735 14-10-2019 06:00:00 11.93333 C 35.0000 %
1736 14-10-2019 07:00:00 12.05 C 36.0000 %
1737 14-10-2019 08:00:00 12.41667 C 35.0000 %
1738 14-10-2019 09:00:00 12.96667 C 32.8333 %
1739 14-10-2019 10:00:00 13.38333 C 33.8333 %
1740 14-10-2019 11:00:00 15.03333 C 30.3333 %
1741 14-10-2019 12:00:00 17.28333 C 24.6667 %
1742 14-10-2019 13:00:00 20.71667 C 20.6667 %
1743 14-10-2019 14:00:00 22.36667 C 20.0000 %
1744 14-10-2019 15:00:00 20.68333 C 20.0000 %
1745 14-10-2019 16:00:00 22.68333 C 20.0000 %
1746 14-10-2019 17:00:00 21.81667 C 20.0000 %
1747 14-10-2019 18:00:00 18.16667 C 20.1667 %
1748 14-10-2019 19:00:00 16.53333 C 23.1667 %
1749 14-10-2019 20:00:00 15.86667 C 24.8333 %
1750 14-10-2019 21:00:00 14.83333 C 26.0000 %
Sensor: Nr:Datum:Temp:Feuchte:
Aussen-T/F 1751 14-10-2019 22:00:00 14.26667 C 29.1667 %
1752 14-10-2019 23:00:00 14.51667 C 27.0000 %
1753 15-10-2019 00:00:00 14.3 C 27.1667 %
1754 15-10-2019 01:00:00 13.48333 C 30.8333 %
1755 15-10-2019 02:00:00 12.55 C 33.8333 %
1756 15-10-2019 03:00:00 11.88333 C 36.0000 %
1757 15-10-2019 04:00:00 11.61667 C 36.1667 %
1758 15-10-2019 05:00:00 11.25 C 36.0000 %
1759 15-10-2019 06:00:00 11.43333 C 36.0000 %
1760 15-10-2019 07:00:00 11.25 C 36.0000 %
1761 15-10-2019 08:00:00 11.31667 C 36.0000 %
1762 15-10-2019 09:00:00 12.3 C 35.3333 %
1763 15-10-2019 10:00:00 13.6 C 30.3333 %
1764 15-10-2019 11:00:00 16.4 C 23.3333 %
1765 15-10-2019 12:00:00 18.33333 C 20.0000 %
1766 15-10-2019 13:00:00 18.31667 C 20.0000 %
1767 15-10-2019 14:00:00 17.83333 C 20.0000 %
1768 15-10-2019 15:00:00 16.98333 C 20.0000 %
1769 15-10-2019 16:00:00 16.76667 C 20.0000 %
1770 15-10-2019 17:00:00 15.36667 C 25.1667 %
1771 15-10-2019 18:00:00 14.16667 C 29.8333 %
1772 15-10-2019 19:00:00 13.65 C 32.5000 %
1773 15-10-2019 20:00:00 13.26667 C 35.0000 %
1774 15-10-2019 21:00:00 13.01667 C 35.0000 %
1775 15-10-2019 22:00:00 12.96667 C 33.8333 %
Sensor: Nr:Datum:Temp:Feuchte:
Aussen-T/F 1776 15-10-2019 23:00:00 12.51667 C 28.3333 %
1777 16-10-2019 00:00:00 11.63333 C 31.0000 %
1778 16-10-2019 01:00:00 11.35 C 35.0000 %
1779 16-10-2019 02:00:00 11.3 C 35.5000 %
1780 16-10-2019 03:00:00 11.38333 C 32.0000 %
1781 16-10-2019 04:00:00 11.33333 C 30.0000 %
1782 16-10-2019 05:00:00 11.08333 C 30.1667 %
1783 16-10-2019 06:00:00 11.21667 C 26.1667 %
1784 16-10-2019 07:00:00 10.58333 C 28.0000 %
1785 16-10-2019 08:00:00 10.21667 C 29.0000 %
1786 16-10-2019 09:00:00 11.01667 C 29.5000 %
1787 16-10-2019 10:00:00 13.03333 C 20.6667 %
1788 16-10-2019 11:00:00 14.45 C 20.0000 %
1789 16-10-2019 12:00:00 14.26667 C 20.8333 %
1790 16-10-2019 13:00:00 13.35 C 27.5000 %
1791 16-10-2019 14:00:00 13.01667 C 29.8333 %
1792 16-10-2019 15:00:00 14.1 C 25.6667 %
1793 16-10-2019 16:00:00 15.01667 C 22.5000 %
1794 16-10-2019 17:00:00 14.23333 C 26.5000 %
1795 16-10-2019 18:00:00 13.46667 C 32.0000 %
1796 16-10-2019 19:00:00 13.11667 C 34.1667 %
1797 16-10-2019 20:00:00 12.7 C 34.8333 %
1798 16-10-2019 21:00:00 12.11667 C 35.0000 %
1799 16-10-2019 22:00:00 12.05 C 34.8333 %
1800 16-10-2019 23:00:00 12.08333 C 32.3333 %
Sensor: Nr:Datum:Temp:Feuchte:
Aussen-T/F 1801 17-10-2019 00:00:00 12.31667 C 30.6667 %
1802 17-10-2019 01:00:00 11.86667 C 34.0000 %
1803 17-10-2019 02:00:00 12.01667 C 32.1667 %
1804 17-10-2019 03:00:00 12.61667 C 28.0000 %
1805 17-10-2019 04:00:00 13.36667 C 24.6667 %
1806 17-10-2019 05:00:00 13.85 C 22.5000 %
1807 17-10-2019 06:00:00 13.85 C 22.5000 %
1808 17-10-2019 07:00:00 13.8 C 23.5000 %
1809 17-10-2019 08:00:00 14.75 C 21.6667 %
1810 17-10-2019 09:00:00 15.43333 C 20.0000 %
1811 17-10-2019 10:00:00 16.21667 C 20.0000 %
1812 17-10-2019 11:00:00 17.03333 C 20.0000 %
1813 17-10-2019 12:00:00 16.63333 C 20.0000 %
1814 17-10-2019 13:00:00 17.06667 C 20.0000 %
1815 17-10-2019 14:00:00 16.65 C 20.0000 %
1816 17-10-2019 15:00:00 16.25 C 20.8333 %
1817 17-10-2019 16:00:00 14.73333 C 31.8333 %
1818 17-10-2019 17:00:00 14.33333 C 35.0000 %
1819 17-10-2019 18:00:00 13.88333 C 35.5000 %
1820 17-10-2019 19:00:00 13.51667 C 35.1667 %
1821 17-10-2019 20:00:00 13.46667 C 35.0000 %
1822 17-10-2019 21:00:00 13.41667 C 35.0000 %
1823 17-10-2019 22:00:00 13.35 C 35.0000 %
1824 17-10-2019 23:00:00 13.43333 C 35.0000 %
1825 18-10-2019 00:00:00 13.28333 C 34.3333 %
Sensor: Nr:Datum:Temp:Feuchte:
Aussen-T/F 1826 18-10-2019 01:00:00 12.2 C 35.0000 %
1827 18-10-2019 02:00:00 11.5 C 36.1667 %
1828 18-10-2019 03:00:00 10.91667 C 36.6667 %
1829 18-10-2019 04:00:00 10.88333 C 36.8333 %
1830 18-10-2019 05:00:00 11.33333 C 36.3333 %
1831 18-10-2019 06:00:00 12.05 C 35.3333 %
1832 18-10-2019 07:00:00 11.95 C 35.5000 %
1833 18-10-2019 08:00:00 12.36667 C 35.0000 %
1834 18-10-2019 09:00:00 13.08333 C 35.0000 %
1835 18-10-2019 10:00:00 14.33333 C 32.3333 %
1836 18-10-2019 11:00:00 15.58333 C 22.3333 %
1837 18-10-2019 12:00:00 16.58333 C 20.0000 %
1838 18-10-2019 13:00:00 14.03333 C 20.8333 %
1839 18-10-2019 14:00:00 13.33333 C 20.0000 %
1840 18-10-2019 15:00:00 14.25 C 20.0000 %
1841 18-10-2019 16:00:00 15.7 C 20.0000 %
1842 18-10-2019 17:00:00 16.05 C 20.0000 %
1843 18-10-2019 18:00:00 11.53333 C 20.5000 %
1844 18-10-2019 19:00:00 9.83333 C 26.1667 %
1845 18-10-2019 20:00:00 8.96667 C 30.8333 %
1846 18-10-2019 21:00:00 8.46667 C 34.0000 %
1847 18-10-2019 22:00:00 8.65 C 35.3333 %
1848 18-10-2019 23:00:00 8.61667 C 35.0000 %
1849 19-10-2019 00:00:00 8.85 C 32.6667 %
1850 19-10-2019 01:00:00 9.16667 C 29.6667 %
Sensor: Nr:Datum:Temp:Feuchte:
Aussen-T/F 1851 19-10-2019 02:00:00 9.13333 C 32.0000 %
1852 19-10-2019 03:00:00 9.33333 C 31.5000 %
1853 19-10-2019 04:00:00 9.63333 C 31.0000 %
1854 19-10-2019 05:00:00 10.3 C 28.8333 %
1855 19-10-2019 06:00:00 10.01667 C 30.6667 %
1856 19-10-2019 07:00:00 10.18333 C 30.6667 %
1857 19-10-2019 08:00:00 10.8 C 30.1667 %
1858 19-10-2019 09:00:00 12.08333 C 25.1667 %
1859 19-10-2019 10:00:00 13.13333 C 21.3333 %
1860 19-10-2019 11:00:00 13.85 C 23.0000 %
1861 19-10-2019 12:00:00 15.93333 C 20.0000 %
1862 19-10-2019 13:00:00 17.03333 C 20.0000 %
1863 19-10-2019 14:00:00 17.68333 C 20.0000 %
1864 19-10-2019 15:00:00 17.65 C 20.0000 %
1865 19-10-2019 16:00:00 17.83333 C 20.0000 %
1866 19-10-2019 17:00:00 16.21667 C 20.0000 %
1867 19-10-2019 18:00:00 13.8 C 31.6667 %
1868 19-10-2019 19:00:00 13.21667 C 36.0000 %
1869 19-10-2019 20:00:00 12.96667 C 35.8333 %
1870 19-10-2019 21:00:00 12.95 C 34.8333 %
1871 19-10-2019 22:00:00 12.61667 C 36.0000 %
1872 19-10-2019 23:00:00 12.38333 C 36.0000 %
1873 20-10-2019 00:00:00 12.46667 C 36.0000 %
1874 20-10-2019 01:00:00 12.6 C 36.0000 %
1875 20-10-2019 02:00:00 12.53333 C 35.1667 %
Sensor: Nr:Datum:Temp:Feuchte:
Aussen-T/F 1876 20-10-2019 03:00:00 12.55 C 35.0000 %
1877 20-10-2019 04:00:00 12.56667 C 35.0000 %
1878 20-10-2019 05:00:00 12.33333 C 35.0000 %
1879 20-10-2019 06:00:00 12.05 C 35.0000 %
1880 20-10-2019 07:00:00 12.05 C 35.0000 %
1881 20-10-2019 08:00:00 12.13333 C 35.0000 %
1882 20-10-2019 09:00:00 12.43333 C 35.0000 %
1883 20-10-2019 10:00:00 12.63333 C 34.8333 %
1884 20-10-2019 11:00:00 12.9 C 34.0000 %
1885 20-10-2019 12:00:00 13.38333 C 33.3333 %
1886 20-10-2019 13:00:00 13.58333 C 33.5000 %
1887 20-10-2019 14:00:00 13.88333 C 33.3333 %
1888 20-10-2019 15:00:00 14.06667 C 34.6667 %
1889 20-10-2019 16:00:00 14.46667 C 34.1667 %
1890 20-10-2019 17:00:00 14.21667 C 34.6667 %
1891 20-10-2019 18:00:00 13.83333 C 35.0000 %
1892 20-10-2019 19:00:00 13.6 C 35.0000 %
1893 20-10-2019 20:00:00 13.4 C 35.0000 %
1894 20-10-2019 21:00:00 13.51667 C 35.0000 %
1895 20-10-2019 22:00:00 13.41667 C 35.0000 %
1896 20-10-2019 23:00:00 13.48333 C 35.0000 %
1897 21-10-2019 00:00:00 13.75 C 34.8333 %
1898 21-10-2019 01:00:00 13.48333 C 34.0000 %
1899 21-10-2019 02:00:00 13.05 C 34.3333 %
1900 21-10-2019 03:00:00 13.01667 C 34.6667 %
Sensor: Nr:Datum:Temp:Feuchte:
Aussen-T/F 1901 21-10-2019 04:00:00 12.35 C 34.6667 %
1902 21-10-2019 05:00:00 12.83333 C 35.0000 %
1903 21-10-2019 06:00:00 13.03333 C 35.0000 %
1904 21-10-2019 07:00:00 12.36667 C 34.8333 %
1905 21-10-2019 08:00:00 12 C 34.6667 %
1906 21-10-2019 09:00:00 12.18333 C 35.0000 %
1907 21-10-2019 10:00:00 13.06667 C 37.0000 %
1908 21-10-2019 11:00:00 13.61667 C 32.6667 %
1909 21-10-2019 12:00:00 15.16667 C 25.1667 %
1910 21-10-2019 13:00:00 17.5 C 20.0000 %
1911 21-10-2019 14:00:00 16.86667 C 20.0000 %
1912 21-10-2019 15:00:00 16.68333 C 20.0000 %
1913 21-10-2019 16:00:00 15.63333 C 20.0000 %
1914 21-10-2019 17:00:00 14.33333 C 20.0000 %
1915 21-10-2019 18:00:00 13.05 C 20.1667 %
1916 21-10-2019 19:00:00 11.83333 C 24.8333 %
1917 21-10-2019 20:00:00 11.01667 C 28.3333 %
1918 21-10-2019 21:00:00 10.9 C 28.6667 %
1919 21-10-2019 22:00:00 11 C 28.5000 %
1920 21-10-2019 23:00:00 10.58333 C 28.5000 %
1921 22-10-2019 00:00:00 10.31667 C 30.6667 %
1922 22-10-2019 01:00:00 10.56667 C 30.6667 %
1923 22-10-2019 02:00:00 10.45 C 29.3333 %
1924 22-10-2019 03:00:00 10.41667 C 30.1667 %
1925 22-10-2019 04:00:00 9.88333 C 31.5000 %
Sensor: Nr:Datum:Temp:Feuchte:
Aussen-T/F 1926 22-10-2019 05:00:00 9.28333 C 34.5000 %
1927 22-10-2019 06:00:00 9.56667 C 33.6667 %
1928 22-10-2019 07:00:00 9.28333 C 34.0000 %
1929 22-10-2019 08:00:00 9.6 C 33.5000 %
1930 22-10-2019 09:00:00 10.48333 C 25.6667 %
1931 22-10-2019 10:00:00 11.93333 C 20.0000 %
1932 22-10-2019 11:00:00 13.33333 C 20.0000 %
1933 22-10-2019 12:00:00 13.98333 C 20.0000 %
1934 22-10-2019 13:00:00 16.81667 C 20.0000 %
1935 22-10-2019 14:00:00 16.21667 C 20.0000 %
1936 22-10-2019 15:00:00 14.16667 C 20.0000 %
1937 22-10-2019 16:00:00 14.18333 C 20.0000 %
1938 22-10-2019 17:00:00 14.91667 C 20.0000 %
1939 22-10-2019 18:00:00 11.5 C 22.3333 %
1940 22-10-2019 19:00:00 10.56667 C 30.3333 %
1941 22-10-2019 20:00:00 9.68333 C 34.1667 %
1942 22-10-2019 21:00:00 9.18333 C 36.0000 %
1943 22-10-2019 22:00:00 9.51667 C 36.8333 %
1944 22-10-2019 23:00:00 8.95 C 35.8333 %
1945 23-10-2019 00:00:00 7.96667 C 36.5000 %
1946 23-10-2019 01:00:00 7.66667 C 37.1667 %
1947 23-10-2019 02:00:00 7.31667 C 37.3333 %
1948 23-10-2019 03:00:00 7.21667 C 37.1667 %
1949 23-10-2019 04:00:00 6.96667 C 37.5000 %
1950 23-10-2019 05:00:00 7.8 C 37.1667 %
Sensor: Nr:Datum:Temp:Feuchte:
Aussen-T/F 1951 23-10-2019 06:00:00 7.53333 C 37.0000 %
1952 23-10-2019 07:00:00 7.13333 C 36.8333 %
1953 23-10-2019 08:00:00 7.38333 C 37.0000 %
1954 23-10-2019 09:00:00 8.36667 C 37.0000 %
1955 23-10-2019 10:00:00 9.48333 C 36.1667 %
1956 23-10-2019 11:00:00 11.23333 C 30.1667 %
1957 23-10-2019 12:00:00 12.33333 C 24.5000 %
1958 23-10-2019 13:00:00 13.46667 C 20.3333 %
1959 23-10-2019 14:00:00 14.3 C 20.0000 %
1960 23-10-2019 15:00:00 14.6 C 20.0000 %
1961 23-10-2019 16:00:00 15 C 20.0000 %
1962 23-10-2019 17:00:00 14.31667 C 23.3333 %
1963 23-10-2019 18:00:00 13.31667 C 27.6667 %
1964 23-10-2019 19:00:00 12.8 C 30.0000 %
1965 23-10-2019 20:00:00 12.8 C 30.0000 %
1966 23-10-2019 21:00:00 12.75 C 30.0000 %
1967 23-10-2019 22:00:00 12.45 C 31.5000 %
1968 23-10-2019 23:00:00 12.21667 C 32.5000 %
1969 24-10-2019 00:00:00 11.66667 C 35.1667 %
1970 24-10-2019 01:00:00 11.61667 C 36.5000 %
1971 24-10-2019 02:00:00 11.6 C 35.5000 %
1972 24-10-2019 03:00:00 11 C 36.3333 %
1973 24-10-2019 04:00:00 10.78333 C 37.0000 %
1974 24-10-2019 05:00:00 11.31667 C 36.0000 %
1975 24-10-2019 06:00:00 11.43333 C 36.0000 %
Sensor: Nr:Datum:Temp:Feuchte:
Aussen-T/F 1976 24-10-2019 07:00:00 11.81667 C 35.0000 %
1977 24-10-2019 08:00:00 12.18333 C 32.8333 %
1978 24-10-2019 09:00:00 12.78333 C 30.3333 %
1979 24-10-2019 10:00:00 14 C 25.3333 %
1980 24-10-2019 11:00:00 15.15 C 20.0000 %
1981 24-10-2019 12:00:00 15.1 C 22.8333 %
1982 24-10-2019 13:00:00 17.7 C 20.1667 %
1983 24-10-2019 14:00:00 17.95 C 20.0000 %
1984 24-10-2019 15:00:00 18.96667 C 20.0000 %
1985 24-10-2019 16:00:00 19.4 C 20.0000 %
1986 24-10-2019 17:00:00 18.1 C 20.0000 %
1987 24-10-2019 18:00:00 14.98333 C 20.0000 %
1988 24-10-2019 19:00:00 13.9 C 22.1667 %
1989 24-10-2019 20:00:00 13.23333 C 24.8333 %
1990 24-10-2019 21:00:00 12.81667 C 25.8333 %
1991 24-10-2019 22:00:00 12.41667 C 29.5000 %
1992 24-10-2019 23:00:00 12.53333 C 28.8333 %
1993 25-10-2019 00:00:00 11.41667 C 34.6667 %
1994 25-10-2019 01:00:00 11.08333 C 35.0000 %
1995 25-10-2019 02:00:00 11.05 C 34.3333 %
1996 25-10-2019 03:00:00 12.13333 C 26.6667 %
1997 25-10-2019 04:00:00 12.75 C 23.5000 %
1998 25-10-2019 05:00:00 12.2 C 24.3333 %
1999 25-10-2019 06:00:00 12.75 C 23.3333 %
2000 25-10-2019 07:00:00 12.86667 C 23.5000 %
Sensor: Nr:Datum:Temp:Feuchte:
Aussen-T/F 2001 25-10-2019 08:00:00 12.05 C 27.1667 %
2002 25-10-2019 09:00:00 12.95 C 23.5000 %
2003 25-10-2019 10:00:00 13.88333 C 21.0000 %
2004 25-10-2019 11:00:00 15 C 20.0000 %
2005 25-10-2019 12:00:00 15.48333 C 20.0000 %
2006 25-10-2019 13:00:00 16.91667 C 20.0000 %
2007 25-10-2019 14:00:00 17.06667 C 20.0000 %
2008 25-10-2019 15:00:00 16.71667 C 20.0000 %
2009 25-10-2019 16:00:00 16.83333 C 20.0000 %
2010 25-10-2019 17:00:00 15 C 20.0000 %
2011 25-10-2019 18:00:00 12.18333 C 21.0000 %
2012 25-10-2019 19:00:00 11.16667 C 26.8333 %
2013 25-10-2019 20:00:00 10.65 C 28.8333 %
2014 25-10-2019 21:00:00 10.23333 C 30.8333 %
2015 25-10-2019 22:00:00 11.08333 C 30.0000 %
2016 25-10-2019 23:00:00 12.43333 C 24.1667 %
2017 26-10-2019 00:00:00 13.36667 C 20.0000 %
2018 26-10-2019 01:00:00 13.45 C 20.0000 %
2019 26-10-2019 02:00:00 12.43333 C 23.6667 %
2020 26-10-2019 03:00:00 11.06667 C 31.5000 %
2021 26-10-2019 04:00:00 11.1 C 33.3333 %
2022 26-10-2019 05:00:00 11.75 C 27.3333 %
2023 26-10-2019 06:00:00 10.9 C 34.1667 %
2024 26-10-2019 07:00:00 9.9 C 35.6667 %
2025 26-10-2019 08:00:00 9.11667 C 37.3333 %
Sensor: Nr:Datum:Temp:Feuchte:
Aussen-T/F 2026 26-10-2019 09:00:00 9.78333 C 36.6667 %
2027 26-10-2019 10:00:00 11.06667 C 33.8333 %
2028 26-10-2019 11:00:00 12.88333 C 28.6667 %
2029 26-10-2019 12:00:00 14.48333 C 23.1667 %
2030 26-10-2019 13:00:00 16.76667 C 20.1667 %
2031 26-10-2019 14:00:00 17.38333 C 20.0000 %
2032 26-10-2019 15:00:00 16.66667 C 20.0000 %
2033 26-10-2019 16:00:00 16.08333 C 20.0000 %
2034 26-10-2019 17:00:00 14.28333 C 22.3333 %
2035 26-10-2019 18:00:00 12.65 C 26.0000 %
2036 26-10-2019 19:00:00 11.88333 C 29.6667 %
2037 26-10-2019 20:00:00 12.21667 C 27.8333 %
2038 26-10-2019 21:00:00 12.1 C 29.0000 %
2039 26-10-2019 22:00:00 11.78333 C 32.3333 %
2040 26-10-2019 23:00:00 12.31667 C 28.3333 %
2041 27-10-2019 00:00:00 13.2 C 22.5000 %
2042 27-10-2019 01:00:00 12.8 C 22.6667 %
2043 27-10-2019 02:00:00 12.08333 C 26.0000 %
2044 27-10-2019 03:00:00 12.03333 C 25.5000 %
2045 27-10-2019 04:00:00 11.44167 C 29.0000 %
2046 27-10-2019 05:00:00 13.2 C 20.8333 %
2047 27-10-2019 06:00:00 14.51667 C 20.0000 %
2048 27-10-2019 07:00:00 13.3 C 23.8333 %
2049 27-10-2019 08:00:00 11 C 30.3333 %
2050 27-10-2019 09:00:00 9.48333 C 30.6667 %
Sensor: Nr:Datum:Temp:Feuchte:
Aussen-T/F 2051 27-10-2019 10:00:00 9.08333 C 32.8333 %
2052 27-10-2019 11:00:00 9.55 C 28.6667 %
2053 27-10-2019 12:00:00 9.28333 C 29.1667 %
2054 27-10-2019 13:00:00 9.2 C 30.1667 %
2055 27-10-2019 14:00:00 8.76667 C 32.6667 %
2056 27-10-2019 15:00:00 8.68333 C 33.6667 %
2057 27-10-2019 16:00:00 8.28333 C 35.3333 %
2058 27-10-2019 17:00:00 7.86667 C 37.8333 %
2059 27-10-2019 18:00:00 7.81667 C 38.0000 %
2060 27-10-2019 19:00:00 7.68333 C 38.0000 %
2061 27-10-2019 20:00:00 6.53333 C 38.1667 %
2062 27-10-2019 21:00:00 5.9 C 38.5000 %
2063 27-10-2019 22:00:00 4.65 C 38.8333 %
2064 27-10-2019 23:00:00 4.31667 C 39.6667 %
2065 28-10-2019 00:00:00 4.71667 C 39.1667 %
2066 28-10-2019 01:00:00 5.16667 C 38.1667 %
2067 28-10-2019 02:00:00 4.66667 C 38.3333 %
2068 28-10-2019 03:00:00 4.7 C 39.0000 %
2069 28-10-2019 04:00:00 4.5 C 39.0000 %
2070 28-10-2019 05:00:00 4.46667 C 39.0000 %
2071 28-10-2019 06:00:00 4.38333 C 38.1667 %
2072 28-10-2019 07:00:00 4.68333 C 38.8333 %
2073 28-10-2019 08:00:00 5.08333 C 38.0000 %
2074 28-10-2019 09:00:00 5.43333 C 38.0000 %
2075 28-10-2019 10:00:00 5.83333 C 36.3333 %
Sensor: Nr:Datum:Temp:Feuchte:
Aussen-T/F 2076 28-10-2019 11:00:00 6.43333 C 34.1667 %
2077 28-10-2019 12:00:00 6.7 C 30.5000 %
2078 28-10-2019 13:00:00 7.43333 C 28.1667 %
2079 28-10-2019 14:00:00 7.86667 C 22.8333 %
2080 28-10-2019 15:00:00 7.98333 C 22.6667 %
2081 28-10-2019 16:00:00 6.85 C 31.8333 %
2082 28-10-2019 17:00:00 6.46667 C 36.3333 %
2083 28-10-2019 18:00:00 6.66667 C 36.1667 %
2084 28-10-2019 19:00:00 6.53333 C 36.8333 %
2085 28-10-2019 20:00:00 6.46667 C 37.8333 %
2086 28-10-2019 21:00:00 6.3 C 37.0000 %
2087 28-10-2019 22:00:00 6.36667 C 35.6667 %
2088 28-10-2019 23:00:00 6.28333 C 32.8333 %
2089 29-10-2019 00:00:00 6.21667 C 32.5000 %
2090 29-10-2019 01:00:00 5.91667 C 32.8333 %
2091 29-10-2019 02:00:00 5.81667 C 32.8333 %
2092 29-10-2019 03:00:00 5.76667 C 32.8333 %
2093 29-10-2019 04:00:00 5.7 C 33.1667 %
2094 29-10-2019 05:00:00 5.71667 C 32.5000 %
2095 29-10-2019 06:00:00 5.58333 C 32.0000 %
2096 29-10-2019 07:00:00 5.45 C 32.5000 %
2097 29-10-2019 08:00:00 6.03333 C 28.8333 %
2098 29-10-2019 09:00:00 6.76667 C 23.1667 %
2099 29-10-2019 10:00:00 8.13333 C 20.0000 %
2100 29-10-2019 11:00:00 9 C 20.0000 %
Sensor: Nr:Datum:Temp:Feuchte:
Aussen-T/F 2101 29-10-2019 12:00:00 9.78333 C 20.0000 %
2102 29-10-2019 13:00:00 10.45 C 20.0000 %
2103 29-10-2019 14:00:00 10.76667 C 20.0000 %
2104 29-10-2019 15:00:00 9.35 C 20.0000 %
2105 29-10-2019 16:00:00 9.51667 C 20.0000 %
2106 29-10-2019 17:00:00 6 C 25.0000 %
2107 29-10-2019 18:00:00 4.85 C 29.3333 %
2108 29-10-2019 19:00:00 3.53333 C 36.3333 %
2109 29-10-2019 20:00:00 3.15 C 38.3333 %
2110 29-10-2019 21:00:00 2.26667 C 39.8333 %
2111 29-10-2019 22:00:00 1.76667 C 40.8333 %
2112 29-10-2019 23:00:00 1.55 C 41.0000 %
2113 30-10-2019 00:00:00 1.3 C 41.6667 %
2114 30-10-2019 01:00:00 1.11667 C 41.3333 %
2115 30-10-2019 02:00:00 1.46667 C 41.5000 %
2116 30-10-2019 03:00:00 0.46667 C 41.3333 %
2117 30-10-2019 04:00:00 0.5 C 41.6667 %
2118 30-10-2019 05:00:00 0.86667 C 41.8333 %
2119 30-10-2019 06:00:00 0.55 C 42.0000 %
2120 30-10-2019 07:00:00 0.91667 C 41.5000 %
2121 30-10-2019 08:00:00 1.31667 C 41.0000 %
2122 30-10-2019 09:00:00 2.11667 C 40.1667 %
2123 30-10-2019 10:00:00 4.16667 C 35.3333 %
2124 30-10-2019 11:00:00 5.46667 C 29.0000 %
2125 30-10-2019 12:00:00 6.58333 C 25.3333 %
Sensor: Nr:Datum:Temp:Feuchte:
Aussen-T/F 2126 30-10-2019 13:00:00 7.21667 C 20.3333 %
2127 30-10-2019 14:00:00 7.45 C 20.0000 %
2128 30-10-2019 15:00:00 7.18333 C 20.1667 %
2129 30-10-2019 16:00:00 6.08333 C 21.8333 %
2130 30-10-2019 17:00:00 4.76667 C 24.3333 %
2131 30-10-2019 18:00:00 3.53333 C 27.6667 %
2132 30-10-2019 19:00:00 2.55 C 32.8333 %
2133 30-10-2019 20:00:00 2.06667 C 36.3333 %
2134 30-10-2019 21:00:00 1.46667 C 39.5000 %
2135 30-10-2019 22:00:00 0.86667 C 40.8333 %
2136 30-10-2019 23:00:00 0.38333 C 41.3333 %
2137 31-10-2019 00:00:00 -0.31667 C 41.5000 %
2138 31-10-2019 01:00:00 -0.36667 C 41.6667 %
2139 31-10-2019 02:00:00 -0.81667 C 41.1667 %
2140 31-10-2019 03:00:00 -0.96667 C 41.3333 %
2141 31-10-2019 04:00:00 -1.2 C 41.3333 %
2142 31-10-2019 05:00:00 -1.51667 C 41.0000 %
2143 31-10-2019 06:00:00 -1.78333 C 41.0000 %
2144 31-10-2019 07:00:00 -1.95 C 41.0000 %
2145 31-10-2019 08:00:00 -1.45 C 41.1667 %
2146 31-10-2019 09:00:00 -0.6 C 41.0000 %
2147 31-10-2019 10:00:00 0.73333 C 40.6667 %
2148 31-10-2019 11:00:00 2.58333 C 35.3333 %
2149 31-10-2019 12:00:00 5.65 C 26.6667 %
2150 31-10-2019 13:00:00 6.66667 C 20.0000 %
Sensor: Nr:Datum:Temp:Feuchte:
Aussen-T/F 2151 31-10-2019 14:00:00 7.1 C 20.0000 %
2152 31-10-2019 15:00:00 7.51667 C 20.0000 %
2153 31-10-2019 16:00:00 6.01667 C 20.3333 %
2154 31-10-2019 17:00:00 3.4 C 25.8333 %
2155 31-10-2019 18:00:00 2.18333 C 29.1667 %
2156 31-10-2019 19:00:00 1.65 C 31.5000 %
2157 31-10-2019 20:00:00 0.81667 C 36.0000 %
2158 31-10-2019 21:00:00 0.4 C 38.8333 %
2159 31-10-2019 22:00:00 0.2 C 39.6667 %
2160 31-10-2019 23:00:00 0.1 C 39.8333 %
2161 01-11-2019 00:00:00 -0.5 C 40.8333 %
2162 01-11-2019 01:00:00 -0.66667 C 41.0000 %
2163 01-11-2019 02:00:00 -0.63333 C 41.5000 %
2164 01-11-2019 03:00:00 -0.61667 C 41.3333 %
2165 01-11-2019 04:00:00 0.63333 C 42.0000 %
2166 01-11-2019 05:00:00 1.8 C 40.1667 %
2167 01-11-2019 06:00:00 2.45 C 36.8333 %
2168 01-11-2019 07:00:00 3.06667 C 36.8333 %
2169 01-11-2019 08:00:00 3.96667 C 39.3333 %
2170 01-11-2019 09:00:00 5.11667 C 38.5000 %
2171 01-11-2019 10:00:00 6.7 C 31.8333 %
2172 01-11-2019 11:00:00 7.56667 C 25.8333 %
2173 01-11-2019 12:00:00 8.08333 C 25.5000 %
2174 01-11-2019 13:00:00 8.06667 C 27.6667 %
2175 01-11-2019 14:00:00 8.06667 C 32.1667 %
Sensor: Nr:Datum:Temp:Feuchte:
Aussen-T/F 2176 01-11-2019 15:00:00 8.03333 C 35.3333 %
2177 01-11-2019 16:00:00 8.08333 C 37.6667 %
2178 01-11-2019 17:00:00 8.11667 C 38.5000 %
2179 01-11-2019 18:00:00 8.11667 C 38.1667 %
2180 01-11-2019 19:00:00 8.23333 C 38.6667 %
2181 01-11-2019 20:00:00 8.56667 C 38.0000 %
2182 01-11-2019 21:00:00 9.05 C 38.0000 %
2183 01-11-2019 22:00:00 9.58333 C 38.0000 %
2184 01-11-2019 23:00:00 9.86667 C 37.8333 %
2185 02-11-2019 00:00:00 10.75 C 36.8333 %
2186 02-11-2019 01:00:00 11.36667 C 36.0000 %
2187 02-11-2019 02:00:00 11.41667 C 36.0000 %
2188 02-11-2019 03:00:00 11.55 C 35.6667 %
2189 02-11-2019 04:00:00 11.6 C 35.8333 %
2190 02-11-2019 05:00:00 12.05 C 36.0000 %
2191 02-11-2019 06:00:00 12.75 C 36.0000 %
2192 02-11-2019 07:00:00 12.95 C 34.0000 %
2193 02-11-2019 08:00:00 13.36667 C 33.3333 %
2194 02-11-2019 09:00:00 14.76667 C 24.8333 %
2195 02-11-2019 10:00:00 15 C 21.5000 %
2196 02-11-2019 11:00:00 16.01667 C 20.0000 %
2197 02-11-2019 12:00:00 16.5 C 20.0000 %
2198 02-11-2019 13:00:00 16.26667 C 20.0000 %
2199 02-11-2019 14:00:00 16.16667 C 20.0000 %
2200 02-11-2019 15:00:00 14.76667 C 20.0000 %
Sensor: Nr:Datum:Temp:Feuchte:
Aussen-T/F 2201 02-11-2019 16:00:00 14.41667 C 20.0000 %
2202 02-11-2019 17:00:00 12.61667 C 22.8333 %
2203 02-11-2019 18:00:00 10.85 C 28.5000 %
2204 02-11-2019 19:00:00 10.8 C 28.8333 %
2205 02-11-2019 20:00:00 10.73333 C 26.6667 %
2206 02-11-2019 21:00:00 10.5 C 23.5000 %
2207 02-11-2019 22:00:00 10.18333 C 23.8333 %
2208 02-11-2019 23:00:00 10.11667 C 23.3333 %
2209 03-11-2019 00:00:00 9.46667 C 24.8333 %
2210 03-11-2019 01:00:00 9.8 C 25.5000 %
2211 03-11-2019 02:00:00 9.15 C 29.0000 %
2212 03-11-2019 03:00:00 9.16667 C 32.8333 %
2213 03-11-2019 04:00:00 9.4 C 34.6667 %
2214 03-11-2019 05:00:00 9.41667 C 36.6667 %
2215 03-11-2019 06:00:00 9.63333 C 36.3333 %
2216 03-11-2019 07:00:00 9.51667 C 37.0000 %
2217 03-11-2019 08:00:00 9.95 C 37.6667 %
2218 03-11-2019 09:00:00 11.01667 C 35.0000 %
2219 03-11-2019 10:00:00 12.33333 C 25.6667 %
2220 03-11-2019 11:00:00 14.1 C 20.1667 %
2221 03-11-2019 12:00:00 15.61667 C 20.0000 %
2222 03-11-2019 13:00:00 16.2 C 20.0000 %
2223 03-11-2019 14:00:00 16.03333 C 20.0000 %
2224 03-11-2019 15:00:00 14.68333 C 20.0000 %
2225 03-11-2019 16:00:00 13.36667 C 21.6667 %
Sensor: Nr:Datum:Temp:Feuchte:
Aussen-T/F 2226 03-11-2019 17:00:00 12.05 C 29.8333 %
2227 03-11-2019 18:00:00 11.46667 C 36.6667 %
2228 03-11-2019 19:00:00 10.81667 C 37.0000 %
2229 03-11-2019 20:00:00 10.36667 C 37.0000 %
2230 03-11-2019 21:00:00 10.36667 C 33.6667 %
2231 03-11-2019 22:00:00 10.23333 C 33.0000 %
2232 03-11-2019 23:00:00 10.66667 C 30.1667 %
2233 04-11-2019 00:00:00 10.73333 C 26.1667 %
2234 04-11-2019 01:00:00 10.36667 C 27.3333 %
2235 04-11-2019 02:00:00 9.21667 C 32.6667 %
2236 04-11-2019 03:00:00 9.43333 C 31.3333 %
2237 04-11-2019 04:00:00 9.51667 C 34.5000 %
2238 04-11-2019 05:00:00 9.7 C 32.5000 %
2239 04-11-2019 06:00:00 8.86667 C 35.6667 %
2240 04-11-2019 07:00:00 8.65 C 32.0000 %
2241 04-11-2019 08:00:00 9.11667 C 34.1667 %
2242 04-11-2019 09:00:00 9.8 C 27.0000 %
2243 04-11-2019 10:00:00 10.78333 C 24.0000 %
2244 04-11-2019 11:00:00 10.56667 C 27.8333 %
2245 04-11-2019 12:00:00 10.96667 C 26.0000 %
2246 04-11-2019 13:00:00 12.06667 C 22.0000 %
2247 04-11-2019 14:00:00 12.78333 C 20.0000 %
2248 04-11-2019 15:00:00 13.58333 C 20.0000 %
2249 04-11-2019 16:00:00 10.85 C 23.1667 %
2250 04-11-2019 17:00:00 9.73333 C 28.8333 %
Sensor: Nr:Datum:Temp:Feuchte:
Aussen-T/F 2251 04-11-2019 18:00:00 8.6 C 34.8333 %
2252 04-11-2019 19:00:00 8.4 C 35.6667 %
2253 04-11-2019 20:00:00 9.01667 C 37.3333 %
2254 04-11-2019 21:00:00 8.18333 C 38.8333 %
2255 04-11-2019 22:00:00 7.48333 C 39.3333 %
2256 04-11-2019 23:00:00 8.83333 C 34.0000 %
2257 05-11-2019 00:00:00 9.03333 C 27.1667 %
2258 05-11-2019 01:00:00 8.86667 C 26.8333 %
2259 05-11-2019 02:00:00 8.7 C 29.0000 %
2260 05-11-2019 03:00:00 8.9 C 26.1667 %
2261 05-11-2019 04:00:00 9.16667 C 24.3333 %
2262 05-11-2019 05:00:00 8.86667 C 25.3333 %
2263 05-11-2019 06:00:00 8.75 C 26.1667 %
2264 05-11-2019 07:00:00 8.53333 C 26.6667 %
2265 05-11-2019 08:00:00 8.65 C 26.3333 %
2266 05-11-2019 09:00:00 9.31667 C 23.0000 %
2267 05-11-2019 10:00:00 10.56667 C 20.0000 %
2268 05-11-2019 11:00:00 11.36667 C 20.0000 %
2269 05-11-2019 12:00:00 11.83333 C 20.0000 %
2270 05-11-2019 13:00:00 12.13333 C 20.0000 %
2271 05-11-2019 14:00:00 12.13333 C 20.0000 %
2272 05-11-2019 15:00:00 11.21667 C 20.0000 %
2273 05-11-2019 16:00:00 9.73333 C 24.8333 %
2274 05-11-2019 17:00:00 8.88333 C 31.5000 %
2275 05-11-2019 18:00:00 8.01667 C 34.6667 %
Sensor: Nr:Datum:Temp:Feuchte:
Aussen-T/F 2276 05-11-2019 19:00:00 7.8 C 37.0000 %
2277 05-11-2019 20:00:00 7.53333 C 35.5000 %
2278 05-11-2019 21:00:00 7.23333 C 38.1667 %
2279 05-11-2019 22:00:00 7.31667 C 38.0000 %
2280 05-11-2019 23:00:00 7.46667 C 37.6667 %
2281 06-11-2019 00:00:00 7.76667 C 36.3333 %
2282 06-11-2019 01:00:00 7.58333 C 36.3333 %
2283 06-11-2019 02:00:00 7.58333 C 39.0000 %
2284 06-11-2019 03:00:00 6.73333 C 38.8333 %
2285 06-11-2019 04:00:00 6.8 C 39.3333 %
2286 06-11-2019 05:00:00 6.8 C 39.0000 %
2287 06-11-2019 06:00:00 7.21667 C 37.6667 %
2288 06-11-2019 07:00:00 6.95 C 37.1667 %
2289 06-11-2019 08:00:00 7.61667 C 37.1667 %
2290 06-11-2019 09:00:00 8.73333 C 29.0000 %
2291 06-11-2019 10:00:00 9.48333 C 25.0000 %
2292 06-11-2019 11:00:00 9.5 C 26.3333 %
2293 06-11-2019 12:00:00 9.85 C 26.0000 %
2294 06-11-2019 13:00:00 10.28333 C 23.6667 %
2295 06-11-2019 14:00:00 9.58333 C 27.0000 %
2296 06-11-2019 15:00:00 9.36667 C 31.3333 %
2297 06-11-2019 16:00:00 9.03333 C 36.0000 %
2298 06-11-2019 17:00:00 8.78333 C 38.5000 %
2299 06-11-2019 18:00:00 8.8 C 39.0000 %
2300 06-11-2019 19:00:00 8.61667 C 38.1667 %
Sensor: Nr:Datum:Temp:Feuchte:
Aussen-T/F 2301 06-11-2019 20:00:00 8.33333 C 38.0000 %
2302 06-11-2019 21:00:00 8.26667 C 38.0000 %
2303 06-11-2019 22:00:00 8.21667 C 38.0000 %
2304 06-11-2019 23:00:00 8.15 C 38.0000 %
2305 07-11-2019 00:00:00 7.71667 C 39.0000 %
2306 07-11-2019 01:00:00 7.33333 C 39.0000 %
2307 07-11-2019 02:00:00 7.4 C 38.8333 %
2308 07-11-2019 03:00:00 7.05 C 38.5000 %
2309 07-11-2019 04:00:00 6.85 C 38.8333 %
2310 07-11-2019 05:00:00 6.76667 C 38.8333 %
2311 07-11-2019 06:00:00 6.71667 C 39.0000 %
2312 07-11-2019 07:00:00 6.98333 C 38.6667 %
2313 07-11-2019 08:00:00 7.75 C 37.8333 %
2314 07-11-2019 09:00:00 8.36667 C 36.1667 %
2315 07-11-2019 10:00:00 9.38333 C 33.1667 %
2316 07-11-2019 11:00:00 9.06667 C 29.0000 %
2317 07-11-2019 12:00:00 8.81667 C 30.0000 %
2318 07-11-2019 13:00:00 9.63333 C 22.6667 %
2319 07-11-2019 14:00:00 9.23333 C 24.0000 %
2320 07-11-2019 15:00:00 9.66667 C 23.1667 %
2321 07-11-2019 16:00:00 9.25 C 20.0000 %
2322 07-11-2019 17:00:00 7.76667 C 22.1667 %
2323 07-11-2019 18:00:00 5.81667 C 34.5000 %
2324 07-11-2019 19:00:00 5.78333 C 36.1667 %
2325 07-11-2019 20:00:00 5.26667 C 37.1667 %
Sensor: Nr:Datum:Temp:Feuchte:
Aussen-T/F 2326 07-11-2019 21:00:00 4.55 C 38.8333 %
2327 07-11-2019 22:00:00 3.76667 C 39.5000 %
2328 07-11-2019 23:00:00 4.33333 C 37.0000 %
2329 08-11-2019 00:00:00 3.55 C 39.0000 %
2330 08-11-2019 01:00:00 3.03333 C 40.3333 %
2331 08-11-2019 02:00:00 1.93333 C 41.1667 %
2332 08-11-2019 03:00:00 1.98333 C 41.1667 %
2333 08-11-2019 04:00:00 1.36667 C 41.0000 %
2334 08-11-2019 05:00:00 1.2 C 41.0000 %
2335 08-11-2019 06:00:00 1.3 C 41.0000 %
2336 08-11-2019 07:00:00 1.38333 C 41.0000 %
2337 08-11-2019 08:00:00 2.68333 C 40.6667 %
2338 08-11-2019 09:00:00 3.35 C 40.0000 %
2339 08-11-2019 10:00:00 4.51667 C 38.5000 %
2340 08-11-2019 11:00:00 5.45 C 34.6667 %
2341 08-11-2019 12:00:00 6.3 C 30.8333 %
2342 08-11-2019 13:00:00 7.18333 C 27.6667 %
2343 08-11-2019 14:00:00 7.56667 C 27.1667 %
2344 08-11-2019 15:00:00 7.31667 C 30.6667 %
2345 08-11-2019 16:00:00 6.56667 C 34.1667 %
2346 08-11-2019 17:00:00 5.93333 C 36.3333 %
2347 08-11-2019 18:00:00 5.78333 C 39.6667 %
2348 08-11-2019 19:00:00 5.51667 C 39.5000 %
2349 08-11-2019 20:00:00 5.31667 C 39.8333 %
2350 08-11-2019 21:00:00 4.51667 C 39.8333 %
Sensor: Nr:Datum:Temp:Feuchte:
Aussen-T/F 2351 08-11-2019 22:00:00 4.58333 C 40.0000 %
2352 08-11-2019 23:00:00 4.63333 C 40.0000 %
2353 09-11-2019 00:00:00 4.51667 C 40.0000 %
2354 09-11-2019 01:00:00 4.3 C 39.5000 %
2355 09-11-2019 02:00:00 4.3 C 38.3333 %
2356 09-11-2019 03:00:00 4.43333 C 37.6667 %
2357 09-11-2019 04:00:00 4.05 C 38.3333 %
2358 09-11-2019 05:00:00 4.36667 C 36.6667 %
2359 09-11-2019 06:00:00 3.68333 C 31.0000 %
2360 09-11-2019 07:00:00 2.6 C 37.5000 %
2361 09-11-2019 08:00:00 2.63333 C 40.6667 %
2362 09-11-2019 09:00:00 4.53333 C 31.3333 %
2363 09-11-2019 10:00:00 5.56667 C 24.3333 %
2364 09-11-2019 11:00:00 5.48333 C 23.3333 %
2365 09-11-2019 12:00:00 6.2 C 21.5000 %
2366 09-11-2019 13:00:00 6.81667 C 20.0000 %
2367 09-11-2019 14:00:00 6.53333 C 20.1667 %
2368 09-11-2019 15:00:00 5.73333 C 27.8333 %
2369 09-11-2019 16:00:00 5.76667 C 29.3333 %
2370 09-11-2019 17:00:00 5.35 C 30.1667 %
2371 09-11-2019 18:00:00 4.26667 C 34.5000 %
2372 09-11-2019 19:00:00 4.41667 C 31.3333 %
2373 09-11-2019 20:00:00 2.66667 C 36.5000 %
2374 09-11-2019 21:00:00 2.2 C 40.3333 %
2375 09-11-2019 22:00:00 1.36667 C 41.6667 %
Sensor: Nr:Datum:Temp:Feuchte:
Aussen-T/F 2376 09-11-2019 23:00:00 0.65 C 42.6667 %
2377 10-11-2019 00:00:00 -0.01667 C 42.8333 %
2378 10-11-2019 01:00:00 0.81667 C 42.6667 %
2379 10-11-2019 02:00:00 0.76667 C 42.8333 %
2380 10-11-2019 03:00:00 0.55 C 43.0000 %
2381 10-11-2019 04:00:00 0.38333 C 42.1667 %
2382 10-11-2019 05:00:00 0.81667 C 43.0000 %
2383 10-11-2019 06:00:00 0.91667 C 42.0000 %
2384 10-11-2019 07:00:00 0.91667 C 42.0000 %
2385 10-11-2019 08:00:00 1.31667 C 41.3333 %
2386 10-11-2019 09:00:00 1.91667 C 40.3333 %
2387 10-11-2019 10:00:00 2.63333 C 35.8333 %
2388 10-11-2019 11:00:00 3.48333 C 32.0000 %
2389 10-11-2019 12:00:00 3.55 C 27.8333 %
2390 10-11-2019 13:00:00 3.98333 C 25.5000 %
2391 10-11-2019 14:00:00 4.31667 C 24.3333 %
2392 10-11-2019 15:00:00 4.43333 C 24.8333 %
2393 10-11-2019 16:00:00 4.01667 C 26.6667 %
2394 10-11-2019 17:00:00 3.68333 C 29.6667 %
2395 10-11-2019 18:00:00 3.61667 C 30.1667 %
2396 10-11-2019 19:00:00 3.41667 C 31.8333 %
2397 10-11-2019 20:00:00 3.61667 C 33.6667 %
2398 10-11-2019 21:00:00 3.65 C 32.6667 %
2399 10-11-2019 22:00:00 3.71667 C 32.8333 %
2400 10-11-2019 23:00:00 3.81667 C 29.6667 %
Sensor: Nr:Datum:Temp:Feuchte:
Aussen-T/F 2401 11-11-2019 00:00:00 3.58333 C 27.3333 %
2402 11-11-2019 01:00:00 3.1 C 27.6667 %
2403 11-11-2019 02:00:00 2.96667 C 28.3333 %
2404 11-11-2019 03:00:00 2.61667 C 28.8333 %
2405 11-11-2019 04:00:00 2.43333 C 29.8333 %
2406 11-11-2019 05:00:00 2.61667 C 30.0000 %
2407 11-11-2019 06:00:00 2.68333 C 29.8333 %
2408 11-11-2019 07:00:00 2.88333 C 31.0000 %
2409 11-11-2019 08:00:00 4.06667 C 22.8333 %
2410 11-11-2019 09:00:00 4.98333 C 20.0000 %
2411 11-11-2019 10:00:00 5.1 C 20.0000 %
2412 11-11-2019 11:00:00 5.73333 C 20.0000 %
2413 11-11-2019 12:00:00 6.51667 C 20.0000 %
2414 11-11-2019 13:00:00 6.75 C 20.0000 %
2415 11-11-2019 14:00:00 5.86667 C 20.0000 %
2416 11-11-2019 15:00:00 5.18333 C 20.0000 %
2417 11-11-2019 16:00:00 4.61667 C 22.1667 %
2418 11-11-2019 17:00:00 4.31667 C 23.3333 %
2419 11-11-2019 18:00:00 3.96667 C 27.1667 %
2420 11-11-2019 19:00:00 3.85 C 38.5000 %
2421 11-11-2019 20:00:00 3.86667 C 40.1667 %
2422 11-11-2019 21:00:00 4.26667 C 37.0000 %
2423 11-11-2019 22:00:00 4.38333 C 36.8333 %
2424 11-11-2019 23:00:00 4.45 C 38.6667 %
2425 12-11-2019 00:00:00 4.21667 C 39.5000 %
Sensor: Nr:Datum:Temp:Feuchte:
Aussen-T/F 2426 12-11-2019 01:00:00 4.81667 C 31.1667 %
2427 12-11-2019 02:00:00 4.93333 C 28.6667 %
2428 12-11-2019 03:00:00 4.9 C 27.0000 %
2429 12-11-2019 04:00:00 5 C 25.5000 %
2430 12-11-2019 05:00:00 4.5 C 29.6667 %
2431 12-11-2019 06:00:00 4.78333 C 27.1667 %
2432 12-11-2019 07:00:00 5.1 C 23.3333 %
2433 12-11-2019 08:00:00 5.28333 C 22.6667 %
2434 12-11-2019 09:00:00 6.7 C 20.0000 %
2435 12-11-2019 10:00:00 7.91667 C 20.0000 %
2436 12-11-2019 11:00:00 7.46667 C 20.0000 %
2437 12-11-2019 12:00:00 7.83333 C 20.0000 %
2438 12-11-2019 13:00:00 7.48333 C 20.0000 %
2439 12-11-2019 14:00:00 7.68333 C 20.0000 %
2440 12-11-2019 15:00:00 7.53333 C 20.0000 %
2441 12-11-2019 16:00:00 6.76667 C 20.0000 %
2442 12-11-2019 17:00:00 5.93333 C 20.0000 %
2443 12-11-2019 18:00:00 4.81667 C 24.5000 %
2444 12-11-2019 19:00:00 3.26667 C 30.0000 %
2445 12-11-2019 20:00:00 2.05 C 37.1667 %
2446 12-11-2019 21:00:00 2.71667 C 33.8333 %
2447 12-11-2019 22:00:00 3.95 C 28.0000 %
2448 12-11-2019 23:00:00 4.35 C 23.3333 %
2449 13-11-2019 00:00:00 4.31667 C 22.0000 %
2450 13-11-2019 01:00:00 3.43333 C 26.8333 %
Sensor: Nr:Datum:Temp:Feuchte:
Aussen-T/F 2451 13-11-2019 02:00:00 2.73333 C 28.8333 %
2452 13-11-2019 03:00:00 3.93333 C 20.6667 %
2453 13-11-2019 04:00:00 3.98333 C 20.8333 %
2454 13-11-2019 05:00:00 3.75 C 25.6667 %
2455 13-11-2019 06:00:00 3.63333 C 26.0000 %
2456 13-11-2019 07:00:00 3.61667 C 27.6667 %
2457 13-11-2019 08:00:00 4.33333 C 22.1667 %
2458 13-11-2019 09:00:00 5.33333 C 20.1667 %
2459 13-11-2019 10:00:00 5.73333 C 20.0000 %
2460 13-11-2019 11:00:00 6.03333 C 20.0000 %
2461 13-11-2019 12:00:00 6.61667 C 20.0000 %
2462 13-11-2019 13:00:00 6.51667 C 20.0000 %
2463 13-11-2019 14:00:00 6.25 C 20.0000 %
2464 13-11-2019 15:00:00 6.23333 C 20.0000 %
2465 13-11-2019 16:00:00 6.08333 C 20.0000 %
2466 13-11-2019 17:00:00 5.95 C 20.0000 %
2467 13-11-2019 18:00:00 5.76667 C 20.1667 %
2468 13-11-2019 19:00:00 5.66667 C 20.8333 %
2469 13-11-2019 20:00:00 5.78333 C 20.0000 %
2470 13-11-2019 21:00:00 4.98333 C 26.5000 %
2471 13-11-2019 22:00:00 3.95 C 31.5000 %
2472 13-11-2019 23:00:00 3.8 C 31.8333 %
2473 14-11-2019 00:00:00 4.55 C 30.3333 %
2474 14-11-2019 01:00:00 3.78333 C 36.8333 %
2475 14-11-2019 02:00:00 4.3 C 34.5000 %
Sensor: Nr:Datum:Temp:Feuchte:
Aussen-T/F 2476 14-11-2019 03:00:00 5.03333 C 29.0000 %
2477 14-11-2019 04:00:00 4.7 C 30.8333 %
2478 14-11-2019 05:00:00 3.88333 C 38.0000 %
2479 14-11-2019 06:00:00 3.88333 C 35.0000 %
2480 14-11-2019 07:00:00 4.61667 C 26.5000 %
2481 14-11-2019 08:00:00 4.46667 C 25.6667 %
2482 14-11-2019 09:00:00 5.41667 C 20.3333 %
2483 14-11-2019 10:00:00 6.65 C 20.0000 %
2484 14-11-2019 11:00:00 8.13333 C 20.0000 %
2485 14-11-2019 12:00:00 8.76667 C 20.0000 %
2486 14-11-2019 13:00:00 8.9 C 20.0000 %
2487 14-11-2019 14:00:00 8.85 C 20.0000 %
2488 14-11-2019 15:00:00 7.18333 C 20.0000 %
2489 14-11-2019 16:00:00 5.45 C 20.0000 %
2490 14-11-2019 17:00:00 4 C 20.0000 %
2491 14-11-2019 18:00:00 3.73333 C 20.0000 %
2492 14-11-2019 19:00:00 2.75 C 24.3333 %
2493 14-11-2019 20:00:00 2.36667 C 27.0000 %
2494 14-11-2019 21:00:00 1.55 C 34.8333 %
2495 14-11-2019 22:00:00 1.61667 C 38.0000 %
2496 14-11-2019 23:00:00 2.06667 C 36.5000 %
2497 15-11-2019 00:00:00 2.48333 C 34.5000 %
2498 15-11-2019 01:00:00 3.05 C 30.5000 %
2499 15-11-2019 02:00:00 2.76667 C 30.5000 %
2500 15-11-2019 03:00:00 2.46667 C 30.1667 %
Sensor: Nr:Datum:Temp:Feuchte:
Aussen-T/F 2501 15-11-2019 04:00:00 2.86667 C 27.0000 %
2502 15-11-2019 05:00:00 2.73333 C 25.5000 %
2503 15-11-2019 06:00:00 3.31667 C 20.0000 %
2504 15-11-2019 07:00:00 2.96667 C 21.6667 %
2505 15-11-2019 08:00:00 3.26667 C 20.6667 %
2506 15-11-2019 09:00:00 4.08333 C 20.1667 %
2507 15-11-2019 10:00:00 5.38333 C 20.0000 %
2508 15-11-2019 11:00:00 5.78333 C 20.0000 %
2509 15-11-2019 12:00:00 6.41667 C 20.0000 %
2510 15-11-2019 13:00:00 7.13333 C 20.0000 %
2511 15-11-2019 14:00:00 7.68333 C 20.0000 %
2512 15-11-2019 15:00:00 7.38333 C 20.0000 %
2513 15-11-2019 16:00:00 4.91667 C 21.5000 %
2514 15-11-2019 17:00:00 3.85 C 27.6667 %
2515 15-11-2019 18:00:00 4.06667 C 27.5000 %
2516 15-11-2019 19:00:00 3.7 C 31.5000 %
2517 15-11-2019 20:00:00 3.35 C 33.0000 %
2518 15-11-2019 21:00:00 3.18333 C 33.1667 %
2519 15-11-2019 22:00:00 2.65 C 38.0000 %
2520 15-11-2019 23:00:00 2.53333 C 39.0000 %
2521 16-11-2019 00:00:00 2.31667 C 40.0000 %
2522 16-11-2019 01:00:00 2.25 C 40.0000 %
2523 16-11-2019 02:00:00 2.16667 C 39.8333 %
2524 16-11-2019 03:00:00 1.55 C 40.5000 %
2525 16-11-2019 04:00:00 0.31667 C 41.0000 %
Sensor: Nr:Datum:Temp:Feuchte:
Aussen-T/F 2526 16-11-2019 05:00:00 -0.66667 C 42.0000 %
2527 16-11-2019 06:00:00 -1.16667 C 42.3333 %
2528 16-11-2019 07:00:00 -1.18333 C 42.6667 %
2529 16-11-2019 08:00:00 -0.53333 C 43.0000 %
2530 16-11-2019 09:00:00 -0.4 C 43.0000 %
2531 16-11-2019 10:00:00 0.46667 C 41.0000 %
2532 16-11-2019 11:00:00 1.61667 C 33.1667 %
2533 16-11-2019 12:00:00 2.2 C 31.8333 %
2534 16-11-2019 13:00:00 3.31667 C 34.3333 %
2535 16-11-2019 14:00:00 3.81667 C 31.6667 %
2536 16-11-2019 15:00:00 4.46667 C 28.5000 %
2537 16-11-2019 16:00:00 3.76667 C 29.1667 %
2538 16-11-2019 17:00:00 2.68333 C 35.8333 %
2539 16-11-2019 18:00:00 1.9 C 39.8333 %
2540 16-11-2019 19:00:00 1 C 41.3333 %
2541 16-11-2019 20:00:00 0.61667 C 43.3333 %
2542 16-11-2019 21:00:00 0.16667 C 42.8333 %
2543 16-11-2019 22:00:00 -0.66667 C 42.3333 %
2544 16-11-2019 23:00:00 -1.33333 C 42.0000 %
2545 17-11-2019 00:00:00 -1.71667 C 42.0000 %
2546 17-11-2019 01:00:00 -1.63333 C 41.6667 %
2547 17-11-2019 02:00:00 -0.53333 C 43.0000 %
2548 17-11-2019 03:00:00 0.26667 C 43.0000 %
2549 17-11-2019 04:00:00 0.81667 C 43.0000 %
2550 17-11-2019 05:00:00 0.83333 C 42.8333 %
Sensor: Nr:Datum:Temp:Feuchte:
Aussen-T/F 2551 17-11-2019 06:00:00 0.86667 C 42.6667 %
2552 17-11-2019 07:00:00 1.05 C 41.0000 %
2553 17-11-2019 08:00:00 1.3 C 41.1667 %
2554 17-11-2019 09:00:00 1.96667 C 41.3333 %
2555 17-11-2019 10:00:00 2.7 C 41.5000 %
2556 17-11-2019 11:00:00 3.45 C 39.1667 %
2557 17-11-2019 12:00:00 4.01667 C 37.5000 %
2558 17-11-2019 13:00:00 4.68333 C 32.8333 %
2559 17-11-2019 14:00:00 4.7 C 31.6667 %
2560 17-11-2019 15:00:00 4.13333 C 37.0000 %
2561 17-11-2019 16:00:00 3.85 C 39.1667 %
2562 17-11-2019 17:00:00 3.63333 C 40.3333 %
2563 17-11-2019 18:00:00 3.86667 C 41.3333 %
2564 17-11-2019 19:00:00 3.83333 C 40.8333 %
2565 17-11-2019 20:00:00 3.93333 C 40.6667 %
2566 17-11-2019 21:00:00 3.91667 C 40.8333 %
2567 17-11-2019 22:00:00 3.88333 C 41.0000 %
2568 17-11-2019 23:00:00 3.75 C 41.0000 %
2569 18-11-2019 00:00:00 3.5 C 39.8333 %
2570 18-11-2019 01:00:00 3.38333 C 38.5000 %
2571 18-11-2019 02:00:00 3.36667 C 40.0000 %
2572 18-11-2019 03:00:00 3.36667 C 40.3333 %
2573 18-11-2019 04:00:00 3.33333 C 40.0000 %
2574 18-11-2019 05:00:00 3.31667 C 40.3333 %
2575 18-11-2019 06:00:00 3.23333 C 41.0000 %
Sensor: Nr:Datum:Temp:Feuchte:
Aussen-T/F 2576 18-11-2019 07:00:00 3.25 C 41.0000 %
2577 18-11-2019 08:00:00 3.36667 C 41.0000 %
2578 18-11-2019 09:00:00 3.73333 C 39.5000 %
2579 18-11-2019 10:00:00 4.13333 C 35.1667 %
2580 18-11-2019 11:00:00 4.45 C 33.3333 %
2581 18-11-2019 12:00:00 4.85 C 29.6667 %
2582 18-11-2019 13:00:00 4.76667 C 30.0000 %
2583 18-11-2019 14:00:00 4.71667 C 29.6667 %
2584 18-11-2019 15:00:00 4.45 C 30.3333 %
2585 18-11-2019 16:00:00 4.11667 C 30.8333 %
2586 18-11-2019 17:00:00 4.01667 C 31.0000 %
2587 18-11-2019 18:00:00 3.7 C 34.6667 %
2588 18-11-2019 19:00:00 2.96667 C 35.3333 %
2589 18-11-2019 20:00:00 2.1 C 37.1667 %
2590 18-11-2019 21:00:00 1.58333 C 39.8333 %
2591 18-11-2019 22:00:00 2.13333 C 36.6667 %
2592 18-11-2019 23:00:00 2.56667 C 35.6667 %
2593 19-11-2019 00:00:00 2.96667 C 35.6667 %
2594 19-11-2019 01:00:00 3.26667 C 36.1667 %
2595 19-11-2019 02:00:00 3.33333 C 36.6667 %
2596 19-11-2019 03:00:00 3.43333 C 38.3333 %
2597 19-11-2019 04:00:00 3.45 C 37.0000 %
2598 19-11-2019 05:00:00 1.95 C 42.1667 %
2599 19-11-2019 06:00:00 1.85 C 42.8333 %
2600 19-11-2019 07:00:00 1.73333 C 42.1667 %
Sensor: Nr:Datum:Temp:Feuchte:
Aussen-T/F 2601 19-11-2019 08:00:00 2.61667 C 41.5000 %
2602 19-11-2019 09:00:00 3.26667 C 37.0000 %
2603 19-11-2019 10:00:00 3.25 C 37.1667 %
2604 19-11-2019 11:00:00 4.53333 C 30.8333 %
2605 19-11-2019 12:00:00 5.8 C 20.5000 %
2606 19-11-2019 13:00:00 5.88333 C 20.0000 %
2607 19-11-2019 14:00:00 6 C 20.8333 %
2608 19-11-2019 15:00:00 5.26667 C 29.1667 %
2609 19-11-2019 16:00:00 4.21667 C 36.3333 %
2610 19-11-2019 17:00:00 2.93333 C 41.3333 %
2611 19-11-2019 18:00:00 2.33333 C 41.8333 %
2612 19-11-2019 19:00:00 1.18333 C 42.0000 %
2613 19-11-2019 20:00:00 1.65 C 43.1667 %
2614 19-11-2019 21:00:00 1.93333 C 42.0000 %
2615 19-11-2019 22:00:00 1.15 C 41.3333 %
2616 19-11-2019 23:00:00 -0.38333 C 42.0000 %
2617 20-11-2019 00:00:00 -0.66667 C 42.1667 %
2618 20-11-2019 01:00:00 -0.8 C 42.5000 %
2619 20-11-2019 02:00:00 -0.43333 C 43.0000 %
2620 20-11-2019 03:00:00 -0.45 C 43.0000 %
2621 20-11-2019 04:00:00 -0.51667 C 42.3333 %
2622 20-11-2019 05:00:00 -0.28333 C 42.0000 %
2623 20-11-2019 06:00:00 0 C 42.0000 %
2624 20-11-2019 07:00:00 0.31667 C 42.0000 %
2625 20-11-2019 08:00:00 0.65 C 42.5000 %
Sensor: Nr:Datum:Temp:Feuchte:
Aussen-T/F 2626 20-11-2019 09:00:00 1.43333 C 41.8333 %
2627 20-11-2019 10:00:00 2.58333 C 39.8333 %
2628 20-11-2019 11:00:00 3.36667 C 35.6667 %
2629 20-11-2019 12:00:00 4.38333 C 28.1667 %
2630 20-11-2019 13:00:00 4.7 C 21.8333 %
2631 20-11-2019 14:00:00 4.73333 C 20.0000 %
2632 20-11-2019 15:00:00 4.36667 C 21.1667 %
2633 20-11-2019 16:00:00 1.91667 C 30.1667 %
2634 20-11-2019 17:00:00 1.2 C 35.6667 %
2635 20-11-2019 18:00:00 -0.05 C 40.6667 %
2636 20-11-2019 19:00:00 -1.21667 C 41.5000 %
2637 20-11-2019 20:00:00 -1.6 C 42.6667 %
2638 20-11-2019 21:00:00 -2.06667 C 42.0000 %
2639 20-11-2019 22:00:00 -1.98333 C 42.5000 %
2640 20-11-2019 23:00:00 -1.35 C 43.0000 %
2641 21-11-2019 00:00:00 -1.82 C 41.8000 %
2642 21-11-2019 01:00:00 -2.48333 C 40.8333 %
2643 21-11-2019 02:00:00 -2.3 C 41.3333 %
2644 21-11-2019 03:00:00 -2.06667 C 41.5000 %
2645 21-11-2019 04:00:00 -1.15 C 42.8333 %
2646 21-11-2019 05:00:00 -0.63333 C 43.0000 %
2647 21-11-2019 06:00:00 -0.28333 C 43.0000 %
2648 21-11-2019 07:00:00 -0.16667 C 43.0000 %
2649 21-11-2019 08:00:00 0.06667 C 43.0000 %
2650 21-11-2019 09:00:00 0.56667 C 42.8333 %
Sensor: Nr:Datum:Temp:Feuchte:
Aussen-T/F 2651 21-11-2019 10:00:00 1.43333 C 39.5000 %
2652 21-11-2019 11:00:00 2.46667 C 34.3333 %
2653 21-11-2019 12:00:00 2.85 C 33.8333 %
2654 21-11-2019 13:00:00 3.78333 C 31.8333 %
2655 21-11-2019 14:00:00 4.15 C 30.3333 %
2656 21-11-2019 15:00:00 4.25 C 29.6667 %
2657 21-11-2019 16:00:00 3.96667 C 34.3333 %
2658 21-11-2019 17:00:00 3.46667 C 38.8333 %
2659 21-11-2019 18:00:00 3.31667 C 39.0000 %
2660 21-11-2019 19:00:00 3.08333 C 40.1667 %
2661 21-11-2019 20:00:00 1.93333 C 41.3333 %
2662 21-11-2019 21:00:00 1.41667 C 43.0000 %
2663 21-11-2019 22:00:00 0.95 C 43.3333 %
2664 21-11-2019 23:00:00 1.25 C 43.0000 %
2665 22-11-2019 00:00:00 1.21667 C 42.6667 %
2666 22-11-2019 01:00:00 0.95 C 42.5000 %
2667 22-11-2019 02:00:00 0.56667 C 42.8333 %
2668 22-11-2019 03:00:00 0.76667 C 43.0000 %
2669 22-11-2019 04:00:00 1.2 C 42.0000 %
2670 22-11-2019 05:00:00 1.96667 C 41.5000 %
2671 22-11-2019 06:00:00 2.75 C 41.0000 %
2672 22-11-2019 07:00:00 3.18333 C 41.0000 %
2673 22-11-2019 08:00:00 3.63333 C 41.0000 %
2674 22-11-2019 09:00:00 3.8 C 39.5000 %
2675 22-11-2019 10:00:00 3.71667 C 39.3333 %
Sensor: Nr:Datum:Temp:Feuchte:
Aussen-T/F 2676 22-11-2019 11:00:00 4.78333 C 35.5000 %
2677 22-11-2019 12:00:00 5.65 C 31.8333 %
2678 22-11-2019 13:00:00 5.71667 C 29.6667 %
2679 22-11-2019 14:00:00 5.73333 C 28.1667 %
2680 22-11-2019 15:00:00 5.51667 C 28.5000 %
2681 22-11-2019 16:00:00 5.18333 C 30.1667 %
2682 22-11-2019 17:00:00 4.9 C 32.5000 %
2683 22-11-2019 18:00:00 4.81667 C 32.1667 %
2684 22-11-2019 19:00:00 4.76667 C 30.6667 %
2685 22-11-2019 20:00:00 4.51667 C 30.1667 %
2686 22-11-2019 21:00:00 4.31667 C 30.6667 %
2687 22-11-2019 22:00:00 4.18333 C 30.1667 %
2688 22-11-2019 23:00:00 4 C 29.8333 %
2689 23-11-2019 00:00:00 4 C 28.8333 %
2690 23-11-2019 01:00:00 4.08333 C 28.6667 %
2691 23-11-2019 02:00:00 3.88333 C 30.0000 %
2692 23-11-2019 03:00:00 3.58333 C 32.5000 %
2693 23-11-2019 04:00:00 3.1 C 36.5000 %
2694 23-11-2019 05:00:00 2.88333 C 39.3333 %
2695 23-11-2019 06:00:00 3.01667 C 39.5000 %
2696 23-11-2019 07:00:00 3.23333 C 39.6667 %
2697 23-11-2019 08:00:00 3.38333 C 39.3333 %
2698 23-11-2019 09:00:00 4.73333 C 31.3333 %
2699 23-11-2019 10:00:00 5.9 C 25.6667 %
2700 23-11-2019 11:00:00 6.81667 C 24.0000 %
Sensor: Nr:Datum:Temp:Feuchte:
Aussen-T/F 2701 23-11-2019 12:00:00 6.6 C 27.5000 %
2702 23-11-2019 13:00:00 6.76667 C 28.5000 %
2703 23-11-2019 14:00:00 6.98333 C 28.6667 %
2704 23-11-2019 15:00:00 8.03333 C 25.1667 %
2705 23-11-2019 16:00:00 6.7 C 27.8333 %
2706 23-11-2019 17:00:00 5.53333 C 32.1667 %
2707 23-11-2019 18:00:00 5.18333 C 34.1667 %
2708 23-11-2019 19:00:00 4.91667 C 36.1667 %
2709 23-11-2019 20:00:00 3.93333 C 40.1667 %
2710 23-11-2019 21:00:00 3.33333 C 41.6667 %
2711 23-11-2019 22:00:00 2.73333 C 42.0000 %
2712 23-11-2019 23:00:00 2.18333 C 42.0000 %
2713 24-11-2019 00:00:00 1.56667 C 42.6667 %
2714 24-11-2019 01:00:00 1.23333 C 42.8333 %
2715 24-11-2019 02:00:00 1.1 C 42.5000 %
2716 24-11-2019 03:00:00 0.91667 C 42.8333 %
2717 24-11-2019 04:00:00 0.53333 C 43.1667 %
2718 24-11-2019 05:00:00 0.85 C 42.8333 %
2719 24-11-2019 06:00:00 0.45 C 43.0000 %
2720 24-11-2019 07:00:00 0.01667 C 43.0000 %
2721 24-11-2019 08:00:00 0.2 C 43.0000 %
2722 24-11-2019 09:00:00 0.83333 C 42.6667 %
2723 24-11-2019 10:00:00 1.88333 C 41.8333 %
2724 24-11-2019 11:00:00 2.3 C 40.1667 %
2725 24-11-2019 12:00:00 3.51667 C 39.5000 %
Sensor: Nr:Datum:Temp:Feuchte:
Aussen-T/F 2726 24-11-2019 13:00:00 4.86667 C 35.5000 %
2727 24-11-2019 14:00:00 4.86667 C 36.3333 %
2728 24-11-2019 15:00:00 4.7 C 38.5000 %
2729 24-11-2019 16:00:00 3.83333 C 40.3333 %
2730 24-11-2019 17:00:00 2.68333 C 42.0000 %
2731 24-11-2019 18:00:00 2.68333 C 42.3333 %
2732 24-11-2019 19:00:00 2.65 C 42.0000 %
2733 24-11-2019 20:00:00 2.16667 C 41.5000 %
2734 24-11-2019 21:00:00 1.93333 C 42.3333 %
2735 24-11-2019 22:00:00 1.23333 C 42.0000 %
2736 24-11-2019 23:00:00 0.95 C 42.5000 %
2737 25-11-2019 00:00:00 1.21667 C 42.3333 %
2738 25-11-2019 01:00:00 1.46667 C 42.0000 %
2739 25-11-2019 02:00:00 1.33333 C 42.0000 %
2740 25-11-2019 03:00:00 1.56667 C 42.0000 %
2741 25-11-2019 04:00:00 1.95 C 41.5000 %
2742 25-11-2019 05:00:00 2.3 C 41.0000 %
2743 25-11-2019 06:00:00 2.58333 C 41.0000 %
2744 25-11-2019 07:00:00 2.8 C 41.0000 %
2745 25-11-2019 08:00:00 3.15 C 41.3333 %
2746 25-11-2019 09:00:00 3.68333 C 42.8333 %
2747 25-11-2019 10:00:00 4.73333 C 40.5000 %
2748 25-11-2019 11:00:00 5.51667 C 36.8333 %
2749 25-11-2019 12:00:00 6.38333 C 32.5000 %
2750 25-11-2019 13:00:00 6.9 C 32.1667 %
Sensor: Nr:Datum:Temp:Feuchte:
Aussen-T/F 2751 25-11-2019 14:00:00 6.83333 C 34.3333 %
2752 25-11-2019 15:00:00 6.65 C 34.3333 %
2753 25-11-2019 16:00:00 6.26667 C 36.6667 %
2754 25-11-2019 17:00:00 5.91667 C 38.5000 %
2755 25-11-2019 18:00:00 5.88333 C 39.6667 %
2756 25-11-2019 19:00:00 5.25 C 39.1667 %
2757 25-11-2019 20:00:00 5.25 C 40.6667 %
2758 25-11-2019 21:00:00 5.06667 C 39.6667 %
2759 25-11-2019 22:00:00 4.15 C 40.6667 %
2760 25-11-2019 23:00:00 3.06667 C 42.1667 %
2761 26-11-2019 00:00:00 2.51667 C 42.1667 %
2762 26-11-2019 01:00:00 3.43333 C 42.0000 %
2763 26-11-2019 02:00:00 3.9 C 41.3333 %
2764 26-11-2019 03:00:00 4.43333 C 40.6667 %
2765 26-11-2019 04:00:00 5.21667 C 40.1667 %
2766 26-11-2019 05:00:00 5.78333 C 40.0000 %
2767 26-11-2019 06:00:00 6.06667 C 39.5000 %
2768 26-11-2019 07:00:00 6.58333 C 39.3333 %
2769 26-11-2019 08:00:00 6.8 C 38.3333 %
2770 26-11-2019 09:00:00 7.78333 C 35.3333 %
2771 26-11-2019 10:00:00 9.41667 C 31.6667 %
2772 26-11-2019 11:00:00 10.53333 C 27.0000 %
2773 26-11-2019 12:00:00 10.58333 C 26.8333 %
2774 26-11-2019 13:00:00 10.75 C 26.5000 %
2775 26-11-2019 14:00:00 10.38333 C 29.0000 %
Sensor: Nr:Datum:Temp:Feuchte:
Aussen-T/F 2776 26-11-2019 15:00:00 10.81667 C 26.6667 %
2777 26-11-2019 16:00:00 9.95 C 30.0000 %
2778 26-11-2019 17:00:00 9.25 C 31.0000 %
2779 26-11-2019 18:00:00 8.93333 C 35.1667 %
2780 26-11-2019 19:00:00 9.6 C 30.3333 %
2781 26-11-2019 20:00:00 8.7 C 33.3333 %
2782 26-11-2019 21:00:00 8.5 C 36.6667 %
2783 26-11-2019 22:00:00 8.43333 C 34.8333 %
2784 26-11-2019 23:00:00 7.85 C 38.5000 %
2785 27-11-2019 00:00:00 7.65 C 39.3333 %
2786 27-11-2019 01:00:00 7.7 C 39.6667 %
2787 27-11-2019 02:00:00 7.96667 C 39.0000 %
2788 27-11-2019 03:00:00 7.36667 C 40.1667 %
2789 27-11-2019 04:00:00 7.41667 C 39.8333 %
2790 27-11-2019 05:00:00 7.66667 C 36.8333 %
2791 27-11-2019 06:00:00 7.75 C 36.6667 %
2792 27-11-2019 07:00:00 7.93333 C 34.5000 %
2793 27-11-2019 08:00:00 8.31667 C 33.5000 %
2794 27-11-2019 09:00:00 8.85 C 34.6667 %
2795 27-11-2019 10:00:00 9.61667 C 32.0000 %
2796 27-11-2019 11:00:00 11.68333 C 22.1667 %
2797 27-11-2019 12:00:00 12.73333 C 20.0000 %
2798 27-11-2019 13:00:00 12.75 C 20.0000 %
2799 27-11-2019 14:00:00 12.95 C 20.0000 %
2800 27-11-2019 15:00:00 12.63333 C 20.0000 %
Sensor: Nr:Datum:Temp:Feuchte:
Aussen-T/F 2801 27-11-2019 16:00:00 10.55 C 25.0000 %
2802 27-11-2019 17:00:00 9.7 C 31.6667 %
2803 27-11-2019 18:00:00 9.78333 C 32.0000 %
2804 27-11-2019 19:00:00 9.93333 C 32.1667 %
2805 27-11-2019 20:00:00 10.48333 C 27.3333 %
2806 27-11-2019 21:00:00 9.88333 C 31.6667 %
2807 27-11-2019 22:00:00 10.7 C 26.1667 %
2808 27-11-2019 23:00:00 11.28333 C 22.1667 %
2809 28-11-2019 00:00:00 11.28333 C 20.1667 %
2810 28-11-2019 01:00:00 11.3 C 20.0000 %
2811 28-11-2019 02:00:00 10.71667 C 20.1667 %
2812 28-11-2019 03:00:00 10.73333 C 20.0000 %
2813 28-11-2019 04:00:00 10.55 C 20.0000 %
2814 28-11-2019 05:00:00 10.25 C 20.0000 %
2815 28-11-2019 06:00:00 10.3 C 20.0000 %
2816 28-11-2019 07:00:00 10.15 C 20.0000 %
2817 28-11-2019 08:00:00 10.18333 C 20.0000 %
2818 28-11-2019 09:00:00 10.86667 C 20.0000 %
2819 28-11-2019 10:00:00 11.51667 C 20.0000 %
2820 28-11-2019 11:00:00 11.9 C 20.0000 %
2821 28-11-2019 12:00:00 11.23333 C 20.0000 %
2822 28-11-2019 13:00:00 11.6 C 20.0000 %
2823 28-11-2019 14:00:00 11.23333 C 20.0000 %
2824 28-11-2019 15:00:00 10.66667 C 20.8333 %
2825 28-11-2019 16:00:00 10.45 C 21.1667 %
Sensor: Nr:Datum:Temp:Feuchte:
Aussen-T/F 2826 28-11-2019 17:00:00 9.63333 C 27.6667 %
2827 28-11-2019 18:00:00 10.15 C 25.3333 %
2828 28-11-2019 19:00:00 9.91667 C 25.6667 %
2829 28-11-2019 20:00:00 9.93333 C 26.0000 %
2830 28-11-2019 21:00:00 9.96667 C 26.0000 %
2831 28-11-2019 22:00:00 9.56667 C 27.8333 %
2832 28-11-2019 23:00:00 9.3 C 30.3333 %
2833 29-11-2019 00:00:00 8.73333 C 35.1667 %
2834 29-11-2019 01:00:00 8.35 C 36.8333 %
2835 29-11-2019 02:00:00 8.08333 C 40.0000 %
2836 29-11-2019 03:00:00 7.83333 C 40.0000 %
2837 29-11-2019 04:00:00 7.5 C 39.6667 %
2838 29-11-2019 05:00:00 6.28333 C 34.6667 %
2839 29-11-2019 06:00:00 5.9 C 38.3333 %
2840 29-11-2019 07:00:00 5.48333 C 37.5000 %
2841 29-11-2019 08:00:00 5.1 C 39.8333 %
2842 29-11-2019 09:00:00 4.78333 C 37.5000 %
2843 29-11-2019 10:00:00 5.45 C 29.0000 %
2844 29-11-2019 11:00:00 6.36667 C 25.5000 %
2845 29-11-2019 12:00:00 7.2 C 20.1667 %
2846 29-11-2019 13:00:00 6.23333 C 23.1667 %
2847 29-11-2019 14:00:00 6.91667 C 20.0000 %
2848 29-11-2019 15:00:00 7.15 C 20.0000 %
2849 29-11-2019 16:00:00 5.8 C 20.0000 %
2850 29-11-2019 17:00:00 4.03333 C 25.8333 %
Sensor: Nr:Datum:Temp:Feuchte:
Aussen-T/F 2851 29-11-2019 18:00:00 4.71667 C 23.6667 %
2852 29-11-2019 19:00:00 4.63333 C 22.3333 %
2853 29-11-2019 20:00:00 4.15 C 25.1667 %
2854 29-11-2019 21:00:00 3.73333 C 28.0000 %
2855 29-11-2019 22:00:00 2.23333 C 35.6667 %
2856 29-11-2019 23:00:00 1.45 C 40.3333 %
2857 30-11-2019 00:00:00 1.8 C 39.0000 %
2858 30-11-2019 01:00:00 0.78333 C 41.6667 %
2859 30-11-2019 02:00:00 0.86667 C 43.8333 %
2860 30-11-2019 03:00:00 0.53333 C 43.0000 %
2861 30-11-2019 04:00:00 1.21667 C 41.0000 %
2862 30-11-2019 05:00:00 0.26667 C 40.3333 %
2863 30-11-2019 06:00:00 -1.05 C 43.1667 %
2864 30-11-2019 07:00:00 -1.33333 C 43.5000 %
2865 30-11-2019 08:00:00 -0.71667 C 44.0000 %
2866 30-11-2019 09:00:00 -0.6 C 44.0000 %
2867 30-11-2019 10:00:00 0.18333 C 43.3333 %
2868 30-11-2019 11:00:00 0.6 C 41.5000 %
2869 30-11-2019 12:00:00 1.4 C 37.6667 %
2870 30-11-2019 13:00:00 2.18333 C 36.0000 %
2871 30-11-2019 14:00:00 2.18333 C 37.5000 %
2872 30-11-2019 15:00:00 1.78333 C 40.6667 %
2873 30-11-2019 16:00:00 1.35 C 42.6667 %
2874 30-11-2019 17:00:00 0.68333 C 44.0000 %
2875 30-11-2019 18:00:00 0.36667 C 44.0000 %
Sensor: Nr:Datum:Temp:Feuchte:
Aussen-T/F 2876 30-11-2019 19:00:00 0 C 44.0000 %
2877 30-11-2019 20:00:00 -0.25 C 44.0000 %
2878 30-11-2019 21:00:00 -0.28333 C 44.0000 %
2879 30-11-2019 22:00:00 -0.16667 C 44.0000 %
2880 30-11-2019 23:00:00 -0.23333 C 43.5000 %
2881 01-12-2019 00:00:00 -0.26667 C 43.0000 %
2882 01-12-2019 01:00:00 -0.1 C 43.1667 %
2883 01-12-2019 02:00:00 -0.2 C 43.0000 %
2884 01-12-2019 03:00:00 -0.36667 C 43.0000 %
2885 01-12-2019 04:00:00 -0.9 C 42.5000 %
2886 01-12-2019 05:00:00 -0.9 C 43.0000 %
2887 01-12-2019 06:00:00 -1.03333 C 43.0000 %
2888 01-12-2019 07:00:00 -0.5 C 43.0000 %
2889 01-12-2019 08:00:00 -0.13333 C 43.0000 %
2890 01-12-2019 09:00:00 0.15 C 41.6667 %
2891 01-12-2019 10:00:00 0.78333 C 39.3333 %
2892 01-12-2019 11:00:00 2.33333 C 29.8333 %
2893 01-12-2019 12:00:00 3.23333 C 20.1667 %
2894 01-12-2019 13:00:00 3.51667 C 20.0000 %
2895 01-12-2019 14:00:00 3.73333 C 20.0000 %
2896 01-12-2019 15:00:00 3.11667 C 21.1667 %
2897 01-12-2019 16:00:00 2.38333 C 25.0000 %
2898 01-12-2019 17:00:00 2.26667 C 25.0000 %
2899 01-12-2019 18:00:00 2.3 C 24.6667 %
2900 01-12-2019 19:00:00 2.3 C 24.8333 %
Sensor: Nr:Datum:Temp:Feuchte:
Aussen-T/F 2901 01-12-2019 20:00:00 2.16667 C 25.3333 %
2902 01-12-2019 21:00:00 1.66667 C 28.3333 %
2903 01-12-2019 22:00:00 1.31667 C 29.0000 %
2904 01-12-2019 23:00:00 0.55 C 31.3333 %
2905 02-12-2019 00:00:00 0.21667 C 32.8333 %
2906 02-12-2019 01:00:00 -0.16667 C 35.6667 %
2907 02-12-2019 02:00:00 -0.91667 C 36.6667 %
2908 02-12-2019 03:00:00 -1.26667 C 37.3333 %
2909 02-12-2019 04:00:00 -1.18333 C 38.6667 %
2910 02-12-2019 05:00:00 -1.33333 C 40.3333 %
2911 02-12-2019 06:00:00 -1.38333 C 39.0000 %
2912 02-12-2019 07:00:00 -2.6 C 40.8333 %
2913 02-12-2019 08:00:00 -1.16667 C 43.5000 %
2914 02-12-2019 09:00:00 -0.28333 C 36.8333 %
2915 02-12-2019 10:00:00 0.45 C 33.6667 %
2916 02-12-2019 11:00:00 1.03333 C 30.6667 %
2917 02-12-2019 12:00:00 2.66667 C 26.6667 %
2918 02-12-2019 13:00:00 3.65 C 25.1667 %
2919 02-12-2019 14:00:00 4.05 C 27.5000 %
2920 02-12-2019 15:00:00 4.28333 C 29.6667 %
2921 02-12-2019 16:00:00 3.55 C 37.0000 %
2922 02-12-2019 17:00:00 3.28333 C 36.1667 %
2923 02-12-2019 18:00:00 2.86667 C 37.5000 %
2924 02-12-2019 19:00:00 2.66667 C 42.0000 %
2925 02-12-2019 20:00:00 2.83333 C 39.0000 %
Sensor: Nr:Datum:Temp:Feuchte:
Aussen-T/F 2926 02-12-2019 21:00:00 2.66667 C 41.8333 %
2927 02-12-2019 22:00:00 2.53333 C 40.8333 %
2928 02-12-2019 23:00:00 2.48333 C 41.8333 %
2929 03-12-2019 00:00:00 2.53333 C 41.3333 %
2930 03-12-2019 01:00:00 2.66667 C 41.3333 %
2931 03-12-2019 02:00:00 2.8 C 42.0000 %
2932 03-12-2019 03:00:00 2.88333 C 42.0000 %
2933 03-12-2019 04:00:00 3.05 C 42.0000 %
2934 03-12-2019 05:00:00 3.15 C 41.6667 %
2935 03-12-2019 06:00:00 3.25 C 41.0000 %
2936 03-12-2019 07:00:00 3.28333 C 41.1667 %
2937 03-12-2019 08:00:00 3.36667 C 41.6667 %
2938 03-12-2019 09:00:00 3.56667 C 41.3333 %
2939 03-12-2019 10:00:00 3.88333 C 40.6667 %
2940 03-12-2019 11:00:00 4.48333 C 37.3333 %
2941 03-12-2019 12:00:00 5.01667 C 35.0000 %
2942 03-12-2019 13:00:00 5.81667 C 32.3333 %
2943 03-12-2019 14:00:00 6.21667 C 30.8333 %
2944 03-12-2019 15:00:00 6.18333 C 31.3333 %
2945 03-12-2019 16:00:00 5.4 C 39.6667 %
2946 03-12-2019 17:00:00 5.05 C 41.0000 %
2947 03-12-2019 18:00:00 4.71667 C 40.1667 %
2948 03-12-2019 19:00:00 4.53333 C 38.3333 %
2949 03-12-2019 20:00:00 4.16667 C 38.5000 %
2950 03-12-2019 21:00:00 3.75 C 40.1667 %
Sensor: Nr:Datum:Temp:Feuchte:
Aussen-T/F 2951 03-12-2019 22:00:00 3.08333 C 40.8333 %
2952 03-12-2019 23:00:00 2.53333 C 39.8333 %
2953 04-12-2019 00:00:00 1.2 C 42.1667 %
2954 04-12-2019 01:00:00 0.01667 C 44.6667 %
2955 04-12-2019 02:00:00 -0.16667 C 45.0000 %
2956 04-12-2019 03:00:00 0.9 C 44.5000 %
2957 04-12-2019 04:00:00 0.81667 C 45.0000 %
2958 04-12-2019 05:00:00 0.9 C 43.6667 %
2959 04-12-2019 06:00:00 1.15 C 43.0000 %
2960 04-12-2019 07:00:00 1.03333 C 43.1667 %
2961 04-12-2019 08:00:00 0.93333 C 43.3333 %
2962 04-12-2019 09:00:00 1.2 C 41.5000 %
2963 04-12-2019 10:00:00 1.23333 C 38.3333 %
2964 04-12-2019 11:00:00 1.06667 C 39.5000 %
2965 04-12-2019 12:00:00 1.4 C 41.0000 %
2966 04-12-2019 13:00:00 1.85 C 39.5000 %
2967 04-12-2019 14:00:00 2.1 C 36.0000 %
2968 04-12-2019 15:00:00 1.78333 C 38.8333 %
2969 04-12-2019 16:00:00 1.36667 C 36.8333 %
2970 04-12-2019 17:00:00 0.86667 C 37.5000 %
2971 04-12-2019 18:00:00 0.23333 C 39.6667 %
2972 04-12-2019 19:00:00 -0.95 C 43.1667 %
2973 04-12-2019 20:00:00 -1.51667 C 44.0000 %
2974 04-12-2019 21:00:00 -2.06667 C 43.3333 %
2975 04-12-2019 22:00:00 -2.63333 C 43.1667 %
Sensor: Nr:Datum:Temp:Feuchte:
Aussen-T/F 2976 04-12-2019 23:00:00 -2.78333 C 41.8333 %
2977 05-12-2019 00:00:00 -2.93333 C 41.0000 %
2978 05-12-2019 01:00:00 -2.75 C 42.3333 %
2979 05-12-2019 02:00:00 -3 C 41.1667 %
2980 05-12-2019 03:00:00 -3.33333 C 40.8333 %
2981 05-12-2019 04:00:00 -2.86667 C 42.1667 %
2982 05-12-2019 05:00:00 -2.66667 C 42.8333 %
2983 05-12-2019 06:00:00 -2.83333 C 42.8333 %
2984 05-12-2019 07:00:00 -2.98333 C 42.0000 %
2985 05-12-2019 08:00:00 -2.91667 C 42.1667 %
2986 05-12-2019 09:00:00 -2.56667 C 42.5000 %
2987 05-12-2019 10:00:00 -2.03333 C 42.3333 %
2988 05-12-2019 11:00:00 -1.18333 C 41.8333 %
2989 05-12-2019 12:00:00 -0.78333 C 40.6667 %
2990 05-12-2019 13:00:00 -0.33333 C 40.5000 %
2991 05-12-2019 14:00:00 0.18333 C 40.1667 %
2992 05-12-2019 15:00:00 -0.05 C 42.5000 %
2993 05-12-2019 16:00:00 -0.73333 C 44.1667 %
2994 05-12-2019 17:00:00 -1.35 C 44.3333 %
2995 05-12-2019 18:00:00 -2.08333 C 42.8333 %
2996 05-12-2019 19:00:00 -2.36667 C 42.5000 %
2997 05-12-2019 20:00:00 -1.76667 C 42.6667 %
2998 05-12-2019 21:00:00 -2.16667 C 42.6667 %
2999 05-12-2019 22:00:00 -2.31667 C 42.0000 %
3000 05-12-2019 23:00:00 -2.93333 C 41.3333 %
Sensor: Nr:Datum:Temp:Feuchte:
Aussen-T/F 3001 06-12-2019 00:00:00 -3.23333 C 41.5000 %
3002 06-12-2019 01:00:00 -1.91667 C 42.5000 %
3003 06-12-2019 02:00:00 -1.53333 C 40.1667 %
3004 06-12-2019 03:00:00 -1.11667 C 38.0000 %
3005 06-12-2019 04:00:00 -1.13333 C 37.8333 %
3006 06-12-2019 05:00:00 -0.85 C 37.0000 %
3007 06-12-2019 06:00:00 -0.5 C 35.8333 %
3008 06-12-2019 07:00:00 -0.05 C 35.8333 %
3009 06-12-2019 08:00:00 0.46667 C 33.5000 %
3010 06-12-2019 09:00:00 1.2 C 34.1667 %
3011 06-12-2019 10:00:00 2.05 C 35.0000 %
3012 06-12-2019 11:00:00 3.28333 C 32.6667 %
3013 06-12-2019 12:00:00 3.65 C 36.1667 %
3014 06-12-2019 13:00:00 4.03333 C 36.5000 %
3015 06-12-2019 14:00:00 4.25 C 38.6667 %
3016 06-12-2019 15:00:00 4.5 C 37.1667 %
3017 06-12-2019 16:00:00 5.1 C 33.1667 %
3018 06-12-2019 17:00:00 5.4 C 30.1667 %
3019 06-12-2019 18:00:00 6.03333 C 28.8333 %
3020 06-12-2019 19:00:00 6.08333 C 30.0000 %
3021 06-12-2019 20:00:00 6.73333 C 28.0000 %
3022 06-12-2019 21:00:00 6.63333 C 28.0000 %
3023 06-12-2019 22:00:00 6.75 C 28.0000 %
3024 06-12-2019 23:00:00 6.86667 C 28.6667 %
3025 07-12-2019 00:00:00 7.15 C 28.3333 %
Sensor: Nr:Datum:Temp:Feuchte:
Aussen-T/F 3026 07-12-2019 01:00:00 7.61667 C 28.3333 %
3027 07-12-2019 02:00:00 7.38333 C 33.3333 %
3028 07-12-2019 03:00:00 8.26667 C 30.3333 %
3029 07-12-2019 04:00:00 8.13333 C 29.6667 %
3030 07-12-2019 05:00:00 7.81667 C 30.3333 %
3031 07-12-2019 06:00:00 8.11667 C 26.8333 %
3032 07-12-2019 07:00:00 7.01667 C 29.0000 %
3033 07-12-2019 08:00:00 8.13333 C 27.5000 %
3034 07-12-2019 09:00:00 8.31667 C 27.8333 %
3035 07-12-2019 10:00:00 8.96667 C 26.0000 %
3036 07-12-2019 11:00:00 8.53333 C 28.8333 %
3037 07-12-2019 12:00:00 9.21667 C 25.6667 %
3038 07-12-2019 13:00:00 9.85 C 20.5000 %
3039 07-12-2019 14:00:00 9.85 C 20.0000 %
3040 07-12-2019 15:00:00 9.65 C 21.0000 %
3041 07-12-2019 16:00:00 8.66667 C 25.6667 %
3042 07-12-2019 17:00:00 8.16667 C 27.8333 %
3043 07-12-2019 18:00:00 7.78333 C 28.6667 %
3044 07-12-2019 19:00:00 7.58333 C 30.8333 %
3045 07-12-2019 20:00:00 7.43333 C 30.3333 %
3046 07-12-2019 21:00:00 7.88333 C 28.6667 %
3047 07-12-2019 22:00:00 7.81667 C 29.0000 %
3048 07-12-2019 23:00:00 7.61667 C 31.0000 %
3049 08-12-2019 00:00:00 8.71667 C 23.3333 %
3050 08-12-2019 01:00:00 8.68333 C 24.3333 %
Sensor: Nr:Datum:Temp:Feuchte:
Aussen-T/F 3051 08-12-2019 02:00:00 9.05 C 20.0000 %
3052 08-12-2019 03:00:00 9.2 C 20.0000 %
3053 08-12-2019 04:00:00 9.58333 C 20.0000 %
3054 08-12-2019 05:00:00 9.45 C 22.1667 %
3055 08-12-2019 06:00:00 9.68333 C 23.6667 %
3056 08-12-2019 07:00:00 10.01667 C 20.5000 %
3057 08-12-2019 08:00:00 10.16667 C 20.5000 %
3058 08-12-2019 09:00:00 10.28333 C 21.0000 %
3059 08-12-2019 10:00:00 10.36667 C 22.6667 %
3060 08-12-2019 11:00:00 10.75 C 23.0000 %
3061 08-12-2019 12:00:00 11.31667 C 22.5000 %
3062 08-12-2019 13:00:00 11.36667 C 24.3333 %
3063 08-12-2019 14:00:00 11.6 C 25.0000 %
3064 08-12-2019 15:00:00 11.76667 C 25.0000 %
3065 08-12-2019 16:00:00 11.26667 C 26.5000 %
3066 08-12-2019 17:00:00 8.76667 C 32.1667 %
3067 08-12-2019 18:00:00 8.48333 C 30.3333 %
3068 08-12-2019 19:00:00 8.38333 C 29.0000 %
3069 08-12-2019 20:00:00 8.2 C 30.3333 %
3070 08-12-2019 21:00:00 8.6 C 25.8333 %
3071 08-12-2019 22:00:00 8.43333 C 26.0000 %
3072 08-12-2019 23:00:00 8.65 C 24.5000 %
3073 09-12-2019 00:00:00 8.41667 C 20.5000 %
3074 09-12-2019 01:00:00 8.25 C 20.0000 %
3075 09-12-2019 02:00:00 7.46667 C 20.8333 %
Sensor: Nr:Datum:Temp:Feuchte:
Aussen-T/F 3076 09-12-2019 03:00:00 7.31667 C 20.6667 %
3077 09-12-2019 04:00:00 7.51667 C 21.0000 %
3078 09-12-2019 05:00:00 7.25 C 20.8333 %
3079 09-12-2019 06:00:00 7.55 C 20.0000 %
3080 09-12-2019 07:00:00 7.43333 C 20.0000 %
3081 09-12-2019 08:00:00 7.9 C 20.0000 %
3082 09-12-2019 09:00:00 7.63333 C 20.8333 %
3083 09-12-2019 10:00:00 7.93333 C 20.6667 %
3084 09-12-2019 11:00:00 8.23333 C 20.0000 %
3085 09-12-2019 12:00:00 8.18333 C 20.0000 %
3086 09-12-2019 13:00:00 8.36667 C 20.0000 %
3087 09-12-2019 14:00:00 8.4 C 20.0000 %
3088 09-12-2019 15:00:00 7.3 C 24.3333 %
3089 09-12-2019 16:00:00 7.43333 C 20.0000 %
3090 09-12-2019 17:00:00 6.5 C 27.8333 %
3091 09-12-2019 18:00:00 5.88333 C 34.0000 %
3092 09-12-2019 19:00:00 5.58333 C 37.5000 %
3093 09-12-2019 20:00:00 5.51667 C 33.8333 %
3094 09-12-2019 21:00:00 5.15 C 32.6667 %
3095 09-12-2019 22:00:00 4.81667 C 30.5000 %
3096 09-12-2019 23:00:00 4.23333 C 29.3333 %
3097 10-12-2019 00:00:00 3.48333 C 30.0000 %
3098 10-12-2019 01:00:00 2.48333 C 34.3333 %
3099 10-12-2019 02:00:00 2.21667 C 34.8333 %
3100 10-12-2019 03:00:00 1.7 C 40.6667 %
Sensor: Nr:Datum:Temp:Feuchte:
Aussen-T/F 3101 10-12-2019 04:00:00 0.86667 C 43.3333 %
3102 10-12-2019 05:00:00 1.81667 C 37.6667 %
3103 10-12-2019 06:00:00 1.28333 C 38.5000 %
3104 10-12-2019 07:00:00 1.21667 C 39.1667 %
3105 10-12-2019 08:00:00 0.55 C 41.8333 %
3106 10-12-2019 09:00:00 1.05 C 41.6667 %
3107 10-12-2019 10:00:00 2.5 C 34.1667 %
3108 10-12-2019 11:00:00 2.63333 C 33.8333 %
3109 10-12-2019 12:00:00 4.01667 C 29.0000 %
3110 10-12-2019 13:00:00 4.83333 C 26.3333 %
3111 10-12-2019 14:00:00 3.96667 C 29.1667 %
3112 10-12-2019 15:00:00 3.2 C 30.8333 %
3113 10-12-2019 16:00:00 3.16667 C 29.1667 %
3114 10-12-2019 17:00:00 2.65 C 27.1667 %
3115 10-12-2019 18:00:00 1.83333 C 32.0000 %
3116 10-12-2019 19:00:00 1.58333 C 35.8333 %
3117 10-12-2019 20:00:00 2.46667 C 30.1667 %
3118 10-12-2019 21:00:00 2.08333 C 33.0000 %
3119 10-12-2019 22:00:00 2.3 C 33.5000 %
3120 10-12-2019 23:00:00 3.06667 C 29.8333 %
3121 11-12-2019 00:00:00 3.36667 C 28.3333 %
3122 11-12-2019 01:00:00 3.33333 C 28.5000 %
3123 11-12-2019 02:00:00 2.91667 C 32.1667 %
3124 11-12-2019 03:00:00 2.96667 C 32.1667 %
3125 11-12-2019 04:00:00 2.75 C 36.6667 %
Sensor: Nr:Datum:Temp:Feuchte:
Aussen-T/F 3126 11-12-2019 05:00:00 2.63333 C 41.1667 %
3127 11-12-2019 06:00:00 2.5 C 44.0000 %
3128 11-12-2019 07:00:00 2.41667 C 43.6667 %
3129 11-12-2019 08:00:00 2.35 C 43.0000 %
3130 11-12-2019 09:00:00 2.45 C 43.0000 %
3131 11-12-2019 10:00:00 2.76667 C 41.8333 %
3132 11-12-2019 11:00:00 3.11667 C 38.6667 %
3133 11-12-2019 12:00:00 3.11667 C 39.5000 %
3134 11-12-2019 13:00:00 3.2 C 40.0000 %
3135 11-12-2019 14:00:00 3.25 C 41.3333 %
3136 11-12-2019 15:00:00 3.31667 C 42.0000 %
3137 11-12-2019 16:00:00 3.16667 C 42.0000 %
3138 11-12-2019 17:00:00 3.11667 C 42.3333 %
3139 11-12-2019 18:00:00 3.35 C 43.0000 %
3140 11-12-2019 19:00:00 3.53333 C 42.0000 %
3141 11-12-2019 20:00:00 3.81667 C 41.8333 %
3142 11-12-2019 21:00:00 4.25 C 37.6667 %
3143 11-12-2019 22:00:00 3.9 C 37.5000 %
3144 11-12-2019 23:00:00 3.43333 C 41.0000 %
3145 12-12-2019 00:00:00 2.65 C 42.8333 %
3146 12-12-2019 01:00:00 2.48333 C 43.3333 %
3147 12-12-2019 02:00:00 1.78333 C 43.6667 %
3148 12-12-2019 03:00:00 2.46667 C 43.0000 %
3149 12-12-2019 04:00:00 2.7 C 42.8333 %
3150 12-12-2019 05:00:00 2.1 C 42.0000 %
Sensor: Nr:Datum:Temp:Feuchte:
Aussen-T/F 3151 12-12-2019 06:00:00 2.18333 C 42.3333 %
3152 12-12-2019 07:00:00 2.95 C 42.0000 %
3153 12-12-2019 08:00:00 3.25 C 42.0000 %
3154 12-12-2019 09:00:00 3.68333 C 41.6667 %
3155 12-12-2019 10:00:00 4.4 C 36.0000 %
3156 12-12-2019 11:00:00 4.61667 C 31.0000 %
3157 12-12-2019 12:00:00 4.88333 C 27.3333 %
3158 12-12-2019 13:00:00 4.63333 C 26.3333 %
3159 12-12-2019 14:00:00 4.48333 C 25.3333 %
3160 12-12-2019 15:00:00 3.8 C 27.6667 %
3161 12-12-2019 16:00:00 3.43333 C 27.5000 %
3162 12-12-2019 17:00:00 1.41667 C 36.6667 %
3163 12-12-2019 18:00:00 0.98333 C 40.3333 %
3164 12-12-2019 19:00:00 0.65 C 41.5000 %
3165 12-12-2019 20:00:00 0.71667 C 41.1667 %
3166 12-12-2019 21:00:00 1.25 C 36.1667 %
3167 12-12-2019 22:00:00 0.56667 C 38.3333 %
3168 12-12-2019 23:00:00 1.5 C 33.0000 %
3169 13-12-2019 00:00:00 0.9 C 33.6667 %
3170 13-12-2019 01:00:00 1.9 C 28.0000 %
3171 13-12-2019 02:00:00 1.98333 C 27.3333 %
3172 13-12-2019 03:00:00 1.7 C 30.0000 %
3173 13-12-2019 04:00:00 1.51667 C 32.3333 %
3174 13-12-2019 05:00:00 1.6 C 33.5000 %
3175 13-12-2019 06:00:00 1.9 C 33.0000 %
Sensor: Nr:Datum:Temp:Feuchte:
Aussen-T/F 3176 13-12-2019 07:00:00 1.8 C 38.5000 %
3177 13-12-2019 08:00:00 1.71667 C 40.0000 %
3178 13-12-2019 09:00:00 1.83333 C 41.1667 %
3179 13-12-2019 10:00:00 2.08333 C 41.6667 %
3180 13-12-2019 11:00:00 2.45 C 40.8333 %
3181 13-12-2019 12:00:00 3.31667 C 38.6667 %
3182 13-12-2019 13:00:00 4.96667 C 35.8333 %
3183 13-12-2019 14:00:00 6.73333 C 28.6667 %
3184 13-12-2019 15:00:00 6 C 30.0000 %
3185 13-12-2019 16:00:00 5.06667 C 30.3333 %
3186 13-12-2019 17:00:00 4.31667 C 32.6667 %
3187 13-12-2019 18:00:00 3.8 C 38.3333 %
3188 13-12-2019 19:00:00 4.08333 C 34.6667 %
3189 13-12-2019 20:00:00 4.66667 C 31.5000 %
3190 13-12-2019 21:00:00 4.36667 C 34.1667 %
3191 13-12-2019 22:00:00 4.36667 C 31.8333 %
3192 13-12-2019 23:00:00 5 C 29.5000 %
3193 14-12-2019 00:00:00 4.6 C 30.8333 %
3194 14-12-2019 01:00:00 5.25 C 26.0000 %
3195 14-12-2019 02:00:00 4.68333 C 28.6667 %
3196 14-12-2019 03:00:00 3.96667 C 36.3333 %
3197 14-12-2019 04:00:00 3.61667 C 41.5000 %
3198 14-12-2019 05:00:00 3.4 C 42.0000 %
3199 14-12-2019 06:00:00 4.48333 C 40.3333 %
3200 14-12-2019 07:00:00 5.95 C 36.1667 %
Sensor: Nr:Datum:Temp:Feuchte:
Aussen-T/F 3201 14-12-2019 08:00:00 6.95 C 27.3333 %
3202 14-12-2019 09:00:00 6.66667 C 21.8333 %
3203 14-12-2019 10:00:00 6.48333 C 24.8333 %
3204 14-12-2019 11:00:00 6.43333 C 25.5000 %
3205 14-12-2019 12:00:00 7.31667 C 20.0000 %
3206 14-12-2019 13:00:00 8.23333 C 20.0000 %
3207 14-12-2019 14:00:00 8.56667 C 20.0000 %
3208 14-12-2019 15:00:00 6.88333 C 27.1667 %
3209 14-12-2019 16:00:00 7.18333 C 25.6667 %
3210 14-12-2019 17:00:00 7.3 C 25.6667 %
3211 14-12-2019 18:00:00 7.36667 C 25.5000 %
3212 14-12-2019 19:00:00 6.36667 C 26.1667 %
3213 14-12-2019 20:00:00 6.48333 C 25.6667 %
3214 14-12-2019 21:00:00 6.95 C 25.5000 %
3215 14-12-2019 22:00:00 7.06667 C 25.5000 %
3216 14-12-2019 23:00:00 7.13333 C 25.3333 %
3217 15-12-2019 00:00:00 5.6 C 30.0000 %
3218 15-12-2019 01:00:00 5.48333 C 31.8333 %
3219 15-12-2019 02:00:00 5.83333 C 34.3333 %
3220 15-12-2019 03:00:00 6.08333 C 41.3333 %
3221 15-12-2019 04:00:00 7.46667 C 40.6667 %
3222 15-12-2019 05:00:00 9 C 34.3333 %
3223 15-12-2019 06:00:00 10.45 C 28.1667 %
3224 15-12-2019 07:00:00 10.58333 C 27.0000 %
3225 15-12-2019 08:00:00 10.48333 C 28.1667 %
Sensor: Nr:Datum:Temp:Feuchte:
Aussen-T/F 3226 15-12-2019 09:00:00 8.58333 C 34.5000 %
3227 15-12-2019 10:00:00 8.3 C 32.3333 %
3228 15-12-2019 11:00:00 8.48333 C 28.5000 %
3229 15-12-2019 12:00:00 8.16667 C 27.8333 %
3230 15-12-2019 13:00:00 9.11667 C 22.6667 %
3231 15-12-2019 14:00:00 9.16667 C 20.0000 %
3232 15-12-2019 15:00:00 8.83333 C 20.0000 %
3233 15-12-2019 16:00:00 8.08333 C 20.0000 %
3234 15-12-2019 17:00:00 7.51667 C 20.1667 %
3235 15-12-2019 18:00:00 7.03333 C 23.5000 %
3236 15-12-2019 19:00:00 5.21667 C 31.8333 %
3237 15-12-2019 20:00:00 4.36667 C 36.6667 %
3238 15-12-2019 21:00:00 3.15 C 41.8333 %
3239 15-12-2019 22:00:00 3.38333 C 43.1667 %
3240 15-12-2019 23:00:00 3.56667 C 42.6667 %
3241 16-12-2019 00:00:00 4.41667 C 42.0000 %
3242 16-12-2019 01:00:00 5.21667 C 41.5000 %
3243 16-12-2019 02:00:00 5.66667 C 41.8333 %
3244 16-12-2019 03:00:00 5.88333 C 41.0000 %
3245 16-12-2019 04:00:00 6.08333 C 41.0000 %
3246 16-12-2019 05:00:00 6.55 C 41.0000 %
3247 16-12-2019 06:00:00 6.81667 C 40.3333 %
3248 16-12-2019 07:00:00 6.85 C 40.3333 %
3249 16-12-2019 08:00:00 7.1 C 40.0000 %
3250 16-12-2019 09:00:00 7.46667 C 40.0000 %
Sensor: Nr:Datum:Temp:Feuchte:
Aussen-T/F 3251 16-12-2019 10:00:00 7.88333 C 40.0000 %
3252 16-12-2019 11:00:00 8.83333 C 39.5000 %
3253 16-12-2019 12:00:00 9.41667 C 37.5000 %
3254 16-12-2019 13:00:00 10.08333 C 35.0000 %
3255 16-12-2019 14:00:00 10.16667 C 33.8333 %
3256 16-12-2019 15:00:00 9.45 C 37.0000 %
3257 16-12-2019 16:00:00 8.25 C 40.3333 %
3258 16-12-2019 17:00:00 7.28333 C 41.0000 %
3259 16-12-2019 18:00:00 7.83333 C 39.6667 %
3260 16-12-2019 19:00:00 8.08333 C 37.0000 %
3261 16-12-2019 20:00:00 7.9 C 36.8333 %
3262 16-12-2019 21:00:00 7.15 C 39.1667 %
3263 16-12-2019 22:00:00 7.46667 C 38.1667 %
3264 16-12-2019 23:00:00 7.51667 C 39.1667 %
3265 17-12-2019 00:00:00 7.43333 C 38.5000 %
3266 17-12-2019 01:00:00 7.41667 C 38.3333 %
3267 17-12-2019 02:00:00 7.41667 C 36.6667 %
3268 17-12-2019 03:00:00 8.5 C 33.5000 %
3269 17-12-2019 04:00:00 8.35 C 32.1667 %
3270 17-12-2019 05:00:00 8.18333 C 34.0000 %
3271 17-12-2019 06:00:00 7.51667 C 37.0000 %
3272 17-12-2019 07:00:00 7.4 C 36.6667 %
3273 17-12-2019 08:00:00 6.96667 C 37.1667 %
3274 17-12-2019 09:00:00 6.45 C 39.3333 %
3275 17-12-2019 10:00:00 6.86667 C 38.6667 %
Sensor: Nr:Datum:Temp:Feuchte:
Aussen-T/F 3276 17-12-2019 11:00:00 8.81667 C 32.3333 %
3277 17-12-2019 12:00:00 9.46667 C 32.8333 %
3278 17-12-2019 13:00:00 11 C 29.0000 %
3279 17-12-2019 14:00:00 11.86667 C 26.6667 %
3280 17-12-2019 15:00:00 12.01667 C 26.0000 %
3281 17-12-2019 16:00:00 12.31667 C 25.0000 %
3282 17-12-2019 17:00:00 12.5 C 22.5000 %
3283 17-12-2019 18:00:00 13.28333 C 21.0000 %
3284 17-12-2019 19:00:00 12.26667 C 26.6667 %
3285 17-12-2019 20:00:00 11.36667 C 32.6667 %
3286 17-12-2019 21:00:00 10.81667 C 35.5000 %
3287 17-12-2019 22:00:00 13.05 C 25.1667 %
3288 17-12-2019 23:00:00 11.41667 C 29.8333 %
3289 18-12-2019 00:00:00 10.7 C 32.3333 %
3290 18-12-2019 01:00:00 10.83333 C 29.6667 %
3291 18-12-2019 02:00:00 11.08333 C 29.8333 %
3292 18-12-2019 03:00:00 10.23333 C 36.3333 %
3293 18-12-2019 04:00:00 9.68333 C 35.1667 %
3294 18-12-2019 05:00:00 8.7 C 35.3333 %
3295 18-12-2019 06:00:00 7.81667 C 37.6667 %
3296 18-12-2019 07:00:00 7.1 C 40.0000 %
3297 18-12-2019 08:00:00 6.5 C 41.3333 %
3298 18-12-2019 09:00:00 6.45 C 41.1667 %
3299 18-12-2019 10:00:00 7.23333 C 38.0000 %
3300 18-12-2019 11:00:00 6.9 C 37.6667 %
Sensor: Nr:Datum:Temp:Feuchte:
Aussen-T/F 3301 18-12-2019 12:00:00 8.41667 C 30.6667 %
3302 18-12-2019 13:00:00 7.96667 C 31.3333 %
3303 18-12-2019 14:00:00 7.45 C 34.1667 %
3304 18-12-2019 15:00:00 6.9 C 36.1667 %
3305 18-12-2019 16:00:00 6.16667 C 36.6667 %
3306 18-12-2019 17:00:00 4.65 C 40.8333 %
3307 18-12-2019 18:00:00 4.33333 C 42.8333 %
3308 18-12-2019 19:00:00 4.7 C 42.1667 %
3309 18-12-2019 20:00:00 4.5 C 41.3333 %
3310 18-12-2019 21:00:00 3.6 C 42.8333 %
3311 18-12-2019 22:00:00 2.73333 C 43.0000 %
3312 18-12-2019 23:00:00 2.16667 C 43.0000 %
3313 19-12-2019 00:00:00 2.18333 C 43.3333 %
3314 19-12-2019 01:00:00 1.98333 C 43.3333 %
3315 19-12-2019 02:00:00 2.01667 C 43.1667 %
3316 19-12-2019 03:00:00 1.65 C 44.0000 %
3317 19-12-2019 04:00:00 1.51667 C 44.0000 %
3318 19-12-2019 05:00:00 1.33333 C 44.0000 %
3319 19-12-2019 06:00:00 1.01667 C 44.0000 %
3320 19-12-2019 07:00:00 2.23333 C 43.3333 %
3321 19-12-2019 08:00:00 4 C 41.5000 %
3322 19-12-2019 09:00:00 4.33333 C 41.0000 %
3323 19-12-2019 10:00:00 5.95 C 40.5000 %
3324 19-12-2019 11:00:00 6.45 C 39.6667 %
3325 19-12-2019 12:00:00 6.85 C 39.5000 %
Sensor: Nr:Datum:Temp:Feuchte:
Aussen-T/F 3326 19-12-2019 13:00:00 7.23333 C 38.5000 %
3327 19-12-2019 14:00:00 7.31667 C 37.5000 %
3328 19-12-2019 15:00:00 8.45 C 32.1667 %
3329 19-12-2019 16:00:00 8.08333 C 31.1667 %
3330 19-12-2019 17:00:00 5.75 C 37.1667 %
3331 19-12-2019 18:00:00 5.18333 C 41.6667 %
3332 19-12-2019 19:00:00 5 C 41.0000 %
3333 19-12-2019 20:00:00 5.31667 C 41.0000 %
3334 19-12-2019 21:00:00 5.8 C 39.3333 %
3335 19-12-2019 22:00:00 5.6 C 40.1667 %
3336 19-12-2019 23:00:00 5.38333 C 42.0000 %
3337 20-12-2019 00:00:00 4.01667 C 42.0000 %
3338 20-12-2019 01:00:00 3.06667 C 43.1667 %
3339 20-12-2019 02:00:00 3.05 C 44.0000 %
3340 20-12-2019 03:00:00 4.48333 C 40.8333 %
3341 20-12-2019 04:00:00 4.43333 C 40.6667 %
3342 20-12-2019 05:00:00 5.23333 C 36.6667 %
3343 20-12-2019 06:00:00 5.63333 C 33.3333 %
3344 20-12-2019 07:00:00 6.15 C 31.1667 %
3345 20-12-2019 08:00:00 6.5 C 31.1667 %
3346 20-12-2019 09:00:00 6.51667 C 33.5000 %
3347 20-12-2019 10:00:00 5.93333 C 37.1667 %
3348 20-12-2019 11:00:00 6.4 C 41.5000 %
3349 20-12-2019 12:00:00 7.6 C 38.8333 %
3350 20-12-2019 13:00:00 8.35 C 37.3333 %
Sensor: Nr:Datum:Temp:Feuchte:
Aussen-T/F 3351 20-12-2019 14:00:00 8.56667 C 35.6667 %
3352 20-12-2019 15:00:00 8.25 C 39.1667 %
3353 20-12-2019 16:00:00 8.36667 C 40.6667 %
3354 20-12-2019 17:00:00 8.88333 C 38.3333 %
3355 20-12-2019 18:00:00 9.13333 C 35.1667 %
3356 20-12-2019 19:00:00 9.88333 C 28.6667 %
3357 20-12-2019 20:00:00 9.25 C 27.6667 %
3358 20-12-2019 21:00:00 8.55 C 27.6667 %
3359 20-12-2019 22:00:00 8.56667 C 27.1667 %
3360 20-12-2019 23:00:00 8.25 C 27.3333 %
3361 21-12-2019 00:00:00 7.46667 C 29.3333 %
3362 21-12-2019 01:00:00 7.31667 C 31.5000 %
3363 21-12-2019 02:00:00 7.91667 C 29.5000 %
3364 21-12-2019 03:00:00 7.31667 C 31.0000 %
3365 21-12-2019 04:00:00 6.26667 C 37.0000 %
3366 21-12-2019 05:00:00 5.46667 C 38.8333 %
3367 21-12-2019 06:00:00 4.51667 C 40.8333 %
3368 21-12-2019 07:00:00 3.33333 C 42.6667 %
3369 21-12-2019 08:00:00 3.96667 C 43.3333 %
3370 21-12-2019 09:00:00 4.58333 C 38.6667 %
3371 21-12-2019 10:00:00 5.03333 C 37.0000 %
3372 21-12-2019 11:00:00 5.58333 C 37.0000 %
3373 21-12-2019 12:00:00 6.66667 C 33.6667 %
3374 21-12-2019 13:00:00 7.45 C 29.5000 %
3375 21-12-2019 14:00:00 8.46667 C 26.6667 %
Sensor: Nr:Datum:Temp:Feuchte:
Aussen-T/F 3376 21-12-2019 15:00:00 8.45 C 25.8333 %
3377 21-12-2019 16:00:00 7.61667 C 28.5000 %
3378 21-12-2019 17:00:00 7.31667 C 29.5000 %
3379 21-12-2019 18:00:00 7.65 C 26.1667 %
3380 21-12-2019 19:00:00 7 C 28.0000 %
3381 21-12-2019 20:00:00 7 C 26.6667 %
3382 21-12-2019 21:00:00 5.98333 C 31.0000 %
3383 21-12-2019 22:00:00 5.66667 C 30.1667 %
3384 21-12-2019 23:00:00 6.23333 C 26.0000 %
3385 22-12-2019 00:00:00 6.71667 C 26.8333 %
3386 22-12-2019 01:00:00 5.83333 C 36.6667 %
3387 22-12-2019 02:00:00 5.83333 C 37.0000 %
3388 22-12-2019 03:00:00 6.16667 C 34.6667 %
3389 22-12-2019 04:00:00 6.2 C 34.0000 %
3390 22-12-2019 05:00:00 5.78333 C 36.1667 %
3391 22-12-2019 06:00:00 5.46667 C 40.5000 %
3392 22-12-2019 07:00:00 5.9 C 39.3333 %
3393 22-12-2019 08:00:00 6.11667 C 40.3333 %
3394 22-12-2019 09:00:00 6.45 C 38.8333 %
3395 22-12-2019 10:00:00 8.36667 C 31.6667 %
3396 22-12-2019 11:00:00 10.08333 C 26.3333 %
3397 22-12-2019 12:00:00 10.7 C 25.5000 %
3398 22-12-2019 13:00:00 10.8 C 25.0000 %
3399 22-12-2019 14:00:00 10.88333 C 23.3333 %
3400 22-12-2019 15:00:00 10.03333 C 25.3333 %
Sensor: Nr:Datum:Temp:Feuchte:
Aussen-T/F 3401 22-12-2019 16:00:00 8.73333 C 26.1667 %
3402 22-12-2019 17:00:00 7.43333 C 29.1667 %
3403 22-12-2019 18:00:00 7.28333 C 29.5000 %
3404 22-12-2019 19:00:00 7.28333 C 30.1667 %
3405 22-12-2019 20:00:00 8.08333 C 25.5000 %
3406 22-12-2019 21:00:00 7.93333 C 25.3333 %
3407 22-12-2019 22:00:00 7.28333 C 27.0000 %
3408 22-12-2019 23:00:00 6.53333 C 31.0000 %
3409 23-12-2019 00:00:00 6.66667 C 31.0000 %
3410 23-12-2019 01:00:00 7.13333 C 28.0000 %
3411 23-12-2019 02:00:00 6.86667 C 29.1667 %
3412 23-12-2019 03:00:00 6.71667 C 29.5000 %
3413 23-12-2019 04:00:00 6.71667 C 30.1667 %
3414 23-12-2019 05:00:00 6.76667 C 30.8333 %
3415 23-12-2019 06:00:00 6.78333 C 31.6667 %
3416 23-12-2019 07:00:00 7 C 31.1667 %
3417 23-12-2019 08:00:00 7.48333 C 28.1667 %
3418 23-12-2019 09:00:00 7.76667 C 26.8333 %
3419 23-12-2019 10:00:00 7.06667 C 32.8333 %
3420 23-12-2019 11:00:00 8.35 C 26.5000 %
3421 23-12-2019 12:00:00 8.96667 C 25.1667 %
3422 23-12-2019 13:00:00 8.28333 C 27.5000 %
3423 23-12-2019 14:00:00 8.98333 C 25.5000 %
3424 23-12-2019 15:00:00 8.95 C 25.1667 %
3425 23-12-2019 16:00:00 8.55 C 25.1667 %
Sensor: Nr:Datum:Temp:Feuchte:
Aussen-T/F 3426 23-12-2019 17:00:00 8.01667 C 25.0000 %
3427 23-12-2019 18:00:00 7.8 C 24.5000 %
3428 23-12-2019 19:00:00 6.96667 C 27.3333 %
3429 23-12-2019 20:00:00 6.81667 C 29.6667 %
3430 23-12-2019 21:00:00 6.75 C 30.0000 %
3431 23-12-2019 22:00:00 5.68333 C 33.5000 %
3432 23-12-2019 23:00:00 5.28333 C 32.3333 %
3433 24-12-2019 00:00:00 5.91667 C 32.1667 %
3434 24-12-2019 01:00:00 5.91667 C 31.3333 %
3435 24-12-2019 02:00:00 5.78333 C 34.5000 %
3436 24-12-2019 03:00:00 5.81667 C 30.6667 %
3437 24-12-2019 04:00:00 5.05 C 37.5000 %
3438 24-12-2019 05:00:00 4.96667 C 36.1667 %
3439 24-12-2019 06:00:00 4.51667 C 38.1667 %
3440 24-12-2019 07:00:00 5.36667 C 34.0000 %
3441 24-12-2019 08:00:00 6.15 C 30.0000 %
3442 24-12-2019 09:00:00 6.7 C 28.8333 %
3443 24-12-2019 10:00:00 6.43333 C 33.5000 %
3444 24-12-2019 11:00:00 7.56667 C 31.5000 %
3445 24-12-2019 12:00:00 8.15 C 28.1667 %
3446 24-12-2019 13:00:00 9.26667 C 25.5000 %
3447 24-12-2019 14:00:00 9.45 C 25.5000 %
3448 24-12-2019 15:00:00 9.83333 C 23.3333 %
3449 24-12-2019 16:00:00 9.98333 C 20.1667 %
3450 24-12-2019 17:00:00 9.33333 C 20.0000 %
Sensor: Nr:Datum:Temp:Feuchte:
Aussen-T/F 3451 24-12-2019 18:00:00 8.31667 C 27.5000 %
3452 24-12-2019 19:00:00 6.8 C 34.8333 %
3453 24-12-2019 20:00:00 7.15 C 31.3333 %
3454 24-12-2019 21:00:00 7.63333 C 29.6667 %
3455 24-12-2019 22:00:00 8.33333 C 26.5000 %
3456 24-12-2019 23:00:00 8.43333 C 27.0000 %
3457 25-12-2019 00:00:00 8.31667 C 28.0000 %
3458 25-12-2019 01:00:00 7.56667 C 33.8333 %
3459 25-12-2019 02:00:00 7.88333 C 31.1667 %
3460 25-12-2019 03:00:00 8.08333 C 30.6667 %
3461 25-12-2019 04:00:00 7.91667 C 35.5000 %
3462 25-12-2019 05:00:00 7.78333 C 36.3333 %
3463 25-12-2019 06:00:00 7.26667 C 36.6667 %
3464 25-12-2019 07:00:00 7 C 35.1667 %
3465 25-12-2019 08:00:00 6.46667 C 32.0000 %
3466 25-12-2019 09:00:00 7.08333 C 28.6667 %
3467 25-12-2019 10:00:00 7.5 C 26.5000 %
3468 25-12-2019 11:00:00 7.43333 C 26.5000 %
3469 25-12-2019 12:00:00 7.56667 C 27.3333 %
3470 25-12-2019 13:00:00 7 C 30.1667 %
3471 25-12-2019 14:00:00 7.41667 C 29.3333 %
3472 25-12-2019 15:00:00 7.2 C 30.6667 %
3473 25-12-2019 16:00:00 6.9 C 31.8333 %
3474 25-12-2019 17:00:00 6.31667 C 32.0000 %
3475 25-12-2019 18:00:00 6.15 C 32.5000 %
Sensor: Nr:Datum:Temp:Feuchte:
Aussen-T/F 3476 25-12-2019 19:00:00 6 C 32.6667 %
3477 25-12-2019 20:00:00 5.75 C 35.5000 %
3478 25-12-2019 21:00:00 5.33333 C 41.0000 %
3479 25-12-2019 22:00:00 5.15 C 42.0000 %
3480 25-12-2019 23:00:00 4.98333 C 42.0000 %
3481 26-12-2019 00:00:00 4.01667 C 43.0000 %
3482 26-12-2019 01:00:00 4.35 C 42.8333 %
3483 26-12-2019 02:00:00 4.18333 C 42.0000 %
3484 26-12-2019 03:00:00 4.08333 C 42.1667 %
3485 26-12-2019 04:00:00 3.3 C 42.1667 %
3486 26-12-2019 05:00:00 3.43333 C 43.0000 %
3487 26-12-2019 06:00:00 3.55 C 43.0000 %
3488 26-12-2019 07:00:00 3.43333 C 43.0000 %
3489 26-12-2019 08:00:00 3.43333 C 43.0000 %
3490 26-12-2019 09:00:00 3.51667 C 42.5000 %
3491 26-12-2019 10:00:00 3.96667 C 41.5000 %
3492 26-12-2019 11:00:00 5.16667 C 39.6667 %
3493 26-12-2019 12:00:00 5.83333 C 35.5000 %
3494 26-12-2019 13:00:00 5.8 C 36.1667 %
3495 26-12-2019 14:00:00 5.8 C 35.3333 %
3496 26-12-2019 15:00:00 5.1 C 37.5000 %
3497 26-12-2019 16:00:00 4.48333 C 39.8333 %
3498 26-12-2019 17:00:00 4.26667 C 40.0000 %
3499 26-12-2019 18:00:00 4.06667 C 40.5000 %
3500 26-12-2019 19:00:00 3.93333 C 40.8333 %
Sensor: Nr:Datum:Temp:Feuchte:
Aussen-T/F 3501 26-12-2019 20:00:00 4.01667 C 40.3333 %
3502 26-12-2019 21:00:00 4.2 C 37.5000 %
3503 26-12-2019 22:00:00 4.1 C 41.0000 %
3504 26-12-2019 23:00:00 4.03333 C 42.6667 %
3505 27-12-2019 00:00:00 4.03333 C 42.0000 %
3506 27-12-2019 01:00:00 4.1 C 42.0000 %
3507 27-12-2019 02:00:00 4.11667 C 42.0000 %
3508 27-12-2019 03:00:00 4.28333 C 42.0000 %
3509 27-12-2019 04:00:00 4.31667 C 42.0000 %
3510 27-12-2019 05:00:00 4.38333 C 42.0000 %
3511 27-12-2019 06:00:00 4.4 C 42.0000 %
3512 27-12-2019 07:00:00 4.4 C 42.0000 %
3513 27-12-2019 08:00:00 4.3 C 42.0000 %
3514 27-12-2019 09:00:00 4.5 C 41.8333 %
3515 27-12-2019 10:00:00 4.88333 C 39.8333 %
3516 27-12-2019 11:00:00 5.35 C 35.3333 %
3517 27-12-2019 12:00:00 5.96667 C 31.0000 %
3518 27-12-2019 13:00:00 5.7 C 30.6667 %
3519 27-12-2019 14:00:00 5.93333 C 28.6667 %
3520 27-12-2019 15:00:00 5.55 C 29.0000 %
3521 27-12-2019 16:00:00 4.83333 C 33.3333 %
3522 27-12-2019 17:00:00 4.48333 C 34.0000 %
3523 27-12-2019 18:00:00 4.35 C 33.1667 %
3524 27-12-2019 19:00:00 4.15 C 33.3333 %
3525 27-12-2019 20:00:00 3.98333 C 32.0000 %
Sensor: Nr:Datum:Temp:Feuchte:
Aussen-T/F 3526 27-12-2019 21:00:00 3.93333 C 31.6667 %
3527 27-12-2019 22:00:00 2.83333 C 33.0000 %
3528 27-12-2019 23:00:00 1.1 C 40.3333 %
3529 28-12-2019 00:00:00 0.35 C 40.6667 %
3530 28-12-2019 01:00:00 -0.45 C 42.5000 %
3531 28-12-2019 02:00:00 -1.51667 C 44.6667 %
3532 28-12-2019 03:00:00 -2.05 C 45.0000 %
3533 28-12-2019 04:00:00 -2.36667 C 45.0000 %
3534 28-12-2019 05:00:00 -2.45 C 44.6667 %
3535 28-12-2019 06:00:00 -2.01667 C 43.8333 %
3536 28-12-2019 07:00:00 -2.33333 C 43.0000 %
3537 28-12-2019 08:00:00 -3 C 42.3333 %
3538 28-12-2019 09:00:00 -2.41667 C 43.6667 %
3539 28-12-2019 10:00:00 -1.36667 C 45.0000 %
3540 28-12-2019 11:00:00 -0.58333 C 43.1667 %
3541 28-12-2019 12:00:00 0.2 C 40.6667 %
3542 28-12-2019 13:00:00 0.76667 C 40.0000 %
3543 28-12-2019 14:00:00 0.65 C 40.3333 %
3544 28-12-2019 15:00:00 0.38333 C 39.6667 %
3545 28-12-2019 16:00:00 0.01667 C 38.5000 %
3546 28-12-2019 17:00:00 -0.65 C 40.1667 %
3547 28-12-2019 18:00:00 -1.06667 C 43.1667 %
3548 28-12-2019 19:00:00 -1.73333 C 43.1667 %
3549 28-12-2019 20:00:00 -1.43333 C 44.0000 %
3550 28-12-2019 21:00:00 -1.56667 C 42.3333 %
Sensor: Nr:Datum:Temp:Feuchte:
Aussen-T/F 3551 28-12-2019 22:00:00 -2.2 C 42.0000 %
3552 28-12-2019 23:00:00 -2.55 C 42.5000 %
3553 29-12-2019 00:00:00 -3 C 42.8333 %
3554 29-12-2019 01:00:00 -3.38333 C 42.5000 %
3555 29-12-2019 02:00:00 -3.66667 C 41.6667 %
3556 29-12-2019 03:00:00 -4.03333 C 41.3333 %
3557 29-12-2019 04:00:00 -4.15 C 41.1667 %
3558 29-12-2019 05:00:00 -4.48333 C 41.0000 %
3559 29-12-2019 06:00:00 -4.75 C 41.0000 %
3560 29-12-2019 07:00:00 -4.78333 C 41.1667 %
3561 29-12-2019 08:00:00 -4.25 C 41.5000 %
3562 29-12-2019 09:00:00 -4.01667 C 41.3333 %
3563 29-12-2019 10:00:00 -3.4 C 41.6667 %
3564 29-12-2019 11:00:00 -1.3 C 42.5000 %
3565 29-12-2019 12:00:00 0.08333 C 40.3333 %
3566 29-12-2019 13:00:00 1.16667 C 37.1667 %
3567 29-12-2019 14:00:00 1.8 C 35.3333 %
3568 29-12-2019 15:00:00 1.73333 C 31.0000 %
3569 29-12-2019 16:00:00 0.05 C 38.5000 %
3570 29-12-2019 17:00:00 -0.23333 C 37.8333 %
3571 29-12-2019 18:00:00 -0.21667 C 38.0000 %
3572 29-12-2019 19:00:00 -0.75 C 37.0000 %
3573 29-12-2019 20:00:00 -1.08333 C 36.6667 %
3574 29-12-2019 21:00:00 -1.83333 C 40.0000 %
3575 29-12-2019 22:00:00 -2.46667 C 42.6667 %
Sensor: Nr:Datum:Temp:Feuchte:
Aussen-T/F 3576 29-12-2019 23:00:00 -2.88333 C 43.0000 %
3577 30-12-2019 00:00:00 -3.1 C 41.6667 %
3578 30-12-2019 01:00:00 -3.25 C 42.5000 %
3579 30-12-2019 02:00:00 -3.36667 C 43.0000 %
3580 30-12-2019 03:00:00 -3.3 C 43.0000 %
3581 30-12-2019 04:00:00 -3.85 C 42.0000 %
3582 30-12-2019 05:00:00 -3.85 C 42.3333 %
3583 30-12-2019 06:00:00 -3.91667 C 42.1667 %
3584 30-12-2019 07:00:00 -4.26667 C 41.6667 %
3585 30-12-2019 08:00:00 -4.3 C 41.6667 %
3586 30-12-2019 09:00:00 -3.8 C 42.1667 %
3587 30-12-2019 10:00:00 -3.21667 C 42.3333 %
3588 30-12-2019 11:00:00 -2.38333 C 41.6667 %
3589 30-12-2019 12:00:00 -1.28333 C 40.0000 %
3590 30-12-2019 13:00:00 -0.76667 C 40.6667 %
3591 30-12-2019 14:00:00 0.51667 C 34.8333 %
3592 30-12-2019 15:00:00 0.91667 C 34.5000 %
3593 30-12-2019 16:00:00 1.28333 C 34.6667 %
3594 30-12-2019 17:00:00 0.58333 C 39.5000 %
3595 30-12-2019 18:00:00 -0.31667 C 35.8333 %
3596 30-12-2019 19:00:00 -0.91667 C 35.3333 %
3597 30-12-2019 20:00:00 -1.31667 C 34.5000 %
3598 30-12-2019 21:00:00 -1.1 C 35.1667 %
3599 30-12-2019 22:00:00 -1.83333 C 35.1667 %
3600 30-12-2019 23:00:00 -1.15 C 32.8333 %
Sensor: Nr:Datum:Temp:Feuchte:
Aussen-T/F 3601 31-12-2019 00:00:00 -1.4 C 34.6667 %
3602 31-12-2019 01:00:00 -1.58333 C 36.0000 %
3603 31-12-2019 02:00:00 -2.65 C 41.6667 %
3604 31-12-2019 03:00:00 -2.38333 C 41.0000 %
3605 31-12-2019 04:00:00 -3.11667 C 42.3333 %
3606 31-12-2019 05:00:00 -3.21667 C 43.1667 %
3607 31-12-2019 06:00:00 -3.25 C 43.1667 %
3608 31-12-2019 07:00:00 -2.83333 C 44.3333 %
3609 31-12-2019 08:00:00 -1.4 C 44.0000 %
3610 31-12-2019 09:00:00 -1.01667 C 42.6667 %
3611 31-12-2019 10:00:00 0.06667 C 41.0000 %
3612 31-12-2019 11:00:00 1.13333 C 40.0000 %
3613 31-12-2019 12:00:00 2.38333 C 31.6667 %
3614 31-12-2019 13:00:00 2.76667 C 26.6667 %
3615 31-12-2019 14:00:00 3.05 C 26.3333 %
3616 31-12-2019 15:00:00 2.88333 C 27.5000 %
3617 31-12-2019 16:00:00 0.71667 C 37.0000 %
3618 31-12-2019 17:00:00 -0.4 C 41.5000 %
3619 31-12-2019 18:00:00 -0.8 C 45.0000 %
3620 31-12-2019 19:00:00 0.05 C 45.1667 %
3621 31-12-2019 20:00:00 0.38333 C 44.3333 %
3622 31-12-2019 21:00:00 0.43333 C 43.5000 %
3623 31-12-2019 22:00:00 0.11667 C 41.8333 %
3624 31-12-2019 23:00:00 0.05 C 44.8333 %
3625 01-01-2020 00:00:00 -0.1 C 44.1667 %
Sensor: Nr:Datum:Temp:Feuchte:
Aussen-T/F 3626 01-01-2020 01:00:00 -0.73333 C 44.5000 %
3627 01-01-2020 02:00:00 -0.26667 C 45.1667 %
3628 01-01-2020 03:00:00 0.11667 C 45.0000 %
3629 01-01-2020 04:00:00 0.26667 C 44.6667 %
3630 01-01-2020 05:00:00 0.41667 C 43.8333 %
3631 01-01-2020 06:00:00 0.51667 C 42.3333 %
3632 01-01-2020 07:00:00 0.6 C 41.0000 %
3633 01-01-2020 08:00:00 0.68333 C 40.3333 %
3634 01-01-2020 09:00:00 1.3 C 37.6667 %
3635 01-01-2020 10:00:00 2.15 C 33.1667 %
3636 01-01-2020 11:00:00 2.7 C 30.3333 %
3637 01-01-2020 12:00:00 2.7 C 29.8333 %
3638 01-01-2020 13:00:00 1.53333 C 37.5000 %
3639 01-01-2020 14:00:00 1.45 C 40.0000 %
3640 01-01-2020 15:00:00 1.26667 C 39.8333 %
3641 01-01-2020 16:00:00 -0.35 C 44.0000 %
3642 01-01-2020 17:00:00 -1.55 C 45.0000 %
3643 01-01-2020 18:00:00 -2.05 C 45.0000 %
3644 01-01-2020 19:00:00 -2.36667 C 45.0000 %
3645 01-01-2020 20:00:00 -2.35 C 44.3333 %
3646 01-01-2020 21:00:00 -3 C 42.8333 %
3647 01-01-2020 22:00:00 -3.01667 C 42.5000 %
3648 01-01-2020 23:00:00 -2.5 C 44.1667 %
3649 02-01-2020 00:00:00 -2.45 C 43.5000 %
3650 02-01-2020 01:00:00 -1.95 C 44.8333 %
Sensor: Nr:Datum:Temp:Feuchte:
Aussen-T/F 3651 02-01-2020 02:00:00 -1.4 C 45.0000 %
3652 02-01-2020 03:00:00 -1.03333 C 45.0000 %
3653 02-01-2020 04:00:00 -0.73333 C 45.0000 %
3654 02-01-2020 05:00:00 -0.86667 C 44.6667 %
3655 02-01-2020 06:00:00 -0.8 C 42.1667 %
3656 02-01-2020 07:00:00 -0.68333 C 39.8333 %
3657 02-01-2020 08:00:00 -0.38333 C 41.0000 %
3658 02-01-2020 09:00:00 0.23333 C 39.6667 %
3659 02-01-2020 10:00:00 1.01667 C 39.8333 %
3660 02-01-2020 11:00:00 1.91667 C 35.8333 %
3661 02-01-2020 12:00:00 2.53333 C 34.1667 %
3662 02-01-2020 13:00:00 3.21667 C 29.6667 %
3663 02-01-2020 14:00:00 3.46667 C 30.0000 %
3664 02-01-2020 15:00:00 2.7 C 32.6667 %
3665 02-01-2020 16:00:00 2.26667 C 36.1667 %
3666 02-01-2020 17:00:00 2.08333 C 39.3333 %
3667 02-01-2020 18:00:00 2.15 C 39.8333 %
3668 02-01-2020 19:00:00 2.26667 C 40.0000 %
3669 02-01-2020 20:00:00 2.48333 C 39.8333 %
3670 02-01-2020 21:00:00 2.36667 C 40.3333 %
3671 02-01-2020 22:00:00 2.53333 C 42.8333 %
3672 02-01-2020 23:00:00 2.81667 C 41.6667 %
3673 03-01-2020 00:00:00 3.13333 C 41.3333 %
3674 03-01-2020 01:00:00 3.51667 C 42.0000 %
3675 03-01-2020 02:00:00 3.76667 C 42.5000 %
Sensor: Nr:Datum:Temp:Feuchte:
Aussen-T/F 3676 03-01-2020 03:00:00 3.85 C 44.0000 %
3677 03-01-2020 04:00:00 4.06667 C 42.3333 %
3678 03-01-2020 05:00:00 4.33333 C 40.1667 %
3679 03-01-2020 06:00:00 4.98333 C 39.0000 %
3680 03-01-2020 07:00:00 7.73333 C 29.8333 %
3681 03-01-2020 08:00:00 7.91667 C 29.1667 %
3682 03-01-2020 09:00:00 8.3 C 27.6667 %
3683 03-01-2020 10:00:00 8.6 C 27.0000 %
3684 03-01-2020 11:00:00 8.65 C 27.0000 %
3685 03-01-2020 12:00:00 8.56667 C 27.0000 %
3686 03-01-2020 13:00:00 8.65 C 27.6667 %
3687 03-01-2020 14:00:00 8.53333 C 28.8333 %
3688 03-01-2020 15:00:00 9.05 C 28.0000 %
3689 03-01-2020 16:00:00 8.98333 C 29.0000 %
3690 03-01-2020 17:00:00 8.8 C 30.5000 %
3691 03-01-2020 18:00:00 9.2 C 30.0000 %
3692 03-01-2020 19:00:00 9.11667 C 31.1667 %
3693 03-01-2020 20:00:00 8.81667 C 35.1667 %
3694 03-01-2020 21:00:00 7.48333 C 35.5000 %
3695 03-01-2020 22:00:00 6.4 C 33.8333 %
3696 03-01-2020 23:00:00 5.78333 C 34.5000 %
3697 04-01-2020 00:00:00 5.55 C 34.1667 %
3698 04-01-2020 01:00:00 4.38333 C 36.6667 %
3699 04-01-2020 02:00:00 3.65 C 38.1667 %
3700 04-01-2020 03:00:00 3.5 C 39.5000 %
Sensor: Nr:Datum:Temp:Feuchte:
Aussen-T/F 3701 04-01-2020 04:00:00 3.15 C 36.6667 %
3702 04-01-2020 05:00:00 2.31667 C 39.8333 %
3703 04-01-2020 06:00:00 2.56667 C 36.3333 %
3704 04-01-2020 07:00:00 2.3 C 35.1667 %
3705 04-01-2020 08:00:00 1.38333 C 41.1667 %
3706 04-01-2020 09:00:00 1.3 C 43.1667 %
3707 04-01-2020 10:00:00 3.55 C 33.1667 %
3708 04-01-2020 11:00:00 5.56667 C 26.6667 %
3709 04-01-2020 12:00:00 6.18333 C 26.0000 %
3710 04-01-2020 13:00:00 6.81667 C 25.5000 %
3711 04-01-2020 14:00:00 7.03333 C 25.0000 %
3712 04-01-2020 15:00:00 7 C 25.0000 %
3713 04-01-2020 16:00:00 6.85 C 25.0000 %
3714 04-01-2020 17:00:00 6.7 C 25.0000 %
3715 04-01-2020 18:00:00 6.65 C 25.0000 %
3716 04-01-2020 19:00:00 6.2 C 27.1667 %
3717 04-01-2020 20:00:00 5.78333 C 30.0000 %
3718 04-01-2020 21:00:00 5.4 C 35.5000 %
3719 04-01-2020 22:00:00 5.35 C 37.6667 %
3720 04-01-2020 23:00:00 5.6 C 34.6667 %
3721 05-01-2020 00:00:00 5.41667 C 35.0000 %
3722 05-01-2020 01:00:00 4.88333 C 40.6667 %
3723 05-01-2020 02:00:00 4.63333 C 42.5000 %
3724 05-01-2020 03:00:00 4.45 C 42.6667 %
3725 05-01-2020 04:00:00 4.36667 C 42.6667 %
Sensor: Nr:Datum:Temp:Feuchte:
Aussen-T/F 3726 05-01-2020 05:00:00 4.46667 C 42.5000 %
3727 05-01-2020 06:00:00 4.63333 C 41.6667 %
3728 05-01-2020 07:00:00 4.5 C 41.3333 %
3729 05-01-2020 08:00:00 4.38333 C 41.3333 %
3730 05-01-2020 09:00:00 4.8 C 37.6667 %
3731 05-01-2020 10:00:00 5.43333 C 33.8333 %
3732 05-01-2020 11:00:00 5.81667 C 32.6667 %
3733 05-01-2020 12:00:00 6.11667 C 31.0000 %
3734 05-01-2020 13:00:00 6.5 C 30.1667 %
3735 05-01-2020 14:00:00 6.68333 C 30.0000 %
3736 05-01-2020 15:00:00 6.35 C 32.1667 %
3737 05-01-2020 16:00:00 5.78333 C 35.6667 %
3738 05-01-2020 17:00:00 5.63333 C 32.1667 %
3739 05-01-2020 18:00:00 5.58333 C 30.1667 %
3740 05-01-2020 19:00:00 5.41667 C 30.6667 %
3741 05-01-2020 20:00:00 5.28333 C 30.5000 %
3742 05-01-2020 21:00:00 4.93333 C 33.3333 %
3743 05-01-2020 22:00:00 4.71667 C 35.1667 %
3744 05-01-2020 23:00:00 4.45 C 35.5000 %
3745 06-01-2020 00:00:00 4.4 C 32.8333 %
3746 06-01-2020 01:00:00 4.25 C 32.0000 %
3747 06-01-2020 02:00:00 4.18333 C 31.3333 %
3748 06-01-2020 03:00:00 4.1 C 31.1667 %
3749 06-01-2020 04:00:00 3.93333 C 31.5000 %
3750 06-01-2020 05:00:00 3.63333 C 34.3333 %
Sensor: Nr:Datum:Temp:Feuchte:
Aussen-T/F 3751 06-01-2020 06:00:00 3.3 C 34.6667 %
3752 06-01-2020 07:00:00 2.76667 C 37.0000 %
3753 06-01-2020 08:00:00 2.43333 C 36.1667 %
3754 06-01-2020 09:00:00 2.83333 C 34.6667 %
3755 06-01-2020 10:00:00 2.78333 C 33.3333 %
3756 06-01-2020 11:00:00 1.83333 C 40.0000 %
3757 06-01-2020 12:00:00 2.13333 C 38.1667 %
3758 06-01-2020 13:00:00 2.45 C 38.5000 %
3759 06-01-2020 14:00:00 2.58333 C 39.1667 %
3760 06-01-2020 15:00:00 2.65 C 39.0000 %
3761 06-01-2020 16:00:00 1.61667 C 42.0000 %
3762 06-01-2020 17:00:00 0.66667 C 43.8333 %
3763 06-01-2020 18:00:00 -0.13333 C 45.0000 %
3764 06-01-2020 19:00:00 -0.78333 C 44.3333 %
3765 06-01-2020 20:00:00 -0.95 C 44.6667 %
3766 06-01-2020 21:00:00 -1 C 44.6667 %
3767 06-01-2020 22:00:00 0.35 C 43.8333 %
3768 06-01-2020 23:00:00 0.76667 C 43.8333 %
3769 07-01-2020 00:00:00 1.93333 C 38.1667 %
3770 07-01-2020 01:00:00 2.81667 C 34.8333 %
3771 07-01-2020 02:00:00 2.93333 C 36.1667 %
3772 07-01-2020 03:00:00 2.75 C 39.1667 %
3773 07-01-2020 04:00:00 3.1 C 37.3333 %
3774 07-01-2020 05:00:00 3.46667 C 37.1667 %
3775 07-01-2020 06:00:00 3.96667 C 35.3333 %
Sensor: Nr:Datum:Temp:Feuchte:
Aussen-T/F 3776 07-01-2020 07:00:00 4.35 C 34.1667 %
3777 07-01-2020 08:00:00 4.06667 C 37.1667 %
3778 07-01-2020 09:00:00 4.2 C 37.0000 %
3779 07-01-2020 10:00:00 5.21667 C 33.6667 %
3780 07-01-2020 11:00:00 6.23333 C 31.0000 %
3781 07-01-2020 12:00:00 6.65 C 29.6667 %
3782 07-01-2020 13:00:00 6.9 C 28.1667 %
3783 07-01-2020 14:00:00 7.08333 C 26.8333 %
3784 07-01-2020 15:00:00 6.1 C 29.0000 %
3785 07-01-2020 16:00:00 4.78333 C 33.6667 %
3786 07-01-2020 17:00:00 3.28333 C 41.1667 %
3787 07-01-2020 18:00:00 2.91667 C 43.1667 %
3788 07-01-2020 19:00:00 2.63333 C 43.1667 %
3789 07-01-2020 20:00:00 3.93333 C 38.1667 %
3790 07-01-2020 21:00:00 5.43333 C 31.0000 %
3791 07-01-2020 22:00:00 5.83333 C 29.0000 %
3792 07-01-2020 23:00:00 5.88333 C 28.5000 %
3793 08-01-2020 00:00:00 5.58333 C 28.8333 %
3794 08-01-2020 01:00:00 5.3 C 28.3333 %
3795 08-01-2020 02:00:00 5.15 C 30.0000 %
3796 08-01-2020 03:00:00 5.88333 C 30.0000 %
3797 08-01-2020 04:00:00 5.75 C 31.5000 %
3798 08-01-2020 05:00:00 5.73333 C 34.0000 %
3799 08-01-2020 06:00:00 6.03333 C 35.8333 %
3800 08-01-2020 07:00:00 6.03333 C 41.8333 %
Sensor: Nr:Datum:Temp:Feuchte:
Aussen-T/F 3801 08-01-2020 08:00:00 6.35 C 41.3333 %
3802 08-01-2020 09:00:00 6.83333 C 39.0000 %
3803 08-01-2020 10:00:00 7.31667 C 36.3333 %
3804 08-01-2020 11:00:00 7.8 C 34.6667 %
3805 08-01-2020 12:00:00 8.01667 C 34.6667 %
3806 08-01-2020 13:00:00 8.8 C 31.8333 %
3807 08-01-2020 14:00:00 9.05 C 31.8333 %
3808 08-01-2020 15:00:00 9.36667 C 31.5000 %
3809 08-01-2020 16:00:00 9.26667 C 32.8333 %
3810 08-01-2020 17:00:00 9.23333 C 34.5000 %
3811 08-01-2020 18:00:00 9.23333 C 35.3333 %
3812 08-01-2020 19:00:00 9.53333 C 35.3333 %
3813 08-01-2020 20:00:00 9.81667 C 35.1667 %
3814 08-01-2020 21:00:00 9.85 C 35.5000 %
3815 08-01-2020 22:00:00 9.66667 C 37.0000 %
3816 08-01-2020 23:00:00 9.53333 C 38.8333 %
3817 09-01-2020 00:00:00 9.1 C 40.5000 %
3818 09-01-2020 01:00:00 8.96667 C 41.8333 %
3819 09-01-2020 02:00:00 8.78333 C 41.8333 %
3820 09-01-2020 03:00:00 8.66667 C 40.0000 %
3821 09-01-2020 04:00:00 8.5 C 41.8333 %
3822 09-01-2020 05:00:00 8.5 C 41.8333 %
3823 09-01-2020 06:00:00 8.58333 C 41.0000 %
3824 09-01-2020 07:00:00 8.88333 C 41.0000 %
3825 09-01-2020 08:00:00 9.26667 C 41.0000 %
Sensor: Nr:Datum:Temp:Feuchte:
Aussen-T/F 3826 09-01-2020 09:00:00 9.96667 C 39.1667 %
3827 09-01-2020 10:00:00 11.18333 C 33.1667 %
3828 09-01-2020 11:00:00 12.25 C 30.0000 %
3829 09-01-2020 12:00:00 13 C 27.5000 %
3830 09-01-2020 13:00:00 13.21667 C 26.5000 %
3831 09-01-2020 14:00:00 12.41667 C 28.6667 %
3832 09-01-2020 15:00:00 12.33333 C 29.0000 %
3833 09-01-2020 16:00:00 12.25 C 28.6667 %
3834 09-01-2020 17:00:00 12.06667 C 28.5000 %
3835 09-01-2020 18:00:00 11.11667 C 30.5000 %
3836 09-01-2020 19:00:00 10.88333 C 30.8333 %
3837 09-01-2020 20:00:00 9.76667 C 36.1667 %
3838 09-01-2020 21:00:00 9.25 C 38.0000 %
3839 09-01-2020 22:00:00 9.25 C 37.0000 %
3840 09-01-2020 23:00:00 9.85 C 31.0000 %
3841 10-01-2020 00:00:00 9.83333 C 30.8333 %
3842 10-01-2020 01:00:00 9.63333 C 30.8333 %
3843 10-01-2020 02:00:00 9.68333 C 30.3333 %
3844 10-01-2020 03:00:00 9.96667 C 28.5000 %
3845 10-01-2020 04:00:00 9.95 C 26.0000 %
3846 10-01-2020 05:00:00 9.43333 C 26.5000 %
3847 10-01-2020 06:00:00 8.36667 C 33.6667 %
3848 10-01-2020 07:00:00 7.75 C 40.3333 %
3849 10-01-2020 08:00:00 7.8 C 37.5000 %
3850 10-01-2020 09:00:00 8.76667 C 31.0000 %
Sensor: Nr:Datum:Temp:Feuchte:
Aussen-T/F 3851 10-01-2020 10:00:00 9.26667 C 29.8333 %
3852 10-01-2020 11:00:00 10.33333 C 26.0000 %
3853 10-01-2020 12:00:00 10.38333 C 27.1667 %
3854 10-01-2020 13:00:00 8.56667 C 33.0000 %
3855 10-01-2020 14:00:00 8.86667 C 28.6667 %
3856 10-01-2020 15:00:00 8.7 C 27.0000 %
3857 10-01-2020 16:00:00 7.5 C 31.6667 %
3858 10-01-2020 17:00:00 6.76667 C 32.5000 %
3859 10-01-2020 18:00:00 6.91667 C 30.6667 %
3860 10-01-2020 19:00:00 6.08333 C 36.0000 %
3861 10-01-2020 20:00:00 5.98333 C 33.3333 %
3862 10-01-2020 21:00:00 5.98333 C 30.3333 %
3863 10-01-2020 22:00:00 6.16667 C 29.8333 %
3864 10-01-2020 23:00:00 6 C 30.0000 %
3865 11-01-2020 00:00:00 5 C 31.1667 %
3866 11-01-2020 01:00:00 4.08333 C 36.8333 %
3867 11-01-2020 02:00:00 3.25 C 40.1667 %
3868 11-01-2020 03:00:00 2.78333 C 43.0000 %
3869 11-01-2020 04:00:00 3.16667 C 41.8333 %
3870 11-01-2020 05:00:00 2.9 C 40.3333 %
3871 11-01-2020 06:00:00 2.81667 C 40.0000 %
3872 11-01-2020 07:00:00 2.2 C 40.3333 %
3873 11-01-2020 08:00:00 0.6 C 45.5000 %
3874 11-01-2020 09:00:00 1.48333 C 43.1667 %
3875 11-01-2020 10:00:00 2.36667 C 37.6667 %
Sensor: Nr:Datum:Temp:Feuchte:
Aussen-T/F 3876 11-01-2020 11:00:00 4.4 C 32.0000 %
3877 11-01-2020 12:00:00 6.66667 C 23.3333 %
3878 11-01-2020 13:00:00 7.01667 C 20.0000 %
3879 11-01-2020 14:00:00 6.75 C 20.0000 %
3880 11-01-2020 15:00:00 6.51667 C 20.0000 %
3881 11-01-2020 16:00:00 6.16667 C 20.0000 %
3882 11-01-2020 17:00:00 5.48333 C 20.5000 %
3883 11-01-2020 18:00:00 4.4 C 25.6667 %
3884 11-01-2020 19:00:00 2.93333 C 33.6667 %
3885 11-01-2020 20:00:00 2.25 C 35.1667 %
3886 11-01-2020 21:00:00 1.63333 C 38.0000 %
3887 11-01-2020 22:00:00 1.03333 C 41.1667 %
3888 11-01-2020 23:00:00 0.93333 C 40.8333 %
3889 12-01-2020 00:00:00 0.88333 C 41.6667 %
3890 12-01-2020 01:00:00 1.06667 C 41.1667 %
3891 12-01-2020 02:00:00 1.76667 C 36.3333 %
3892 12-01-2020 03:00:00 1.55 C 37.6667 %
3893 12-01-2020 04:00:00 1.96667 C 38.6667 %
3894 12-01-2020 05:00:00 3.3 C 31.1667 %
3895 12-01-2020 06:00:00 3.65 C 30.0000 %
3896 12-01-2020 07:00:00 3.8 C 29.5000 %
3897 12-01-2020 08:00:00 3.91667 C 28.1667 %
3898 12-01-2020 09:00:00 4.43333 C 26.5000 %
3899 12-01-2020 10:00:00 4.88333 C 25.3333 %
3900 12-01-2020 11:00:00 5.33333 C 23.0000 %
Sensor: Nr:Datum:Temp:Feuchte:
Aussen-T/F 3901 12-01-2020 12:00:00 6.03333 C 21.6667 %
3902 12-01-2020 13:00:00 6.53333 C 21.6667 %
3903 12-01-2020 14:00:00 6.85 C 23.6667 %
3904 12-01-2020 15:00:00 6.73333 C 25.0000 %
3905 12-01-2020 16:00:00 6.33333 C 26.1667 %
3906 12-01-2020 17:00:00 5.95 C 28.1667 %
3907 12-01-2020 18:00:00 5.53333 C 30.0000 %
3908 12-01-2020 19:00:00 5.35 C 32.8333 %
3909 12-01-2020 20:00:00 5.83333 C 31.8333 %
3910 12-01-2020 21:00:00 6.26667 C 31.6667 %
3911 12-01-2020 22:00:00 6.16667 C 32.1667 %
3912 12-01-2020 23:00:00 5.56667 C 35.3333 %
3913 13-01-2020 00:00:00 6.36667 C 32.0000 %
3914 13-01-2020 01:00:00 5.76667 C 39.3333 %
3915 13-01-2020 02:00:00 5.83333 C 37.6667 %
3916 13-01-2020 03:00:00 4.86667 C 40.1667 %
3917 13-01-2020 04:00:00 3.8 C 43.3333 %
3918 13-01-2020 05:00:00 4.53333 C 42.1667 %
3919 13-01-2020 06:00:00 4.65 C 40.5000 %
3920 13-01-2020 07:00:00 4.05 C 39.8333 %
3921 13-01-2020 08:00:00 4.46667 C 39.6667 %
3922 13-01-2020 09:00:00 5.6 C 34.0000 %
3923 13-01-2020 10:00:00 6.46667 C 31.8333 %
3924 13-01-2020 11:00:00 7.5 C 29.5000 %
3925 13-01-2020 12:00:00 8.01667 C 28.1667 %
Sensor: Nr:Datum:Temp:Feuchte:
Aussen-T/F 3926 13-01-2020 13:00:00 7.35 C 30.5000 %
3927 13-01-2020 14:00:00 7.13333 C 33.5000 %
3928 13-01-2020 15:00:00 7.41667 C 28.5000 %
3929 13-01-2020 16:00:00 6.91667 C 29.3333 %
3930 13-01-2020 17:00:00 5.96667 C 32.0000 %
3931 13-01-2020 18:00:00 5.46667 C 35.0000 %
3932 13-01-2020 19:00:00 5.85 C 33.1667 %
3933 13-01-2020 20:00:00 5.6 C 35.0000 %
3934 13-01-2020 21:00:00 5.55 C 36.0000 %
3935 13-01-2020 22:00:00 5.93333 C 35.5000 %
3936 13-01-2020 23:00:00 6.13333 C 35.5000 %
3937 14-01-2020 00:00:00 6.53333 C 35.1667 %
3938 14-01-2020 01:00:00 5.96667 C 37.1667 %
3939 14-01-2020 02:00:00 6.38333 C 32.8333 %
3940 14-01-2020 03:00:00 6.66667 C 31.0000 %
3941 14-01-2020 04:00:00 6.71667 C 30.6667 %
3942 14-01-2020 05:00:00 7.31667 C 27.6667 %
3943 14-01-2020 06:00:00 7.15 C 27.5000 %
3944 14-01-2020 07:00:00 7.06667 C 26.8333 %
3945 14-01-2020 08:00:00 7.9 C 25.0000 %
3946 14-01-2020 09:00:00 8.56667 C 24.6667 %
3947 14-01-2020 10:00:00 9.25 C 20.3333 %
3948 14-01-2020 11:00:00 9.7 C 20.0000 %
3949 14-01-2020 12:00:00 10 C 20.0000 %
3950 14-01-2020 13:00:00 10.58333 C 20.0000 %
Sensor: Nr:Datum:Temp:Feuchte:
Aussen-T/F 3951 14-01-2020 14:00:00 12.03333 C 20.0000 %
3952 14-01-2020 15:00:00 11.83333 C 20.0000 %
3953 14-01-2020 16:00:00 10.81667 C 20.0000 %
3954 14-01-2020 17:00:00 10.71667 C 20.0000 %
3955 14-01-2020 18:00:00 10.73333 C 20.0000 %
3956 14-01-2020 19:00:00 10.95 C 20.0000 %
3957 14-01-2020 20:00:00 11.18333 C 20.0000 %
3958 14-01-2020 21:00:00 11.68333 C 20.0000 %
3959 14-01-2020 22:00:00 11.48333 C 20.0000 %
3960 14-01-2020 23:00:00 11.55 C 20.0000 %
3961 15-01-2020 00:00:00 11.36667 C 20.0000 %
3962 15-01-2020 01:00:00 10.98333 C 20.0000 %
3963 15-01-2020 02:00:00 10.11667 C 20.0000 %
3964 15-01-2020 03:00:00 9.56667 C 24.1667 %
3965 15-01-2020 04:00:00 8.76667 C 27.6667 %
3966 15-01-2020 05:00:00 9.2 C 25.5000 %
3967 15-01-2020 06:00:00 9.18333 C 21.3333 %
3968 15-01-2020 07:00:00 7 C 26.8333 %
3969 15-01-2020 08:00:00 6.05 C 30.8333 %
3970 15-01-2020 09:00:00 6.76667 C 29.1667 %
3971 15-01-2020 10:00:00 7.63333 C 27.0000 %
3972 15-01-2020 11:00:00 10.26667 C 20.8333 %
3973 15-01-2020 12:00:00 11.43333 C 20.0000 %
3974 15-01-2020 13:00:00 12.2 C 20.0000 %
3975 15-01-2020 14:00:00 11.76667 C 20.0000 %
Sensor: Nr:Datum:Temp:Feuchte:
Aussen-T/F 3976 15-01-2020 15:00:00 13.1 C 20.0000 %
3977 15-01-2020 16:00:00 12.46667 C 20.0000 %
3978 15-01-2020 17:00:00 11.65 C 20.0000 %
3979 15-01-2020 18:00:00 11.58333 C 20.0000 %
3980 15-01-2020 19:00:00 12.41667 C 20.0000 %
3981 15-01-2020 20:00:00 12.71667 C 20.0000 %
3982 15-01-2020 21:00:00 11.9 C 22.1667 %
3983 15-01-2020 22:00:00 9.5 C 37.1667 %
3984 15-01-2020 23:00:00 8.86667 C 37.3333 %
3985 16-01-2020 00:00:00 8.73333 C 35.5000 %
3986 16-01-2020 01:00:00 8.91667 C 36.5000 %
3987 16-01-2020 02:00:00 8.66667 C 39.6667 %
3988 16-01-2020 03:00:00 8.63333 C 42.1667 %
3989 16-01-2020 04:00:00 8.45 C 42.0000 %
3990 16-01-2020 05:00:00 7.86667 C 42.0000 %
3991 16-01-2020 06:00:00 7.33333 C 41.8333 %
3992 16-01-2020 07:00:00 6.38333 C 42.0000 %
3993 16-01-2020 08:00:00 5.98333 C 42.0000 %
3994 16-01-2020 09:00:00 5.56667 C 42.0000 %
3995 16-01-2020 10:00:00 6.75 C 41.8333 %
3996 16-01-2020 11:00:00 6.81667 C 41.0000 %
3997 16-01-2020 12:00:00 6.68333 C 41.0000 %
3998 16-01-2020 13:00:00 7.71667 C 40.3333 %
3999 16-01-2020 14:00:00 8.68333 C 36.1667 %
4000 16-01-2020 15:00:00 8.46667 C 35.0000 %
Sensor: Nr:Datum:Temp:Feuchte:
Aussen-T/F 4001 16-01-2020 16:00:00 7.38333 C 37.5000 %
4002 16-01-2020 17:00:00 6.85 C 40.0000 %
4003 16-01-2020 18:00:00 6.26667 C 41.0000 %
4004 16-01-2020 19:00:00 5.58333 C 42.6667 %
4005 16-01-2020 20:00:00 5.56667 C 42.0000 %
4006 16-01-2020 21:00:00 5.26667 C 41.6667 %
4007 16-01-2020 22:00:00 5.15 C 41.6667 %
4008 16-01-2020 23:00:00 6.1 C 37.1667 %
4009 17-01-2020 00:00:00 5.31667 C 39.5000 %
4010 17-01-2020 01:00:00 4.85 C 41.3333 %
4011 17-01-2020 02:00:00 4.21667 C 42.0000 %
4012 17-01-2020 03:00:00 3.68333 C 44.3333 %
4013 17-01-2020 04:00:00 3.33333 C 43.8333 %
4014 17-01-2020 05:00:00 2.6 C 45.0000 %
4015 17-01-2020 06:00:00 1.86667 C 45.1667 %
4016 17-01-2020 07:00:00 1.46667 C 45.1667 %
4017 17-01-2020 08:00:00 2.15 C 45.1667 %
4018 17-01-2020 09:00:00 2.43333 C 44.3333 %
4019 17-01-2020 10:00:00 3.63333 C 43.5000 %
4020 17-01-2020 11:00:00 5.25 C 40.6667 %
4021 17-01-2020 12:00:00 7.05 C 35.5000 %
4022 17-01-2020 13:00:00 8.46667 C 32.6667 %
4023 17-01-2020 14:00:00 9.05 C 32.0000 %
4024 17-01-2020 15:00:00 8.25 C 36.3333 %
4025 17-01-2020 16:00:00 7.98333 C 37.0000 %
Sensor: Nr:Datum:Temp:Feuchte:
Aussen-T/F 4026 17-01-2020 17:00:00 8.33333 C 35.1667 %
4027 17-01-2020 18:00:00 8.33333 C 33.3333 %
4028 17-01-2020 19:00:00 6.45 C 38.5000 %
4029 17-01-2020 20:00:00 7.06667 C 36.3333 %
4030 17-01-2020 21:00:00 6.98333 C 30.8333 %
4031 17-01-2020 22:00:00 4.58333 C 34.3333 %
4032 17-01-2020 23:00:00 3.36667 C 38.6667 %
4033 18-01-2020 00:00:00 3.1 C 41.3333 %
4034 18-01-2020 01:00:00 3.95 C 37.0000 %
4035 18-01-2020 02:00:00 3.66667 C 38.0000 %
4036 18-01-2020 03:00:00 4.6 C 31.5000 %
4037 18-01-2020 04:00:00 4.13333 C 32.0000 %
4038 18-01-2020 05:00:00 3.75 C 32.1667 %
4039 18-01-2020 06:00:00 3.68333 C 31.6667 %
4040 18-01-2020 07:00:00 3.33333 C 32.3333 %
4041 18-01-2020 08:00:00 3.83333 C 31.6667 %
4042 18-01-2020 09:00:00 4.1 C 30.8333 %
4043 18-01-2020 10:00:00 4.78333 C 29.8333 %
4044 18-01-2020 11:00:00 5.41667 C 27.1667 %
4045 18-01-2020 12:00:00 5.91667 C 26.1667 %
4046 18-01-2020 13:00:00 5.8 C 25.8333 %
4047 18-01-2020 14:00:00 6.13333 C 24.5000 %
4048 18-01-2020 15:00:00 6.16667 C 22.5000 %
4049 18-01-2020 16:00:00 5.08333 C 26.0000 %
4050 18-01-2020 17:00:00 3.96667 C 29.1667 %
Sensor: Nr:Datum:Temp:Feuchte:
Aussen-T/F 4051 18-01-2020 18:00:00 2.61667 C 34.8333 %
4052 18-01-2020 19:00:00 1.2 C 40.0000 %
4053 18-01-2020 20:00:00 0.26667 C 43.6667 %
4054 18-01-2020 21:00:00 1.31667 C 40.8333 %
4055 18-01-2020 22:00:00 1.66667 C 37.8333 %
4056 18-01-2020 23:00:00 2.48333 C 35.6667 %
4057 19-01-2020 00:00:00 2.2 C 42.5000 %
4058 19-01-2020 01:00:00 2.08333 C 42.1667 %
4059 19-01-2020 02:00:00 1.85 C 45.0000 %
4060 19-01-2020 03:00:00 2.03333 C 45.1667 %
4061 19-01-2020 04:00:00 2.1 C 44.6667 %
4062 19-01-2020 05:00:00 2.18333 C 44.6667 %
4063 19-01-2020 06:00:00 2.21667 C 43.6667 %
4064 19-01-2020 07:00:00 2.31667 C 43.8333 %
4065 19-01-2020 08:00:00 2.41667 C 42.6667 %
4066 19-01-2020 09:00:00 2.63333 C 40.8333 %
4067 19-01-2020 10:00:00 3.05 C 37.8333 %
4068 19-01-2020 11:00:00 3.61667 C 35.3333 %
4069 19-01-2020 12:00:00 4.03333 C 34.0000 %
4070 19-01-2020 13:00:00 4.23333 C 33.5000 %
4071 19-01-2020 14:00:00 4.73333 C 31.5000 %
4072 19-01-2020 15:00:00 4.55 C 31.3333 %
4073 19-01-2020 16:00:00 3.96667 C 34.6667 %
4074 19-01-2020 17:00:00 3.36667 C 44.0000 %
4075 19-01-2020 18:00:00 3.33333 C 44.0000 %
Sensor: Nr:Datum:Temp:Feuchte:
Aussen-T/F 4076 19-01-2020 19:00:00 3.35 C 43.3333 %
4077 19-01-2020 20:00:00 3.25 C 44.0000 %
4078 19-01-2020 21:00:00 3.18333 C 43.6667 %
4079 19-01-2020 22:00:00 3.21667 C 43.6667 %
4080 19-01-2020 23:00:00 2.41667 C 43.6667 %
4081 20-01-2020 00:00:00 2.35 C 45.0000 %
4082 20-01-2020 01:00:00 2.33333 C 45.0000 %
4083 20-01-2020 02:00:00 1.8 C 45.3333 %
4084 20-01-2020 03:00:00 1.31667 C 45.1667 %
4085 20-01-2020 04:00:00 1.6 C 45.6667 %
4086 20-01-2020 05:00:00 1.51667 C 45.0000 %
4087 20-01-2020 06:00:00 1.3 C 45.0000 %
4088 20-01-2020 07:00:00 0.75 C 45.5000 %
4089 20-01-2020 08:00:00 0.76667 C 45.6667 %
4090 20-01-2020 09:00:00 2.01667 C 45.0000 %
4091 20-01-2020 10:00:00 3.26667 C 43.6667 %
4092 20-01-2020 11:00:00 4.46667 C 37.3333 %
4093 20-01-2020 12:00:00 5.06667 C 27.6667 %
4094 20-01-2020 13:00:00 5.7 C 20.1667 %
4095 20-01-2020 14:00:00 5.78333 C 20.0000 %
4096 20-01-2020 15:00:00 4.95 C 20.8333 %
4097 20-01-2020 16:00:00 3.45 C 29.5000 %
4098 20-01-2020 17:00:00 1.61667 C 32.6667 %
4099 20-01-2020 18:00:00 0.26667 C 39.0000 %
4100 20-01-2020 19:00:00 -1.13333 C 42.3333 %
Sensor: Nr:Datum:Temp:Feuchte:
Aussen-T/F 4101 20-01-2020 20:00:00 -1.73333 C 44.8333 %
4102 20-01-2020 21:00:00 -2.35 C 45.0000 %
4103 20-01-2020 22:00:00 -2.7 C 45.1667 %
4104 20-01-2020 23:00:00 -2.83333 C 44.8333 %
4105 21-01-2020 00:00:00 -2.96667 C 44.0000 %
4106 21-01-2020 01:00:00 -3.26667 C 44.0000 %
4107 21-01-2020 02:00:00 -3.65 C 44.0000 %
4108 21-01-2020 03:00:00 -4.08333 C 43.0000 %
4109 21-01-2020 04:00:00 -4.36667 C 42.6667 %
4110 21-01-2020 05:00:00 -4.2 C 44.0000 %
4111 21-01-2020 06:00:00 -3.6 C 45.0000 %
4112 21-01-2020 07:00:00 -3.55 C 45.0000 %
4113 21-01-2020 08:00:00 -3.58333 C 45.0000 %
4114 21-01-2020 09:00:00 -3.68333 C 44.5000 %
4115 21-01-2020 10:00:00 -3.11667 C 44.6667 %
4116 21-01-2020 11:00:00 -2.36667 C 44.3333 %
4117 21-01-2020 12:00:00 -1.38333 C 45.1667 %
4118 21-01-2020 13:00:00 -0.81667 C 45.3333 %
4119 21-01-2020 14:00:00 -0.33333 C 46.0000 %
4120 21-01-2020 15:00:00 -0.5 C 46.0000 %
4121 21-01-2020 16:00:00 -0.96667 C 46.0000 %
4122 21-01-2020 17:00:00 -1.56667 C 46.0000 %
4123 21-01-2020 18:00:00 -2.25 C 45.1667 %
4124 21-01-2020 19:00:00 -2.25 C 45.3333 %
4125 21-01-2020 20:00:00 -2.56667 C 45.0000 %
Sensor: Nr:Datum:Temp:Feuchte:
Aussen-T/F 4126 21-01-2020 21:00:00 -2.9 C 45.0000 %
4127 21-01-2020 22:00:00 -3 C 45.0000 %
4128 21-01-2020 23:00:00 -3.23333 C 45.0000 %
4129 22-01-2020 00:00:00 -3.5 C 45.0000 %
4130 22-01-2020 01:00:00 -3.55 C 45.0000 %
4131 22-01-2020 02:00:00 -3.88333 C 45.0000 %
4132 22-01-2020 03:00:00 -3.95 C 44.8333 %
4133 22-01-2020 04:00:00 -3.95 C 45.0000 %
4134 22-01-2020 05:00:00 -3.91667 C 44.6667 %
4135 22-01-2020 06:00:00 -3.91667 C 44.1667 %
4136 22-01-2020 07:00:00 -3.55 C 44.8333 %
4137 22-01-2020 08:00:00 -3.43333 C 45.0000 %
4138 22-01-2020 09:00:00 -3.08333 C 44.6667 %
4139 22-01-2020 10:00:00 -2.98333 C 44.8333 %
4140 22-01-2020 11:00:00 -2.25 C 44.6667 %
4141 22-01-2020 12:00:00 -1.33333 C 43.6667 %
4142 22-01-2020 13:00:00 -0.7 C 43.8333 %
4143 22-01-2020 14:00:00 -0.55 C 42.1667 %
4144 22-01-2020 15:00:00 -0.45 C 41.6667 %
4145 22-01-2020 16:00:00 -0.3 C 42.8333 %
4146 22-01-2020 17:00:00 -0.41667 C 45.5000 %
4147 22-01-2020 18:00:00 -0.51667 C 45.8333 %
4148 22-01-2020 19:00:00 -0.31667 C 46.0000 %
4149 22-01-2020 20:00:00 -0.2 C 46.0000 %
4150 22-01-2020 21:00:00 -0.13333 C 46.0000 %
Sensor: Nr:Datum:Temp:Feuchte:
Aussen-T/F 4151 22-01-2020 22:00:00 -0.05 C 46.0000 %
4152 22-01-2020 23:00:00 0.05 C 46.0000 %
4153 23-01-2020 00:00:00 0.1 C 46.0000 %
4154 23-01-2020 01:00:00 0.13333 C 46.0000 %
4155 23-01-2020 02:00:00 0.21667 C 46.0000 %
4156 23-01-2020 03:00:00 0.3 C 46.0000 %
4157 23-01-2020 04:00:00 0.31667 C 46.0000 %
4158 23-01-2020 05:00:00 0.33333 C 46.0000 %
4159 23-01-2020 06:00:00 0.45 C 46.0000 %
4160 23-01-2020 07:00:00 0.53333 C 46.0000 %
4161 23-01-2020 08:00:00 0.7 C 46.0000 %
4162 23-01-2020 09:00:00 1.03333 C 45.3333 %
4163 23-01-2020 10:00:00 1.26667 C 44.0000 %
4164 23-01-2020 11:00:00 1.71667 C 40.8333 %
4165 23-01-2020 12:00:00 1.95 C 38.1667 %
4166 23-01-2020 13:00:00 2.2 C 36.5000 %
4167 23-01-2020 14:00:00 2.2 C 36.1667 %
4168 23-01-2020 15:00:00 2.2 C 35.8333 %
4169 23-01-2020 16:00:00 1.81667 C 38.3333 %
4170 23-01-2020 17:00:00 0.85 C 42.6667 %
4171 23-01-2020 18:00:00 -0.66667 C 45.8333 %
4172 23-01-2020 19:00:00 -1.55 C 46.0000 %
4173 23-01-2020 20:00:00 -1.8 C 45.8333 %
4174 23-01-2020 21:00:00 -0.8 C 46.0000 %
4175 23-01-2020 22:00:00 -0.43333 C 46.0000 %
Sensor: Nr:Datum:Temp:Feuchte:
Aussen-T/F 4176 23-01-2020 23:00:00 -0.15 C 46.0000 %
4177 24-01-2020 00:00:00 0.08333 C 43.6667 %
4178 24-01-2020 01:00:00 0.03333 C 40.1667 %
4179 24-01-2020 02:00:00 -0.08333 C 39.8333 %
4180 24-01-2020 03:00:00 -0.06667 C 38.6667 %
4181 24-01-2020 04:00:00 -0.1 C 38.1667 %
4182 24-01-2020 05:00:00 -0.16667 C 38.0000 %
4183 24-01-2020 06:00:00 -0.2 C 38.0000 %
4184 24-01-2020 07:00:00 -0.28333 C 37.6667 %
4185 24-01-2020 08:00:00 -0.3 C 36.5000 %
4186 24-01-2020 09:00:00 -0.05 C 35.8333 %
4187 24-01-2020 10:00:00 0.38333 C 34.8333 %
4188 24-01-2020 11:00:00 0.96667 C 33.1667 %
4189 24-01-2020 12:00:00 1.73333 C 30.6667 %
4190 24-01-2020 13:00:00 2.5 C 28.5000 %
4191 24-01-2020 14:00:00 2.58333 C 28.1667 %
4192 24-01-2020 15:00:00 2.4 C 29.6667 %
4193 24-01-2020 16:00:00 1.96667 C 30.8333 %
4194 24-01-2020 17:00:00 1.48333 C 33.6667 %
4195 24-01-2020 18:00:00 1.26667 C 36.0000 %
4196 24-01-2020 19:00:00 1.23333 C 37.0000 %
4197 24-01-2020 20:00:00 1.25556 C 36.6667 %
4198 24-01-2020 21:00:00 1.01111 C 37.3333 %
4199 24-01-2020 23:00:00 0.73333 C 37.3333 %
4200 25-01-2020 00:00:00 0.61667 C 37.8333 %
Sensor: Nr:Datum:Temp:Feuchte:
Aussen-T/F 4201 25-01-2020 01:00:00 0.65 C 39.6667 %
4202 25-01-2020 02:00:00 0.56667 C 40.0000 %
4203 25-01-2020 03:00:00 0.5 C 40.0000 %
4204 25-01-2020 04:00:00 0.38333 C 40.0000 %
4205 25-01-2020 05:00:00 0.35 C 39.8333 %
4206 25-01-2020 06:00:00 0.35 C 40.0000 %
4207 25-01-2020 07:00:00 0.46667 C 40.5000 %
4208 25-01-2020 08:00:00 0.6 C 42.0000 %
4209 25-01-2020 09:00:00 1.06667 C 40.5000 %
4210 25-01-2020 10:00:00 1.83333 C 40.1667 %
4211 25-01-2020 11:00:00 2.66667 C 38.0000 %
4212 25-01-2020 12:00:00 3.56667 C 35.1667 %
4213 25-01-2020 13:00:00 3.61667 C 35.3333 %
4214 25-01-2020 14:00:00 4.26667 C 34.1667 %
4215 25-01-2020 15:00:00 4.28333 C 34.3333 %
4216 25-01-2020 16:00:00 4 C 35.8333 %
4217 25-01-2020 17:00:00 3.65 C 38.3333 %
4218 25-01-2020 18:00:00 3.3 C 39.6667 %
4219 25-01-2020 19:00:00 3.18333 C 40.1667 %
4220 25-01-2020 20:00:00 2.9 C 42.0000 %
4221 25-01-2020 21:00:00 2.25 C 41.5000 %
4222 25-01-2020 22:00:00 1.58333 C 42.8333 %
4223 25-01-2020 23:00:00 1.16667 C 43.0000 %
4224 26-01-2020 00:00:00 1.01667 C 43.6667 %
4225 26-01-2020 01:00:00 0.75 C 44.5000 %
Sensor: Nr:Datum:Temp:Feuchte:
Aussen-T/F 4226 26-01-2020 02:00:00 0.78333 C 44.5000 %
4227 26-01-2020 03:00:00 0.65 C 44.5000 %
4228 26-01-2020 04:00:00 0.66667 C 44.6667 %
4229 26-01-2020 05:00:00 0.63333 C 43.1667 %
4230 26-01-2020 06:00:00 0.58333 C 44.0000 %
4231 26-01-2020 07:00:00 0.7 C 44.6667 %
4232 26-01-2020 08:00:00 0.65 C 45.0000 %
4233 26-01-2020 09:00:00 0.93333 C 42.1667 %
4234 26-01-2020 10:00:00 1.38333 C 39.6667 %
4235 26-01-2020 11:00:00 2.41667 C 37.3333 %
4236 26-01-2020 12:00:00 4.1 C 34.3333 %
4237 26-01-2020 13:00:00 4.25 C 36.5000 %
4238 26-01-2020 14:00:00 4.88333 C 36.8333 %
4239 26-01-2020 15:00:00 5.66667 C 34.5000 %
4240 26-01-2020 16:00:00 4.05 C 39.3333 %
4241 26-01-2020 17:00:00 3.58333 C 39.3333 %
4242 26-01-2020 18:00:00 3.7 C 38.3333 %
4243 26-01-2020 19:00:00 3.13333 C 40.3333 %
4244 26-01-2020 20:00:00 2.81667 C 42.6667 %
4245 26-01-2020 21:00:00 1.98333 C 44.8333 %
4246 26-01-2020 22:00:00 0.63333 C 46.1667 %
4247 26-01-2020 23:00:00 1.16667 C 46.5000 %
4248 27-01-2020 00:00:00 1.81667 C 45.6667 %
4249 27-01-2020 01:00:00 1.06667 C 45.5000 %
4250 27-01-2020 02:00:00 1.81667 C 45.3333 %
Sensor: Nr:Datum:Temp:Feuchte:
Aussen-T/F 4251 27-01-2020 03:00:00 2.35 C 44.6667 %
4252 27-01-2020 04:00:00 3.38333 C 43.8333 %
4253 27-01-2020 05:00:00 3.96667 C 43.1667 %
4254 27-01-2020 06:00:00 5.26667 C 42.1667 %
4255 27-01-2020 07:00:00 5.8 C 41.6667 %
4256 27-01-2020 08:00:00 5.7 C 42.3333 %
4257 27-01-2020 09:00:00 6.76667 C 37.3333 %
4258 27-01-2020 10:00:00 7.98333 C 32.0000 %
4259 27-01-2020 11:00:00 7.85 C 33.3333 %
4260 27-01-2020 12:00:00 8.61667 C 31.3333 %
4261 27-01-2020 13:00:00 7.9 C 33.0000 %
4262 27-01-2020 14:00:00 7.06667 C 36.8333 %
4263 27-01-2020 15:00:00 6.8 C 37.6667 %
4264 27-01-2020 16:00:00 6.45 C 39.5000 %
4265 27-01-2020 17:00:00 6.38333 C 38.1667 %
4266 27-01-2020 18:00:00 6.45 C 36.6667 %
4267 27-01-2020 19:00:00 6.11667 C 39.0000 %
4268 27-01-2020 20:00:00 5.66667 C 41.8333 %
4269 27-01-2020 21:00:00 5.36667 C 42.6667 %
4270 27-01-2020 22:00:00 5.41667 C 42.0000 %
4271 27-01-2020 23:00:00 5.65 C 40.1667 %
4272 28-01-2020 00:00:00 6.15 C 36.8333 %
4273 28-01-2020 01:00:00 6.83333 C 35.0000 %
4274 28-01-2020 02:00:00 7.06667 C 33.8333 %
4275 28-01-2020 03:00:00 7.23333 C 32.6667 %
Sensor: Nr:Datum:Temp:Feuchte:
Aussen-T/F 4276 28-01-2020 04:00:00 5.6 C 38.8333 %
4277 28-01-2020 05:00:00 5.86667 C 36.3333 %
4278 28-01-2020 06:00:00 5.45 C 36.8333 %
4279 28-01-2020 07:00:00 4.23333 C 40.5000 %
4280 28-01-2020 08:00:00 4.23333 C 38.6667 %
4281 28-01-2020 09:00:00 4.1 C 38.1667 %
4282 28-01-2020 10:00:00 4.51667 C 34.1667 %
4283 28-01-2020 11:00:00 5.15 C 31.6667 %
4284 28-01-2020 12:00:00 6.16667 C 26.0000 %
4285 28-01-2020 13:00:00 6.35 C 21.1667 %
4286 28-01-2020 14:00:00 6.03333 C 21.5000 %
4287 28-01-2020 15:00:00 6 C 20.3333 %
4288 28-01-2020 16:00:00 4.78333 C 20.6667 %
4289 28-01-2020 17:00:00 4.11667 C 21.0000 %
4290 28-01-2020 18:00:00 3.6 C 25.5000 %
4291 28-01-2020 19:00:00 3.8 C 24.6667 %
4292 28-01-2020 20:00:00 3.8 C 26.3333 %
4293 28-01-2020 21:00:00 3.41667 C 28.1667 %
4294 28-01-2020 22:00:00 3.51667 C 30.0000 %
4295 28-01-2020 23:00:00 3.83333 C 30.1667 %
4296 29-01-2020 00:00:00 3.65 C 31.6667 %
4297 29-01-2020 01:00:00 3.08333 C 35.3333 %
4298 29-01-2020 02:00:00 2.95 C 36.8333 %
4299 29-01-2020 03:00:00 2.88333 C 37.5000 %
4300 29-01-2020 04:00:00 2.95 C 36.6667 %
Sensor: Nr:Datum:Temp:Feuchte:
Aussen-T/F 4301 29-01-2020 05:00:00 3.41667 C 33.0000 %
4302 29-01-2020 06:00:00 3.18333 C 33.3333 %
4303 29-01-2020 07:00:00 3.61667 C 32.3333 %
4304 29-01-2020 08:00:00 3.83333 C 31.0000 %
4305 29-01-2020 09:00:00 3.95 C 30.8333 %
4306 29-01-2020 10:00:00 4.35 C 30.1667 %
4307 29-01-2020 11:00:00 5.28333 C 29.5000 %
4308 29-01-2020 12:00:00 6.46667 C 25.0000 %
4309 29-01-2020 13:00:00 7.1 C 20.0000 %
4310 29-01-2020 14:00:00 7.13333 C 20.0000 %
4311 29-01-2020 15:00:00 6.85 C 20.0000 %
4312 29-01-2020 16:00:00 6.86667 C 20.0000 %
4313 29-01-2020 17:00:00 5.1 C 20.0000 %
4314 29-01-2020 18:00:00 3.5 C 24.6667 %
4315 29-01-2020 19:00:00 2.35 C 30.6667 %
4316 29-01-2020 20:00:00 2.01667 C 35.0000 %
4317 29-01-2020 21:00:00 2.35 C 35.3333 %
4318 29-01-2020 22:00:00 3.33333 C 35.8333 %
4319 29-01-2020 23:00:00 4.76667 C 32.0000 %
4320 30-01-2020 00:00:00 5.21667 C 31.0000 %
4321 30-01-2020 01:00:00 5.68333 C 30.8333 %
4322 30-01-2020 02:00:00 5.51667 C 31.1667 %
4323 30-01-2020 03:00:00 5.75 C 31.0000 %
4324 30-01-2020 04:00:00 5.33333 C 31.5000 %
4325 30-01-2020 05:00:00 4.96667 C 32.8333 %
Sensor: Nr:Datum:Temp:Feuchte:
Aussen-T/F 4326 30-01-2020 06:00:00 4.98333 C 32.0000 %
4327 30-01-2020 07:00:00 4.83333 C 31.8333 %
4328 30-01-2020 08:00:00 4.63333 C 33.6667 %
4329 30-01-2020 09:00:00 5.58333 C 31.6667 %
4330 30-01-2020 10:00:00 6.78333 C 29.8333 %
4331 30-01-2020 11:00:00 7.7 C 29.6667 %
4332 30-01-2020 12:00:00 8.41667 C 28.6667 %
4333 30-01-2020 13:00:00 9.71667 C 24.8333 %
4334 30-01-2020 14:00:00 10.61667 C 20.8333 %
4335 30-01-2020 15:00:00 10.5 C 20.0000 %
4336 30-01-2020 16:00:00 9.18333 C 22.5000 %
4337 30-01-2020 17:00:00 9 C 25.8333 %
4338 30-01-2020 18:00:00 8.96667 C 27.5000 %
4339 30-01-2020 19:00:00 8.46667 C 34.0000 %
4340 30-01-2020 20:00:00 9.3 C 32.0000 %
4341 30-01-2020 21:00:00 9.73333 C 32.0000 %
4342 30-01-2020 22:00:00 10.18333 C 32.0000 %
4343 30-01-2020 23:00:00 10.75 C 32.5000 %
4344 31-01-2020 00:00:00 11.65 C 31.8333 %
4345 31-01-2020 01:00:00 12.56667 C 31.0000 %
4346 31-01-2020 02:00:00 12.96667 C 30.1667 %
4347 31-01-2020 03:00:00 12.91667 C 30.6667 %
4348 31-01-2020 04:00:00 12.76667 C 31.0000 %
4349 31-01-2020 05:00:00 12.66667 C 31.0000 %
4350 31-01-2020 06:00:00 12.5 C 30.5000 %
Sensor: Nr:Datum:Temp:Feuchte:
Aussen-T/F 4351 31-01-2020 07:00:00 12.3 C 30.6667 %
4352 31-01-2020 08:00:00 12.51667 C 30.0000 %
4353 31-01-2020 09:00:00 13.05 C 28.3333 %
4354 31-01-2020 10:00:00 13.4 C 26.8333 %
4355 31-01-2020 11:00:00 13.73333 C 25.8333 %
4356 31-01-2020 12:00:00 13.73333 C 25.0000 %
4357 31-01-2020 13:00:00 14.55 C 23.5000 %
4358 31-01-2020 14:00:00 14.33333 C 23.3333 %
4359 31-01-2020 15:00:00 13.56667 C 25.0000 %
4360 31-01-2020 16:00:00 12.76667 C 25.6667 %
4361 31-01-2020 17:00:00 12.11667 C 26.1667 %
4362 31-01-2020 18:00:00 12.18333 C 26.6667 %
4363 31-01-2020 19:00:00 12.53333 C 27.0000 %
4364 31-01-2020 20:00:00 12.3 C 27.5000 %
4365 31-01-2020 21:00:00 12.31667 C 28.1667 %
4366 31-01-2020 22:00:00 12.68333 C 27.1667 %
4367 31-01-2020 23:00:00 12.56667 C 27.0000 %
4368 01-02-2020 00:00:00 12.51667 C 27.8333 %
4369 01-02-2020 01:00:00 12.23333 C 27.5000 %
4370 01-02-2020 02:00:00 11.58333 C 28.1667 %
4371 01-02-2020 03:00:00 11.91667 C 27.5000 %
4372 01-02-2020 04:00:00 11.75 C 28.5000 %
4373 01-02-2020 05:00:00 11.63333 C 29.3333 %
4374 01-02-2020 06:00:00 11.76667 C 29.6667 %
4375 01-02-2020 07:00:00 12.05 C 30.0000 %
Sensor: Nr:Datum:Temp:Feuchte:
Aussen-T/F 4376 01-02-2020 08:00:00 11.06667 C 37.3333 %
4377 01-02-2020 09:00:00 11.5 C 36.0000 %
4378 01-02-2020 10:00:00 12.1 C 34.3333 %
4379 01-02-2020 11:00:00 12 C 35.1667 %
4380 01-02-2020 12:00:00 11.98333 C 35.1667 %
4381 01-02-2020 13:00:00 11.95 C 36.3333 %
4382 01-02-2020 14:00:00 11.21667 C 38.1667 %
4383 01-02-2020 15:00:00 10.83333 C 36.3333 %
4384 01-02-2020 16:00:00 11.01667 C 33.6667 %
4385 01-02-2020 17:00:00 11.13333 C 32.3333 %
4386 01-02-2020 18:00:00 11.3 C 30.5000 %
4387 01-02-2020 19:00:00 10.45 C 35.1667 %
4388 01-02-2020 20:00:00 9.88333 C 33.8333 %
4389 01-02-2020 21:00:00 9.26667 C 30.3333 %
4390 01-02-2020 22:00:00 8.88333 C 28.5000 %
4391 01-02-2020 23:00:00 7.95 C 28.6667 %
4392 02-02-2020 00:00:00 7.76667 C 28.0000 %
4393 02-02-2020 01:00:00 7.88333 C 28.0000 %
4394 02-02-2020 02:00:00 7.85 C 28.0000 %
4395 02-02-2020 03:00:00 7.83333 C 27.8333 %
4396 02-02-2020 04:00:00 7.3 C 28.0000 %
4397 02-02-2020 05:00:00 6.91667 C 29.3333 %
4398 02-02-2020 06:00:00 6.7 C 31.0000 %
4399 02-02-2020 07:00:00 6.11667 C 41.6667 %
4400 02-02-2020 08:00:00 6.21667 C 44.0000 %
Sensor: Nr:Datum:Temp:Feuchte:
Aussen-T/F 4401 02-02-2020 09:00:00 6.41667 C 43.6667 %
4402 02-02-2020 10:00:00 6.98333 C 41.6667 %
4403 02-02-2020 11:00:00 7.83333 C 40.8333 %
4404 02-02-2020 12:00:00 10.63333 C 36.8333 %
4405 02-02-2020 13:00:00 12.58333 C 32.8333 %
4406 02-02-2020 14:00:00 13.33333 C 31.6667 %
4407 02-02-2020 15:00:00 13.55 C 31.3333 %
4408 02-02-2020 16:00:00 14.28333 C 26.3333 %
4409 02-02-2020 17:00:00 13.75 C 25.0000 %
4410 02-02-2020 18:00:00 13.1 C 25.3333 %
4411 02-02-2020 19:00:00 12.95 C 24.1667 %
4412 02-02-2020 20:00:00 12.36667 C 25.3333 %
4413 02-02-2020 21:00:00 12.21667 C 25.0000 %
4414 02-02-2020 22:00:00 11.98333 C 25.3333 %
4415 02-02-2020 23:00:00 11.63333 C 26.0000 %
4416 03-02-2020 00:00:00 10.55 C 27.3333 %
4417 03-02-2020 01:00:00 9.46667 C 31.0000 %
4418 03-02-2020 02:00:00 10.26667 C 30.0000 %
4419 03-02-2020 03:00:00 10.31667 C 29.8333 %
4420 03-02-2020 04:00:00 10 C 31.5000 %
4421 03-02-2020 05:00:00 10 C 31.3333 %
4422 03-02-2020 06:00:00 10.45 C 30.1667 %
4423 03-02-2020 07:00:00 10.16667 C 30.1667 %
4424 03-02-2020 08:00:00 10.08333 C 30.1667 %
4425 03-02-2020 09:00:00 10.15 C 30.3333 %
Sensor: Nr:Datum:Temp:Feuchte:
Aussen-T/F 4426 03-02-2020 10:00:00 10.91667 C 28.6667 %
4427 03-02-2020 11:00:00 12.15 C 21.0000 %
4428 03-02-2020 12:00:00 12.38333 C 20.0000 %
4429 03-02-2020 13:00:00 12.2 C 20.0000 %
4430 03-02-2020 14:00:00 12.1 C 21.0000 %
4431 03-02-2020 15:00:00 12.05 C 20.0000 %
4432 03-02-2020 16:00:00 11.73333 C 20.0000 %
4433 03-02-2020 17:00:00 11.1 C 22.1667 %
4434 03-02-2020 18:00:00 10.48333 C 24.3333 %
4435 03-02-2020 19:00:00 8.56667 C 35.8333 %
4436 03-02-2020 20:00:00 7.91667 C 43.5000 %
4437 03-02-2020 21:00:00 7.75 C 43.6667 %
4438 03-02-2020 22:00:00 7.25 C 43.1667 %
4439 03-02-2020 23:00:00 6.56667 C 43.1667 %
4440 04-02-2020 00:00:00 5.46667 C 42.5000 %
4441 04-02-2020 01:00:00 4.93333 C 41.0000 %
4442 04-02-2020 02:00:00 3.96667 C 40.3333 %
4443 04-02-2020 03:00:00 3.95 C 39.6667 %
4444 04-02-2020 04:00:00 3.91667 C 38.3333 %
4445 04-02-2020 05:00:00 3.58333 C 39.5000 %
4446 04-02-2020 06:00:00 4.43333 C 33.5000 %
4447 04-02-2020 07:00:00 4.21667 C 33.6667 %
4448 04-02-2020 08:00:00 3.71667 C 35.0000 %
4449 04-02-2020 09:00:00 3.78333 C 35.3333 %
4450 04-02-2020 10:00:00 3.93333 C 37.3333 %
Sensor: Nr:Datum:Temp:Feuchte:
Aussen-T/F 4451 04-02-2020 11:00:00 4.61667 C 34.5000 %
4452 04-02-2020 12:00:00 3.86667 C 37.6667 %
4453 04-02-2020 13:00:00 5.21667 C 31.5000 %
4454 04-02-2020 14:00:00 6.23333 C 27.3333 %
4455 04-02-2020 15:00:00 4.85 C 30.6667 %
4456 04-02-2020 16:00:00 4.65 C 33.0000 %
4457 04-02-2020 17:00:00 4.08333 C 35.1667 %
4458 04-02-2020 18:00:00 4.08333 C 35.6667 %
4459 04-02-2020 19:00:00 4.05 C 37.3333 %
4460 04-02-2020 20:00:00 3.88333 C 38.6667 %
4461 04-02-2020 21:00:00 3.9 C 38.8333 %
4462 04-02-2020 22:00:00 3.78333 C 39.6667 %
4463 04-02-2020 23:00:00 3.96667 C 37.6667 %
4464 05-02-2020 00:00:00 4.15 C 36.1667 %
4465 05-02-2020 01:00:00 4.61667 C 33.6667 %
4466 05-02-2020 02:00:00 4.7 C 34.1667 %
4467 05-02-2020 03:00:00 4.35 C 36.3333 %
4468 05-02-2020 04:00:00 3.55 C 39.0000 %
4469 05-02-2020 05:00:00 2.91667 C 40.5000 %
4470 05-02-2020 06:00:00 3.6 C 38.6667 %
4471 05-02-2020 07:00:00 2.68333 C 39.3333 %
4472 05-02-2020 08:00:00 1.78333 C 42.3333 %
4473 05-02-2020 09:00:00 2.28333 C 42.3333 %
4474 05-02-2020 10:00:00 4.58333 C 33.5000 %
4475 05-02-2020 11:00:00 5.11667 C 30.1667 %
Sensor: Nr:Datum:Temp:Feuchte:
Aussen-T/F 4476 05-02-2020 12:00:00 5.73333 C 28.8333 %
4477 05-02-2020 13:00:00 5.68333 C 27.5000 %
4478 05-02-2020 14:00:00 6.31667 C 26.6667 %
4479 05-02-2020 15:00:00 6.36667 C 26.3333 %
4480 05-02-2020 16:00:00 5.18333 C 29.8333 %
4481 05-02-2020 17:00:00 3.01667 C 35.3333 %
4482 05-02-2020 18:00:00 1.46667 C 40.1667 %
4483 05-02-2020 19:00:00 -0.28333 C 45.6667 %
4484 05-02-2020 20:00:00 -0.71667 C 46.0000 %
4485 05-02-2020 21:00:00 -1.11667 C 46.1667 %
4486 05-02-2020 22:00:00 -1.45 C 46.5000 %
4487 05-02-2020 23:00:00 -1.31667 C 46.3333 %
4488 06-02-2020 00:00:00 -1.53333 C 46.3333 %
4489 06-02-2020 01:00:00 -1.15 C 46.3333 %
4490 06-02-2020 02:00:00 -1.3 C 46.0000 %
4491 06-02-2020 03:00:00 -1.8 C 46.0000 %
4492 06-02-2020 04:00:00 -1.73333 C 46.0000 %
4493 06-02-2020 05:00:00 -1.96667 C 46.0000 %
4494 06-02-2020 06:00:00 -2.28333 C 46.0000 %
4495 06-02-2020 07:00:00 -2.53333 C 45.6667 %
4496 06-02-2020 08:00:00 -1.73333 C 46.3333 %
4497 06-02-2020 09:00:00 -1.03333 C 46.8333 %
4498 06-02-2020 10:00:00 -0.41667 C 45.8333 %
4499 06-02-2020 11:00:00 0.55 C 44.5000 %
4500 06-02-2020 12:00:00 3.05 C 38.3333 %
Sensor: Nr:Datum:Temp:Feuchte:
Aussen-T/F 4501 06-02-2020 13:00:00 4.15 C 36.5000 %
4502 06-02-2020 14:00:00 5.2 C 34.6667 %
4503 06-02-2020 15:00:00 5.41667 C 31.0000 %
4504 06-02-2020 16:00:00 5.63333 C 28.0000 %
4505 06-02-2020 17:00:00 2.48333 C 36.1667 %
4506 06-02-2020 18:00:00 1.11667 C 39.6667 %
4507 06-02-2020 19:00:00 -0.45 C 45.5000 %
4508 06-02-2020 20:00:00 -1.56667 C 46.1667 %
4509 06-02-2020 21:00:00 -2.1 C 46.1667 %
4510 06-02-2020 22:00:00 -2.36667 C 46.0000 %
4511 06-02-2020 23:00:00 -2.55 C 46.0000 %
4512 07-02-2020 00:00:00 -2.9 C 46.0000 %
4513 07-02-2020 01:00:00 -3.08333 C 45.1667 %
4514 07-02-2020 02:00:00 -2.48333 C 45.6667 %